[[{"header":{"parameterUnit":"m.s-1","parameterCategory":1,"la1":30.6,"la2":28.766,"lo1":-90.7593,"lo2":-88.6598,"dy":0.0162,"dx":0.0183,"nx":116,"ny":114,"refTime":"2023-08-02T18:00:00:Z","depth":0,"parameterNumber":2,"parameterNumberName":"U-component_of_WINDS"},"data":[0.0,0.0,0.0,0.0,0.0,0.0,0.0,0.0,0.0,0.0,0.0,0.0,0.0,0.0,0.0,0.0,0.0,0.0,0.0,0.0,0.0,0.0,0.0,0.0,0.0,0.0,0.0,0.0,0.0,0.0,0.0,0.0,0.0,0.0,0.0,0.0,0.0,0.0,0.0,0.0,0.0,0.0,0.0,0.0,0.0,0.0,0.0,0.0,0.0,0.0,0.0,0.0,0.0,0.0,0.0,0.0,0.0,0.0,0.0,0.0,0.0,0.0,0.0,0.0,0.0,0.0,0.0,0.0,0.0,0.0,0.0,0.0,0.0,0.0,0.0,0.0,0.0,0.0,0.0,0.0,0.0,0.0,0.0,0.0,0.0,0.0,0.0,0.0,0.0,0.0,0.0,0.0,0.0,0.0,0.0,0.0,0.0,0.0,0.0,0.0,0.0,0.0,0.0,0.0,0.0,0.0,0.0,0.0,0.0,0.0,0.0,0.0,0.0,0.0,0.0,0.0,0.0,0.0,0.0,0.0,0.0,0.0,0.0,0.0,0.0,0.0,0.0,0.0,0.0,0.0,0.0,0.0,0.0,0.0,0.0,0.0,0.0,0.0,0.0,0.0,0.0,0.0,0.0,0.0,0.0,0.0,0.0,0.0,0.0,0.0,0.0,0.0,0.0,0.0,0.0,0.0,0.0,0.0,0.0,0.0,0.0,0.0,0.0,0.0,0.0,0.0,0.0,0.0,0.0,0.0,0.0,0.0,0.0,0.0,0.0,0.0,0.0,0.0,0.0,0.0,0.0,0.0,0.0,0.0,0.0,0.0,0.0,0.0,0.0,0.0,0.0,0.0,0.0,0.0,0.0,0.0,0.0,0.0,0.0,0.0,0.0,0.0,0.0,0.0,0.0,0.0,0.0,0.0,0.0,0.0,0.0,0.0,0.0,0.0,0.0,0.0,0.0,0.0,0.0,0.0,0.0,0.0,0.0,0.0,0.0,0.0,0.0,0.0,0.0,0.0,0.0,0.0,0.0,0.0,0.0,0.0,0.0,0.0,0.0,0.0,0.0,0.0,0.0,0.0,0.0,0.0,0.0,0.0,0.0,0.0,0.0,0.0,0.0,0.0,0.0,0.0,0.0,0.0,0.0,0.0,0.0,0.0,0.0,0.0,0.0,0.0,0.0,0.0,0.0,0.0,0.0,0.0,0.0,0.0,0.0,0.0,0.0,0.0,0.0,0.0,0.0,0.0,0.0,0.0,0.0,0.0,0.0,0.0,0.0,0.0,0.0,0.0,0.0,0.0,0.0,0.0,0.0,0.0,0.0,0.0,0.0,0.0,0.0,0.0,0.0,0.0,0.0,0.0,0.0,0.0,0.0,0.0,0.0,0.0,0.0,0.0,0.0,0.0,0.0,0.0,0.0,0.0,0.0,0.0,0.0,0.0,0.0,0.0,0.0,0.0,0.0,0.0,0.0,0.0,0.0,0.0,0.0,0.0,0.0,0.0,0.0,0.0,0.0,0.0,0.0,0.0,0.0,0.0,0.0,0.0,0.0,0.0,0.0,0.0,0.0,0.0,0.0,0.0,0.0,0.0,0.0,0.0,0.0,0.0,0.0,0.0,0.0,0.0,0.0,0.0,0.0,0.0,0.0,0.0,0.0,0.0,0.0,0.0,0.0,0.0,0.0,0.0,0.0,0.0,0.0,0.0,0.0,0.0,0.0,0.0,0.0,0.0,0.0,0.0,0.0,0.0,0.0,0.0,0.0,0.0,0.0,0.0,0.0,0.0,0.0,0.0,0.0,0.0,0.0,0.0,0.0,0.0,0.0,0.0,0.0,0.0,0.0,0.0,0.0,0.0,0.0,0.0,0.0,0.0,0.0,0.0,0.0,0.0,0.0,0.0,0.0,0.0,0.0,0.0,0.0,0.0,0.0,0.0,0.0,0.0,0.0,0.0,0.0,0.0,0.0,0.0,0.0,0.0,0.0,0.0,0.0,0.0,0.0,0.0,0.0,0.0,0.0,0.0,0.0,0.0,0.0,0.0,0.0,0.0,0.0,0.0,0.0,0.0,0.0,0.0,0.0,0.0,0.0,0.0,0.0,0.0,0.0,0.0,0.0,0.0,0.0,0.0,0.0,0.0,0.0,0.0,0.0,0.0,0.0,0.0,0.0,0.0,0.0,0.0,0.0,0.0,0.0,0.0,0.0,0.0,0.0,0.0,0.0,0.0,0.0,0.0,0.0,0.0,0.0,0.0,0.0,0.0,0.0,0.0,0.0,0.0,0.0,0.0,0.0,0.0,0.0,0.0,0.0,0.0,0.0,0.0,0.0,0.0,0.0,0.0,0.0,0.0,0.0,0.0,0.0,0.0,0.0,0.0,0.0,0.0,0.0,0.0,0.0,0.0,0.0,0.0,0.0,0.0,0.0,0.0,0.0,0.0,0.0,0.0,0.0,0.0,0.0,0.0,0.0,0.0,0.0,0.0,0.0,0.0,0.0,0.0,0.0,0.0,0.0,0.0,0.0,0.0,0.0,0.0,0.0,0.0,0.0,0.0,0.0,0.0,0.0,0.0,0.0,0.0,0.0,0.0,0.0,0.0,0.0,0.0,0.0,0.0,0.0,0.0,0.0,0.0,0.0,0.0,0.0,0.0,0.0,0.0,0.0,0.0,0.0,0.0,0.0,0.0,0.0,0.0,0.0,0.0,0.0,0.0,0.0,0.0,0.0,0.0,0.0,0.0,0.0,0.0,0.0,0.0,0.0,0.0,0.0,0.0,0.0,0.0,0.0,0.0,0.0,0.0,0.0,0.0,0.0,0.0,0.0,0.0,0.0,0.0,0.0,0.0,0.0,0.0,0.0,0.0,0.0,0.0,0.0,0.0,0.0,0.0,0.0,0.0,0.0,0.0,0.0,0.0,0.0,0.0,0.0,0.0,0.0,0.0,0.0,0.0,0.0,0.0,0.0,0.0,0.0,0.0,0.0,0.0,0.0,0.0,0.0,0.0,0.0,0.0,0.0,0.0,0.0,0.0,0.0,0.0,0.0,0.0,0.0,0.0,0.0,0.0,0.0,0.0,0.0,0.0,0.0,0.0,0.0,0.0,0.0,0.0,0.0,0.0,0.0,0.0,0.0,0.0,0.0,0.0,0.0,0.0,0.0,0.0,0.0,0.0,0.0,0.0,0.0,0.0,0.0,0.0,0.0,0.0,0.0,0.0,0.0,0.0,0.0,0.0,0.0,0.0,0.0,0.0,0.0,0.0,0.0,0.0,0.0,0.0,0.0,0.0,0.0,0.0,0.0,0.0,0.0,0.0,0.0,0.0,0.0,0.0,0.0,0.0,0.0,0.0,0.0,0.0,0.0,0.0,0.0,0.0,0.0,0.0,0.0,0.0,0.0,0.0,0.0,0.0,0.0,0.0,0.0,0.0,0.0,0.0,0.0,0.0,0.0,0.0,0.0,0.0,0.0,0.0,0.0,0.0,0.0,0.0,0.0,0.0,0.0,0.0,0.0,0.0,0.0,0.0,0.0,0.0,0.0,0.0,0.0,0.0,0.0,0.0,0.0,0.0,0.0,0.0,0.0,0.0,0.0,0.0,0.0,0.0,0.0,0.0,0.0,0.0,0.0,0.0,0.0,0.0,0.0,0.0,0.0,0.0,0.0,0.0,0.0,0.0,0.0,0.0,0.0,0.0,0.0,0.0,0.0,0.0,0.0,0.0,0.0,0.0,0.0,0.0,0.0,0.0,0.0,0.0,0.0,0.0,0.0,0.0,0.0,0.0,0.0,0.0,0.0,0.0,0.0,0.0,0.0,0.0,0.0,0.0,0.0,0.0,0.0,0.0,0.0,0.0,0.0,0.0,0.0,0.0,0.0,0.0,0.0,0.0,0.0,0.0,0.0,0.0,0.0,0.0,0.0,0.0,0.0,0.0,0.0,0.0,0.0,0.0,0.0,0.0,0.0,0.0,0.0,0.0,0.0,0.0,0.0,0.0,0.0,0.0,0.0,0.0,0.0,0.0,0.0,0.0,0.0,0.0,0.0,0.0,0.0,0.0,0.0,0.0,0.0,0.0,0.0,0.0,0.0,0.0,0.0,0.0,0.0,0.0,0.0,0.0,0.0,0.0,0.0,0.0,0.0,0.0,0.0,0.0,0.0,0.0,0.0,0.0,0.0,0.0,0.0,0.0,0.0,0.0,0.0,0.0,0.0,0.0,0.0,0.0,0.0,0.0,0.0,0.0,0.0,0.0,0.0,0.0,0.0,0.0,0.0,0.0,0.0,0.0,0.0,0.0,0.0,0.0,0.0,0.0,0.0,0.0,0.0,0.0,0.0,0.0,0.0,0.0,0.0,0.0,0.0,0.0,0.0,0.0,0.0,0.0,0.0,0.0,0.0,0.0,0.0,0.0,0.0,0.0,0.0,0.0,0.0,0.0,0.0,0.0,0.0,0.0,0.0,0.0,0.0,0.0,0.0,0.0,0.0,0.0,0.0,0.0,0.0,0.0,0.0,0.0,0.0,0.0,0.0,0.0,0.0,0.0,0.0,0.0,0.0,0.0,0.0,0.0,0.0,0.0,0.0,0.0,0.0,0.0,0.0,0.0,0.0,0.0,0.0,0.0,0.0,0.0,0.0,0.0,0.0,0.0,0.0,0.0,0.0,0.0,0.0,0.0,0.0,0.0,0.0,0.0,0.0,0.0,0.0,0.0,0.0,0.0,0.0,0.0,0.0,0.0,0.0,0.0,0.0,0.0,0.0,0.0,0.0,0.0,0.0,0.0,0.0,0.0,0.0,0.0,0.0,0.0,0.0,0.0,0.0,0.0,0.0,0.0,0.0,0.0,0.0,0.0,0.0,0.0,0.0,0.0,0.0,0.0,0.0,0.0,0.0,0.0,0.0,0.0,0.0,0.0,0.0,0.0,0.0,0.0,0.0,0.0,0.0,0.0,0.0,0.0,0.0,0.0,0.0,0.0,0.0,0.0,0.0,0.0,0.0,0.0,0.0,0.0,0.0,0.0,0.0,0.0,0.0,0.0,0.0,0.0,0.0,0.0,0.0,0.0,0.0,0.0,0.0,0.0,0.0,0.0,0.0,0.0,0.0,0.0,0.0,0.0,0.0,0.0,0.0,0.0,0.0,0.0,0.0,0.0,0.0,0.0,0.0,0.0,0.0,0.0,0.0,0.0,0.0,0.0,0.0,0.0,0.0,0.0,0.0,0.0,0.0,0.0,0.0,0.0,0.0,0.0,0.0,0.0,0.0,0.0,0.0,0.0,0.0,0.0,0.0,0.0,0.0,0.0,0.0,0.0,0.0,0.0,0.0,0.0,0.0,0.0,0.0,0.0,0.0,0.0,0.0,0.0,0.0,0.0,0.0,0.0,0.0,0.0,0.0,0.0,0.0,0.0,0.0,0.0,0.0,0.0,0.0,0.0,0.0,0.0,0.0,0.0,0.0,0.0,0.0,0.0,0.0,0.0,0.0,0.0,0.0,0.0,0.0,0.0,0.0,0.0,0.0,0.0,0.0,0.0,0.0,0.0,0.0,0.0,0.0,0.0,0.0,0.0,0.0,0.0,0.0,0.0,0.0,0.0,0.0,0.0,0.0,0.0,0.0,0.0,0.0,0.0,0.0,0.0,0.0,0.0,0.0,0.0,0.0,0.0,0.0,0.0,0.0,0.0,0.0,0.0,0.0,0.0,0.0,0.0,0.0,0.0,0.0,0.0,0.0,0.0,0.0,0.0,0.0,0.0,0.0,0.0,0.0,0.0,0.0,0.0,0.0,0.0,0.0,0.0,0.0,0.0,0.0,0.0,0.0,0.0,0.0,0.0,0.0,0.0,0.0,0.0,0.0,0.0,0.0,0.0,0.0,0.0,0.0,0.0,0.0,0.0,0.0,0.0,0.0,0.0,0.0,0.0,0.0,0.0,0.0,0.0,0.0,0.0,0.0,0.0,0.0,0.0,0.0,0.0,0.0,0.0,0.0,0.0,0.0,0.0,0.0,0.0,0.0,0.0,0.0,0.0,0.0,0.0,0.0,0.0,0.0,0.0,0.0,0.0,0.0,0.0,0.0,0.0,0.0,0.0,0.0,0.0,-5.4258,0.0,0.0,0.0,0.0,0.0,0.0,0.0,0.0,0.0,0.0,0.0,0.0,0.0,0.0,0.0,0.0,0.0,0.0,0.0,0.0,0.0,0.0,0.0,0.0,0.0,0.0,0.0,0.0,0.0,0.0,0.0,0.0,0.0,0.0,0.0,0.0,0.0,0.0,0.0,0.0,0.0,0.0,0.0,0.0,0.0,0.0,0.0,0.0,0.0,0.0,0.0,0.0,0.0,0.0,0.0,0.0,0.0,0.0,0.0,0.0,0.0,0.0,0.0,0.0,0.0,0.0,0.0,0.0,0.0,0.0,0.0,0.0,0.0,0.0,0.0,0.0,0.0,0.0,0.0,0.0,0.0,0.0,0.0,0.0,0.0,0.0,0.0,0.0,0.0,0.0,0.0,0.0,0.0,0.0,0.0,0.0,0.0,0.0,0.0,0.0,0.0,0.0,0.0,0.0,0.0,0.0,0.0,0.0,0.0,0.0,0.0,0.0,0.0,0.0,0.0,0.0,-5.3539,0.0,0.0,0.0,0.0,0.0,0.0,0.0,0.0,0.0,0.0,0.0,0.0,0.0,0.0,0.0,0.0,0.0,0.0,0.0,0.0,0.0,0.0,0.0,0.0,0.0,0.0,0.0,0.0,0.0,0.0,0.0,0.0,0.0,0.0,0.0,0.0,0.0,0.0,0.0,0.0,0.0,0.0,0.0,0.0,0.0,0.0,0.0,0.0,0.0,0.0,0.0,0.0,0.0,0.0,0.0,0.0,0.0,0.0,0.0,0.0,0.0,0.0,0.0,0.0,0.0,0.0,0.0,0.0,0.0,0.0,0.0,0.0,0.0,0.0,0.0,0.0,0.0,0.0,0.0,0.0,0.0,0.0,0.0,0.0,0.0,0.0,0.0,0.0,0.0,0.0,0.0,0.0,0.0,0.0,0.0,0.0,0.0,0.0,0.0,0.0,0.0,0.0,0.0,0.0,0.0,0.0,0.0,0.0,-5.5724,-5.5692,-5.5629,-5.5585,-5.5427,-5.5108,-5.3638,-5.3327,-5.3843,-5.3351,0.0,0.0,0.0,0.0,0.0,0.0,0.0,0.0,0.0,0.0,0.0,0.0,0.0,0.0,0.0,0.0,0.0,0.0,0.0,0.0,0.0,0.0,0.0,0.0,0.0,0.0,0.0,0.0,0.0,0.0,0.0,0.0,0.0,0.0,0.0,0.0,0.0,0.0,-4.5629,-4.5571,-4.5632,-4.5776,-4.6715,0.0,0.0,0.0,0.0,0.0,0.0,0.0,0.0,0.0,0.0,0.0,0.0,0.0,0.0,0.0,0.0,0.0,0.0,0.0,0.0,0.0,0.0,0.0,0.0,0.0,0.0,0.0,0.0,0.0,0.0,0.0,0.0,0.0,0.0,0.0,0.0,0.0,0.0,0.0,0.0,0.0,0.0,0.0,-5.5326,-5.63,0.0,0.0,0.0,0.0,0.0,0.0,0.0,0.0,0.0,0.0,0.0,0.0,0.0,-5.6019,-5.6056,-5.5932,-5.5875,-5.5875,-5.5797,-5.5776,-5.5766,-5.5527,-5.5037,-5.4336,-5.3989,0.0,-5.2919,-5.2094,0.0,0.0,0.0,0.0,0.0,0.0,0.0,0.0,0.0,0.0,0.0,0.0,0.0,0.0,0.0,0.0,0.0,0.0,0.0,0.0,0.0,0.0,0.0,0.0,0.0,0.0,0.0,0.0,0.0,0.0,0.0,0.0,0.0,0.0,0.0,0.0,-4.5457,-4.5521,-4.5605,-4.5563,-4.5787,-4.624,-4.6827,-4.7074,-4.7152,-4.7736,0.0,0.0,0.0,0.0,0.0,0.0,0.0,0.0,0.0,0.0,0.0,0.0,0.0,0.0,0.0,0.0,0.0,0.0,0.0,0.0,0.0,0.0,0.0,0.0,0.0,0.0,0.0,0.0,0.0,0.0,0.0,0.0,0.0,0.0,0.0,0.0,0.0,0.0,0.0,-5.3474,-5.4521,-5.4421,-5.5716,-5.6411,0.0,0.0,0.0,0.0,0.0,0.0,0.0,0.0,0.0,-5.6402,-5.6336,-5.6225,-5.6044,-5.5985,-5.5929,-5.5895,-5.5787,-5.5724,-5.5673,-5.5492,-5.5211,-5.4848,-5.4263,-5.3544,-5.2766,-5.2398,-5.2043,-5.1689,0.0,0.0,0.0,0.0,-4.8636,-4.8306,0.0,0.0,0.0,0.0,0.0,0.0,0.0,0.0,0.0,0.0,0.0,0.0,0.0,0.0,0.0,-4.518,0.0,0.0,0.0,0.0,0.0,0.0,0.0,0.0,0.0,0.0,0.0,0.0,-4.4729,-4.4882,-4.5184,-4.5175,-4.5562,-4.6282,-4.6673,-4.6998,-4.738,-4.8147,-4.8107,0.0,0.0,0.0,0.0,0.0,0.0,0.0,0.0,0.0,0.0,0.0,0.0,0.0,0.0,0.0,0.0,0.0,0.0,0.0,0.0,0.0,0.0,0.0,0.0,0.0,0.0,0.0,0.0,0.0,0.0,0.0,0.0,0.0,0.0,0.0,0.0,0.0,0.0,-5.3234,-5.4008,-5.3143,-5.5146,-5.6255,0.0,0.0,0.0,0.0,0.0,0.0,-5.661,-5.66,-5.6647,-5.6728,-5.6738,-5.6728,-5.6701,-5.6694,-5.6648,-5.6599,-5.6472,-5.6255,-5.5986,-5.583,-5.5517,-5.5027,-5.4307,-5.3525,-5.2761,-5.2551,-5.2151,-5.1575,-5.0715,-5.0113,-4.958,-4.8753,-4.8364,-4.8306,0.0,0.0,0.0,0.0,0.0,0.0,0.0,0.0,0.0,0.0,0.0,0.0,0.0,0.0,-4.4881,-4.4069,-4.392,-4.3479,0.0,0.0,0.0,0.0,0.0,0.0,0.0,0.0,0.0,-4.2939,-4.2929,-4.3331,-4.4084,-4.4013,-4.4484,-4.5408,-4.6251,-4.7116,-4.7962,-4.828,-4.8307,-4.8155,0.0,0.0,0.0,0.0,0.0,0.0,0.0,0.0,0.0,0.0,0.0,0.0,0.0,0.0,0.0,0.0,0.0,0.0,0.0,0.0,0.0,0.0,0.0,0.0,0.0,0.0,0.0,0.0,0.0,0.0,0.0,0.0,0.0,0.0,0.0,0.0,0.0,0.0,0.0,-5.4049,-5.5513,0.0,0.0,0.0,0.0,-5.6606,-5.6595,-5.66,-5.66,-5.6607,-5.6914,-5.7601,-5.764,-5.7931,-5.8571,-5.8564,-5.8525,-5.8468,-5.8394,-5.7892,-5.7009,-5.6825,-5.5777,-5.4161,-5.4046,-5.3505,-5.2647,-5.1878,-5.0913,-4.9917,-4.9866,-4.9435,-4.8854,-4.88,-4.8568,-4.8306,0.0,0.0,0.0,0.0,0.0,0.0,0.0,0.0,0.0,0.0,0.0,0.0,0.0,-4.4696,-4.4167,-4.3798,-4.3156,-4.2619,-4.2264,0.0,0.0,0.0,0.0,0.0,0.0,0.0,-4.2601,-4.2675,-4.2795,-4.2996,-4.3225,-4.3166,-4.3585,-4.4444,-4.5307,-4.6199,-4.7122,-4.8477,-4.8726,-4.8254,-4.8833,-4.8461,0.0,0.0,0.0,0.0,0.0,0.0,0.0,0.0,0.0,0.0,0.0,0.0,0.0,0.0,0.0,0.0,0.0,0.0,0.0,0.0,0.0,0.0,0.0,0.0,0.0,0.0,0.0,0.0,0.0,0.0,0.0,0.0,0.0,0.0,0.0,0.0,0.0,-5.4097,-5.5537,0.0,-5.5376,-5.6085,-5.6596,-5.6596,-5.6605,-5.6821,-5.7343,-5.7409,-5.7799,-5.8582,-5.8607,-5.8666,-5.8838,-5.8832,-5.8751,-5.8604,-5.8393,-5.8135,-5.7802,-5.7601,-5.7155,-5.6549,-5.6523,-5.5727,-5.4371,-5.3512,-5.2596,-5.1663,-5.0928,-5.0681,-5.0688,-5.0483,-4.9862,-4.9132,0.0,0.0,0.0,0.0,0.0,0.0,0.0,0.0,0.0,0.0,0.0,-4.4832,-4.4589,-4.3779,-4.3125,-4.2818,-4.2174,-4.1637,-4.128,0.0,0.0,0.0,0.0,0.0,0.0,-4.1366,-4.1651,-4.1726,-4.1857,-4.202,-4.2237,-4.2218,-4.2798,-4.3866,-4.4456,-4.5203,-4.6102,-4.7711,-4.8462,-4.864,-4.9459,-4.9174,-4.83,0.0,0.0,0.0,0.0,0.0,0.0,0.0,0.0,0.0,0.0,0.0,0.0,0.0,0.0,0.0,0.0,0.0,0.0,0.0,0.0,0.0,0.0,0.0,0.0,0.0,0.0,0.0,0.0,0.0,0.0,0.0,0.0,0.0,0.0,0.0,-5.499,-5.4097,-5.5537,-5.6255,-5.5376,-5.6089,-5.6717,-5.6987,-5.7037,-5.7391,-5.8203,-5.8291,-5.8703,-5.9518,-5.9544,-5.9597,-5.9747,-5.9747,-5.964,-5.9435,-5.9262,-5.8993,-5.8627,-5.85,-5.8227,-5.7905,-5.7905,-5.7275,-5.6148,-5.5021,-5.4199,-5.3499,-5.1586,-5.0913,-5.0992,-5.0727,-5.0063,-4.9303,0.0,0.0,0.0,0.0,0.0,0.0,0.0,0.0,0.0,0.0,-4.4227,-4.3687,-4.3346,-4.2611,-4.1843,-4.1059,-4.0955,-4.0496,-3.9407,-3.8247,0.0,0.0,0.0,0.0,-3.8451,-3.9255,-3.9799,-3.9983,-4.0008,-4.0355,-4.1059,-4.1197,-4.2099,-4.363,-4.3722,-4.422,-4.501,-4.5993,-4.7499,-4.9258,-4.9978,-5.0387,-5.0462,0.0,0.0,0.0,0.0,0.0,0.0,0.0,0.0,0.0,0.0,0.0,0.0,0.0,0.0,0.0,0.0,0.0,0.0,0.0,0.0,0.0,0.0,0.0,0.0,0.0,0.0,0.0,0.0,0.0,0.0,0.0,0.0,0.0,-5.4152,-5.4791,-5.5025,-5.4186,-5.5571,-5.6274,-5.5454,-5.6147,-5.6969,-5.7779,-5.7893,-5.8289,-5.9101,-5.9192,-5.9607,-6.0427,-6.0449,-6.0746,-6.1393,-6.1393,-6.1292,-6.1099,-6.1089,-6.0547,-5.9542,-5.9542,-5.8959,-5.7982,-5.7982,-5.7963,-5.781,-5.6129,-5.5422,-5.5078,-5.1697,-5.0056,-4.9555,-4.9442,-4.9057,-4.8735,0.0,0.0,0.0,0.0,0.0,0.0,0.0,0.0,0.0,0.0,-4.4327,-4.3753,-4.3615,-4.2115,-4.101,-4.0798,-4.0068,-3.9192,-3.8155,0.0,0.0,0.0,0.0,0.0,-3.9127,-3.9505,-3.9739,-3.9777,-3.9939,-4.0084,-4.0241,-4.0279,-4.0783,-4.1716,-4.271,-4.3369,-4.3888,-4.5735,-4.6741,-4.7182,-4.869,-4.9406,-4.9632,0.0,0.0,0.0,0.0,0.0,0.0,0.0,0.0,0.0,0.0,0.0,0.0,0.0,0.0,0.0,0.0,0.0,0.0,0.0,0.0,0.0,0.0,0.0,0.0,0.0,0.0,0.0,0.0,0.0,0.0,0.0,0.0,-5.5135,-5.4972,-5.5689,-5.6157,-5.5903,-5.6313,-5.6743,-5.7074,-5.7338,-5.781,-5.8685,-5.8755,-5.915,-6.0007,-6.0069,-6.0462,-6.1321,-6.1341,-6.1354,-6.1408,-6.1408,-6.1292,-6.1099,-6.0939,-6.0734,-6.0435,-6.0252,-5.9993,-5.9701,-5.9701,-5.9357,-5.8651,-5.695,-5.5938,-5.5193,-5.2977,-5.1766,-5.1249,-5.1199,-5.0435,-4.9361,0.0,0.0,0.0,0.0,0.0,0.0,0.0,0.0,0.0,0.0,-4.358,-4.2616,-4.285,-4.1138,-3.9991,-3.9991,-3.9319,-3.8685,-3.814,0.0,0.0,0.0,0.0,-3.9315,-3.9315,-3.957,-3.9693,-3.9693,-3.981,-3.9843,-3.9736,-3.9818,-4.0405,-4.1393,-4.2157,-4.2931,-4.381,-4.5088,-4.5748,-4.6016,-4.715,-4.8215,-4.922,-5.003,-5.0114,-4.9836,-4.9885,-4.9894,-4.9769,-4.8884,0.0,0.0,0.0,0.0,0.0,0.0,0.0,0.0,0.0,0.0,0.0,0.0,0.0,0.0,0.0,0.0,0.0,0.0,0.0,0.0,0.0,0.0,0.0,0.0,-5.4822,-5.5304,-5.5736,-5.5954,-5.6196,-5.6567,-5.6606,-5.6918,-5.7719,-5.8139,-5.8708,-5.9581,-5.9649,-6.0023,-6.0899,-6.0941,-6.1177,-6.1686,-6.1708,-6.1598,-6.1397,-6.1392,-6.1298,-6.1099,-6.0929,-6.0827,-6.08,-6.0591,-6.0458,-6.037,-6.0007,-5.9568,-5.8962,-5.7294,-5.6129,0.0,0.0,0.0,0.0,0.0,-5.1026,-5.0284,0.0,0.0,0.0,0.0,0.0,0.0,0.0,0.0,0.0,0.0,0.0,-4.1046,-4.168,-4.0104,-3.8993,-3.9007,-3.8781,-3.864,0.0,0.0,0.0,-3.7105,-3.844,-3.921,-3.9183,-3.9483,-3.963,-3.963,-3.963,-3.9575,-3.9471,-3.967,-4.0507,-4.1822,-4.1833,-4.2692,-4.4101,-4.418,-4.464,-4.5319,-4.5612,-4.7023,-4.9049,-4.9877,-5.0265,-5.0404,-5.0547,-5.0587,-5.05,-4.9798,0.0,0.0,0.0,0.0,0.0,0.0,0.0,0.0,0.0,0.0,0.0,0.0,0.0,0.0,0.0,0.0,0.0,0.0,0.0,0.0,0.0,0.0,0.0,0.0,-5.5045,-5.5393,-5.6249,-5.5655,-5.5499,-5.6489,-5.6684,-5.7055,-5.7875,-5.8742,-5.9603,-6.0471,-6.0558,-6.0872,-6.1664,0.0,0.0,0.0,0.0,-6.162,-6.1413,-6.1417,-6.1305,-6.1117,-6.0962,-6.0864,-6.08,-6.0655,-6.0455,-6.0198,-5.9434,-5.9038,-5.8842,-5.7256,-5.6129,-5.5218,-5.3423,-5.2389,-5.1863,-5.1324,-5.1118,-5.1229,0.0,0.0,0.0,0.0,0.0,0.0,0.0,0.0,0.0,-4.4969,-4.2573,-4.1092,-4.186,-4.0184,-3.9021,-3.9073,-3.8873,-3.8449,0.0,0.0,-3.7905,-3.7509,-3.8686,-3.9259,-3.9045,-3.917,-3.9224,-3.9224,-3.9224,-3.9259,-3.935,-3.9502,-3.9977,-4.0737,-4.1325,-4.2062,-4.2878,-4.3437,-4.3806,-4.4122,-4.5025,-4.6723,-4.8701,-4.8878,-4.9491,-5.0264,-5.0498,-5.0587,-5.0587,-5.0555,-5.0524,-5.0449,-5.0,0.0,0.0,0.0,0.0,0.0,0.0,0.0,0.0,0.0,0.0,0.0,0.0,0.0,0.0,0.0,0.0,0.0,0.0,0.0,0.0,-5.4093,-5.4636,-5.5178,-5.5429,-5.4706,-5.4779,-5.6415,-5.7172,-5.7914,-5.8773,-5.9634,-6.0512,-6.1388,-6.1447,-6.1512,-6.1694,-6.1697,-6.1701,-6.1707,-6.1708,-6.1651,-6.1561,-6.1447,-6.1343,-6.1263,0.0,0.0,-6.08,-6.0552,-6.0035,-5.9338,-5.9185,-5.8727,-5.8058,-5.7008,-5.6129,-5.5192,-5.3049,-5.2149,-5.1996,-5.1522,-5.1269,-5.1213,0.0,0.0,0.0,0.0,0.0,0.0,0.0,0.0,0.0,0.0,-4.1929,-4.0377,-4.1203,-3.9849,-3.8862,-3.8752,-3.8631,0.0,0.0,-3.818,-3.8377,-3.8299,-3.9037,-3.9601,-3.9885,-4.0096,-4.0153,-4.0051,-4.0128,-4.0077,-3.9946,-3.9708,-4.032,-4.1673,-4.1973,-4.2674,-4.3684,-4.4428,-4.4777,-4.4829,-4.508,-4.6137,-4.7625,-4.8326,-4.8928,-4.9498,-5.0164,-5.0404,-5.0415,-5.0486,-5.0507,-5.044,-5.0067,-4.9702,-4.9239,0.0,0.0,0.0,0.0,0.0,0.0,0.0,0.0,0.0,0.0,0.0,0.0,0.0,0.0,-5.3319,0.0,0.0,-5.3843,-5.4313,-5.4037,-5.3914,-5.4433,-5.4497,-5.5019,-5.6436,-5.6957,-5.7699,-5.8985,-5.9885,-6.0764,-6.162,-6.1698,-6.1703,-6.1709,-6.1709,-6.1692,-6.1696,-6.1696,-6.1679,-6.16,-6.1471,-6.1142,-6.0643,-6.0314,-5.9927,-5.9481,-5.9262,-5.8899,-5.8479,-5.8039,-5.7619,-5.7179,-5.6339,-5.5766,-5.5255,-5.389,-5.3302,-5.319,-5.266,-5.2454,-5.2454,0.0,0.0,0.0,0.0,0.0,0.0,0.0,0.0,0.0,0.0,0.0,-3.9675,-4.0514,-3.9565,-3.8728,0.0,0.0,0.0,0.0,-3.8678,-3.8971,-3.9082,-3.9338,-3.9883,-4.0722,-4.1021,-4.1169,-4.1191,-4.1123,-4.0933,-4.0662,-4.0013,-4.0785,-4.2719,-4.2623,-4.341,-4.4832,-4.5529,-4.5809,-4.5792,-4.5432,-4.5694,-4.6508,-4.7903,-4.8469,-4.8664,-4.9733,-5.0123,-5.0135,-5.0183,-5.0195,-5.0126,-4.964,-4.9375,-4.9077,-4.827,-4.8542,0.0,0.0,0.0,0.0,0.0,0.0,0.0,0.0,0.0,-5.082,-5.2329,-5.264,-5.3086,-5.4485,-5.3591,-5.3067,-5.4291,-5.3319,-5.2725,-5.3669,-5.441,-5.5284,-5.6448,-5.6727,-5.7367,-5.8714,-5.9788,-6.0686,-6.1388,-6.1601,-6.1698,-6.1698,-6.1698,-6.162,-6.1444,-6.1444,-6.1334,-6.112,-6.0974,-6.0533,-5.9774,-5.9427,-5.8877,-5.8192,-5.7998,-5.781,-5.76,-5.674,-5.6358,-5.632,-5.567,-5.5403,-5.5345,-5.4863,-5.4578,-5.4361,-5.3794,-5.3637,-5.3696,0.0,0.0,0.0,0.0,0.0,0.0,0.0,0.0,0.0,0.0,0.0,0.0,0.0,0.0,0.0,0.0,0.0,0.0,-3.849,-3.9063,-3.9395,-3.9363,-3.9452,-3.9821,-4.0523,-4.0633,-4.1073,-4.1882,-4.1073,-4.0773,-4.0933,-4.0155,-4.062,-4.2096,-4.2145,-4.3135,-4.4812,-4.5027,-4.5277,-4.5564,-4.5791,-4.5864,-4.5938,-4.7347,-4.8038,-4.8393,-4.9465,-4.9838,-4.9878,-5.0123,-5.0195,-5.0187,-5.0115,-4.9602,-4.887,-4.8074,0.0,-4.6743,-4.5867,-4.6436,-4.7436,-4.8128,-4.911,-5.0295,0.0,0.0,-5.2387,-5.3364,-5.3559,-5.3617,-5.3811,-5.3695,-5.3364,-5.2776,-5.2523,-5.2725,-5.3669,-5.3944,-5.4653,-5.6308,-5.7193,-5.7738,-5.7933,-5.9436,-6.0432,-6.0549,-6.1252,-6.1698,-6.1698,-6.1698,-6.1349,-6.0568,-6.0549,-6.0161,-5.9384,-5.9259,-5.9141,-5.9029,-5.8548,-5.83,-5.8192,-5.7998,-5.7485,-5.6702,-5.588,-5.5536,-5.5536,-5.5441,-5.5403,-5.5377,-5.5057,-5.4784,-5.4498,-5.3963,-5.3774,-5.3701,0.0,0.0,0.0,0.0,0.0,0.0,0.0,0.0,0.0,0.0,0.0,0.0,0.0,0.0,0.0,0.0,0.0,0.0,-3.8462,-3.9122,-3.9514,-3.9514,-3.9611,-4.0066,-4.0896,-4.0974,-4.1402,-4.2177,-4.1867,-4.1637,-4.1506,-4.0868,-4.1611,-4.3506,-4.3306,-4.4449,-4.6533,-4.63,-4.6287,-4.6335,-4.5937,-4.5791,-4.5883,-4.6432,-4.689,-4.7355,-4.8468,-4.8871,0.0,0.0,-4.9035,-4.9062,-4.9233,-4.9061,-4.8577,-4.7296,-4.716,0.0,-4.7568,-4.7194,-4.7113,-4.8585,-4.8975,-4.9356,-5.0653,-5.0956,-5.1319,-5.2659,-5.2931,-5.3106,-5.3617,-5.3287,-5.2814,0.0,-5.2018,-5.1997,-5.2868,-5.3487,-5.4301,-5.5534,-5.6484,-5.7235,-5.774,-5.846,-5.93,-6.0315,-6.0276,-6.0412,-6.092,-6.0451,-6.002,-5.9651,-5.9631,-5.9478,-5.9091,-5.901,-5.8671,-5.8134,-5.7823,-5.7342,-5.6731,-5.6578,-5.6282,-5.588,-5.5556,-5.5403,-5.5403,-5.5403,-5.5403,-5.5377,-5.5104,-5.4833,-5.4565,-5.4161,-5.3944,-5.3757,0.0,0.0,0.0,0.0,0.0,0.0,0.0,0.0,0.0,0.0,0.0,0.0,0.0,0.0,0.0,0.0,0.0,0.0,0.0,-3.9027,-3.9439,-3.9539,-3.9665,-4.0189,-4.1173,-4.1255,-4.1653,-4.2386,-4.2245,-4.2029,-4.1713,-4.1116,-4.1893,-4.3786,-4.3544,-4.4743,-4.6903,-4.6597,-4.6525,-4.6538,-4.5878,-4.5678,-4.5791,-4.581,-4.6009,-4.6426,-4.7335,-4.7551,0.0,0.0,-4.7517,-4.7492,-4.7867,-4.7959,-4.7694,-4.6555,-4.6652,-4.7275,-4.7813,-4.7452,-4.7269,-4.8691,-4.9072,-4.9316,-5.0078,-5.025,-5.06,-5.1824,-5.2076,-5.2251,-5.2892,-5.2484,-5.2076,-5.2076,-5.1591,-5.1552,-5.2601,-5.3366,-5.4297,-5.5667,-5.6421,-5.7204,-5.8074,-5.8168,-5.8675,-5.9944,-5.969,-5.9729,-6.0373,-5.9573,-5.8987,-5.8753,-5.8734,-5.8636,-5.8406,-5.8334,-5.7927,-5.7233,-5.7035,-5.6506,-5.5684,-5.5547,-5.5453,-5.5403,-5.5403,-5.5403,-5.5403,-5.5403,-5.5403,-5.5377,-5.5192,-5.4893,-5.4581,-5.4384,-5.409,-5.3775,0.0,0.0,0.0,0.0,0.0,0.0,0.0,0.0,0.0,0.0,0.0,0.0,0.0,0.0,0.0,0.0,0.0,0.0,0.0,-3.8884,-3.9192,-3.9389,-3.9477,-4.0042,-4.1173,-4.1203,-4.1657,-4.2591,-4.1757,-4.1326,-4.1296,-4.0494,-4.0707,-4.1806,-4.1978,-4.3033,-4.4711,-4.4815,-4.5168,-4.564,-4.5603,-4.5564,-4.5524,-4.5735,-4.581,-4.5865,-4.6151,0.0,0.0,0.0,-4.5817,-4.559,-4.6259,-4.6195,0.0,-4.5995,-4.5527,-4.5007,-4.5105,-4.6415,-4.7806,-4.8074,-4.9544,-5.0956,-5.112,-5.1163,-5.1163,-5.1241,-5.1241,-5.1241,-5.128,-5.126,-5.1241,-5.1241,-5.1222,-5.1785,-5.3423,-5.3736,-5.4749,-5.7326,-5.771,-5.8103,0.0,-5.9063,-5.9083,-5.9141,-5.9905,-6.0373,-6.0393,-5.9573,-5.8714,-5.7875,-5.7836,-5.7452,-5.6678,-5.6545,-5.6437,-5.6349,-5.6136,-5.5926,-5.5703,-5.549,-5.5403,-5.5403,-5.5403,-5.5403,-5.5403,-5.5403,-5.5403,-5.5403,-5.539,-5.5076,-5.4597,-5.4597,-5.4248,-5.3701,0.0,0.0,0.0,0.0,0.0,0.0,0.0,0.0,0.0,0.0,0.0,0.0,0.0,0.0,0.0,0.0,0.0,0.0,0.0,-3.8815,-3.9073,-3.921,-3.9311,-3.9608,-4.0127,-4.0174,-4.0711,-4.1738,-4.1431,-4.1233,-4.1082,-4.0544,-4.1129,-4.26,-4.219,-4.3416,-4.5737,-4.4981,-4.4802,-4.5004,-4.4856,-4.4781,-4.4781,-4.48,-4.4857,-4.4876,0.0,0.0,0.0,0.0,-4.4389,-4.4253,-4.4582,-4.5062,-4.5504,-4.5382,-4.5147,-4.5226,-4.6454,-4.6409,-4.647,-4.8355,-4.8939,-4.9266,-4.9986,-5.0701,-5.1202,-5.1202,-5.0736,-5.0509,-5.1095,-5.0734,-5.0539,-5.1116,-5.1206,-5.1985,-5.4243,-5.4577,-5.5575,-5.8256,-5.857,0.0,0.0,0.0,0.0,-5.9924,-5.9163,-5.8929,-5.9514,-5.8207,-5.7309,-5.7016,-5.6996,-5.6864,-5.6602,-5.6559,-5.6444,-5.6291,-5.5954,-5.5778,-5.5703,-5.549,-5.5403,-5.5403,-5.5403,-5.5403,-5.5403,-5.5403,-5.5403,-5.539,-5.5206,-5.4927,-5.4581,-5.4401,-5.3772,-5.2977,0.0,0.0,0.0,0.0,0.0,0.0,0.0,0.0,0.0,0.0,0.0,0.0,0.0,0.0,0.0,0.0,0.0,0.0,0.0,0.0,-3.895,-3.9036,-3.917,-3.9324,-3.9526,-3.9611,-4.0011,-4.0734,-4.0726,-4.0658,-4.05,-4.049,-4.1156,-4.2406,-4.2214,-4.3239,-4.5103,-4.4364,-4.409,-4.4108,-4.398,-4.3924,-4.3888,-4.3522,-4.3414,0.0,0.0,0.0,0.0,0.0,-4.2835,-4.27,-4.3065,-4.4013,-4.504,-4.5003,-4.5242,-4.5696,-4.658,-4.6416,-4.6404,-4.7959,-4.8174,-4.8312,-4.9378,-5.0156,-5.0746,-5.1113,-5.0514,-5.0059,-5.0625,-5.0309,-5.012,-5.068,-5.1005,-5.2097,-5.4661,-5.5027,-5.6094,-5.9069,-5.9449,-5.9598,0.0,0.0,0.0,-6.0373,-5.9065,-5.8519,-5.9063,-5.7504,-5.6606,-5.6606,-5.6606,-5.6591,-5.6602,-5.6557,-5.6436,-5.6264,-5.5882,-5.5703,-5.5703,-5.549,-5.5403,-5.5403,-5.5403,-5.5403,-5.5403,-5.5403,-5.5403,-5.5339,-5.4756,-5.4394,-5.411,-5.3549,-5.286,-5.2215,0.0,0.0,0.0,0.0,0.0,0.0,0.0,0.0,0.0,0.0,0.0,0.0,0.0,0.0,0.0,0.0,0.0,0.0,0.0,0.0,0.0,-3.8921,-3.9059,-3.9219,-3.9433,-3.9551,-3.9647,-3.9724,-3.9717,-3.967,-3.9618,-4.0221,-4.0728,-4.1172,-4.1859,-4.2404,-4.2865,-4.2995,-4.305,-4.305,-4.305,-4.3014,-4.2886,-4.1995,0.0,0.0,0.0,0.0,0.0,0.0,-4.125,-4.1066,-4.186,-4.3175,-4.4484,-4.4888,-4.5639,-4.6191,-4.5467,-4.6393,-4.746,-4.6915,-4.7328,-4.8145,-4.9347,-4.9616,-4.9889,-5.092,-5.0448,-4.9828,0.0,0.0,-4.9946,-4.9985,-5.0685,-5.2125,-5.4796,-5.5119,-5.6352,0.0,0.0,0.0,0.0,0.0,0.0,-6.0529,0.0,-5.9102,-5.9102,-5.7504,-5.6606,-5.6606,-5.6606,-5.6591,-5.6602,-5.6467,-5.6323,-5.6194,-5.5856,-5.5703,-5.5703,-5.549,-5.5403,-5.5403,-5.5403,-5.5365,-5.5326,-5.5326,-5.5307,-5.5167,-5.4052,-5.3518,-5.322,-5.2177,-5.1591,-5.1435,0.0,0.0,0.0,0.0,0.0,0.0,0.0,0.0,0.0,0.0,0.0,0.0,0.0,0.0,0.0,0.0,0.0,0.0,0.0,0.0,0.0,0.0,0.0,0.0,0.0,0.0,0.0,0.0,0.0,-3.9785,-3.967,-3.9381,-3.9616,0.0,-4.0191,-4.0935,-4.2232,-4.2268,-4.2286,-4.2285,0.0,-4.1851,-4.1287,0.0,0.0,0.0,0.0,0.0,0.0,0.0,0.0,0.0,-4.3271,-4.4097,-4.4559,-4.5026,-4.5311,-4.56,-4.6048,-4.6007,-4.5957,-4.6451,-4.6786,-4.7281,-4.8287,-4.9111,-4.9741,-5.0028,-4.9476,-4.8918,0.0,0.0,0.0,-4.9893,-5.0675,0.0,-5.5609,-5.6006,0.0,-6.082,0.0,-6.1376,-6.1659,-6.1681,0.0,0.0,-5.9961,-5.9102,-5.9102,-5.7504,-5.6606,-5.6606,-5.6606,-5.6595,-5.661,-5.6413,-5.6271,-5.6194,-5.5856,-5.5703,-5.5703,-5.549,-5.5403,-5.5403,-5.5403,-5.504,-5.4428,-5.4428,-5.4046,-5.3423,-5.2992,-5.2655,-5.2378,-5.19,-5.1182,-5.0469,0.0,0.0,0.0,0.0,0.0,0.0,0.0,0.0,0.0,0.0,0.0,0.0,0.0,0.0,0.0,0.0,0.0,0.0,0.0,0.0,0.0,0.0,0.0,0.0,0.0,0.0,0.0,0.0,0.0,0.0,0.0,-3.9669,-3.9835,-4.028,-4.0293,-4.0864,-4.1813,0.0,0.0,0.0,0.0,0.0,0.0,0.0,0.0,0.0,0.0,0.0,0.0,0.0,0.0,-4.2314,-4.3929,-4.4493,-4.4624,-4.5065,0.0,-4.5789,-4.5935,-4.5941,-4.6031,-4.652,-4.6714,-4.7054,-4.8056,-4.8718,-4.9142,-4.9232,-4.8627,0.0,-4.8015,-4.8424,0.0,0.0,0.0,0.0,-5.539,-5.6138,-5.7506,0.0,-6.1001,0.0,-6.1619,-6.1343,-6.1286,0.0,-6.0098,-5.9102,-5.9102,-5.7504,-5.6606,-5.6606,-5.6606,-5.6558,-5.6478,-5.6367,-5.6239,-5.6109,-5.5894,-5.5756,-5.5684,-5.5166,-5.488,-5.4811,0.0,-5.397,-5.3531,-5.3531,-5.3244,-5.2735,-5.2156,-5.1784,-5.1492,-5.0869,-5.0193,-4.9577,0.0,0.0,0.0,0.0,0.0,0.0,0.0,0.0,0.0,0.0,0.0,0.0,0.0,0.0,0.0,0.0,0.0,0.0,0.0,0.0,0.0,0.0,0.0,0.0,0.0,0.0,0.0,0.0,0.0,0.0,0.0,0.0,0.0,0.0,0.0,0.0,0.0,0.0,0.0,0.0,0.0,0.0,0.0,0.0,0.0,0.0,0.0,0.0,0.0,0.0,-4.2444,-4.3076,-4.4231,-4.4739,-4.4981,-4.532,-4.6066,-4.6595,-4.5887,-4.634,-4.6997,-4.6996,-4.7028,-4.7326,-4.8277,-4.8445,-4.8432,-4.8501,0.0,-4.7365,-4.7239,-4.7989,-4.867,-4.8787,0.0,-5.207,-5.4738,-5.5848,-5.735,-5.9919,-6.0265,-6.0645,-6.1522,-6.0878,-6.0752,-6.1622,-6.0098,-5.9102,-5.9102,-5.7504,-5.6606,-5.6606,-5.6606,-5.6511,-5.6329,-5.6305,-5.6212,-5.6018,-5.5807,-5.5663,-5.5491,-5.4556,-5.4046,-5.3894,-5.3129,-5.2728,-5.2633,-5.2633,-5.2575,-5.2372,-5.1453,-5.094,-5.0621,-4.9693,-4.916,-4.8909,0.0,0.0,0.0,0.0,0.0,0.0,0.0,0.0,0.0,0.0,-4.523,-4.4704,0.0,0.0,0.0,0.0,0.0,0.0,0.0,0.0,0.0,0.0,0.0,0.0,0.0,0.0,0.0,0.0,0.0,0.0,0.0,0.0,0.0,0.0,0.0,0.0,0.0,0.0,0.0,0.0,0.0,0.0,0.0,0.0,0.0,0.0,0.0,0.0,0.0,0.0,-4.3197,-4.3944,-4.4868,-4.5774,-4.6538,-4.665,-4.7318,-4.7955,-4.7819,-4.7904,-4.8036,-4.7965,-4.7965,-4.8052,-4.8352,-4.8451,0.0,0.0,-4.7432,-4.7157,-4.6382,-4.7064,-4.7949,-4.867,-4.9609,-5.1369,-5.464,-5.5843,-5.7376,0.0,-6.0286,-6.0639,-6.153,-6.0879,0.0,0.0,-6.0098,-5.9102,-5.9102,-5.7504,-5.6606,-5.6606,-5.6595,-5.6536,-5.6379,-5.6329,-5.6247,-5.6144,-5.5253,-5.4766,-5.4587,-5.3643,-5.3154,-5.3015,-5.2862,0.0,-5.1811,-5.1811,-5.1391,-5.0722,-5.0534,-5.0202,-4.9805,-4.963,-4.9268,-4.8909,0.0,0.0,0.0,0.0,0.0,0.0,0.0,-4.484,-4.5247,-4.5679,-4.558,-4.5462,-4.544,-4.4614,0.0,0.0,0.0,0.0,0.0,0.0,0.0,0.0,0.0,0.0,0.0,0.0,0.0,0.0,0.0,0.0,0.0,0.0,0.0,0.0,0.0,0.0,0.0,0.0,0.0,0.0,0.0,0.0,0.0,0.0,0.0,0.0,0.0,0.0,0.0,0.0,-4.4241,-4.5058,-4.5399,-4.5865,-4.6283,-4.6358,-4.6661,-4.6991,-4.6991,-4.7055,-4.72,-4.7636,-4.7777,-4.7861,-4.7923,0.0,0.0,0.0,-4.6729,-4.6641,-4.6184,-4.6875,0.0,-4.8651,-4.9473,-5.0878,-5.3395,-5.4889,0.0,0.0,0.0,0.0,0.0,-6.0466,-6.0076,-6.0961,-5.9827,-5.9102,-5.9102,-5.7504,-5.6606,-5.6606,-5.6591,-5.6533,-5.6395,-5.6324,-5.6047,-5.552,-5.4965,-5.4399,-5.3793,-5.2864,-5.2354,-5.2211,-5.1701,0.0,-5.0932,-5.0932,-5.0684,-5.0302,-5.0302,-5.0101,-4.9792,-4.9641,-4.9393,-4.9096,0.0,0.0,0.0,0.0,0.0,0.0,0.0,-4.472,-4.5262,-4.5399,-4.5687,-4.5964,-4.6147,-4.5507,-4.5118,0.0,0.0,0.0,0.0,0.0,0.0,0.0,0.0,0.0,0.0,0.0,0.0,0.0,0.0,0.0,0.0,0.0,0.0,0.0,0.0,0.0,0.0,0.0,0.0,0.0,0.0,0.0,0.0,0.0,0.0,0.0,0.0,0.0,0.0,0.0,-4.5052,-4.589,-4.5842,-4.5954,-4.6108,-4.6154,-4.6299,-4.644,-4.6445,-4.6521,-4.6765,-4.7419,-4.7681,-4.771,-4.7515,-4.7485,0.0,-4.6387,-4.6196,-4.6199,-4.6199,-4.6764,-4.756,0.0,-4.9321,-5.0391,-5.2252,0.0,0.0,0.0,0.0,0.0,0.0,0.0,0.0,-6.0358,-5.9417,-5.8753,-5.8575,-5.7328,-5.6606,-5.6606,-5.6606,-5.655,-5.6436,-5.6164,-5.5658,-5.4919,-5.4467,-5.3814,-5.3002,-5.2088,-5.1576,-5.1409,-5.0669,0.0,0.0,-5.0302,-5.0302,-5.0302,-5.0302,-5.0182,-4.9978,-4.9703,-4.9469,-4.9257,0.0,0.0,0.0,0.0,0.0,0.0,0.0,-4.4789,-4.5436,-4.5169,-4.5379,-4.5667,-4.5981,-4.5999,-4.6009,0.0,0.0,0.0,0.0,0.0,0.0,0.0,0.0,0.0,0.0,0.0,0.0,0.0,0.0,0.0,0.0,0.0,0.0,0.0,0.0,0.0,0.0,0.0,0.0,0.0,0.0,0.0,0.0,0.0,0.0,0.0,0.0,0.0,0.0,0.0,0.0,-4.5935,-4.617,-4.6742,-4.7333,-4.7345,0.0,0.0,-4.8519,-4.8522,-4.8551,-4.8573,-4.8585,-4.839,-4.7591,0.0,-4.726,-4.6388,-4.6204,-4.6199,-4.6199,-4.6277,-4.6862,-4.8534,0.0,-4.9769,0.0,0.0,0.0,0.0,0.0,0.0,0.0,0.0,0.0,-6.0397,-5.8851,-5.7601,-5.6879,-5.6684,-5.6606,-5.6606,-5.6606,-5.6584,-5.658,-5.561,-5.5088,-5.496,-5.3252,-5.2354,-5.219,-5.1294,-5.0798,-5.0615,-5.0508,0.0,0.0,-5.0302,-5.0302,-5.0302,-5.0302,-5.0182,-4.9978,-4.9703,-4.9469,-4.9257,0.0,0.0,0.0,0.0,0.0,0.0,-4.4765,-4.5751,-4.6384,-4.6422,-4.6767,-4.7062,-4.7194,-4.6867,-4.6515,0.0,0.0,0.0,0.0,0.0,0.0,0.0,0.0,0.0,0.0,0.0,0.0,-4.1884,-4.1355,0.0,0.0,0.0,0.0,0.0,0.0,0.0,0.0,0.0,0.0,0.0,0.0,0.0,0.0,0.0,0.0,0.0,0.0,0.0,0.0,0.0,0.0,0.0,-4.6258,-4.6519,0.0,0.0,-4.7023,-4.7293,-4.7305,-4.7305,-4.7284,-4.7264,-4.7262,-4.7142,-4.6771,0.0,-4.6621,-4.6274,-4.6192,-4.6199,-4.6199,-4.6199,-4.6764,0.0,0.0,0.0,-5.1525,0.0,0.0,0.0,0.0,0.0,0.0,0.0,-5.8788,-5.8838,-5.7738,-5.6938,-5.6626,-5.6606,-5.6606,-5.6606,-5.6606,-5.6352,-5.5825,-5.526,-5.449,-5.3473,-5.262,-5.1915,-5.1352,-5.0973,-5.0701,-5.0566,-5.0513,0.0,0.0,-5.0302,-5.0302,-5.0302,-5.0302,-5.0255,-5.0126,-4.9745,-4.9558,-4.9367,0.0,0.0,0.0,0.0,0.0,-4.4498,-4.5436,-4.6463,-4.7139,-4.7186,-4.7617,-4.7962,-4.8001,-4.7591,-4.7057,-4.6487,0.0,0.0,0.0,0.0,0.0,0.0,0.0,0.0,0.0,0.0,-4.2721,-4.2732,-4.2109,-4.1822,0.0,0.0,0.0,0.0,0.0,0.0,0.0,0.0,0.0,0.0,0.0,0.0,0.0,0.0,0.0,0.0,0.0,0.0,0.0,0.0,0.0,0.0,0.0,0.0,0.0,0.0,-4.6289,-4.6308,-4.6289,-4.6288,-4.6306,-4.6299,-4.6299,-4.6297,0.0,0.0,-4.6228,-4.6206,-4.6193,-4.619,-4.6199,-4.6199,-4.6764,0.0,0.0,-4.9387,-5.1066,0.0,0.0,0.0,0.0,-5.6003,0.0,-5.7893,-5.7363,-5.743,-5.6918,-5.6606,-5.6606,-5.6606,-5.6606,-5.6606,-5.6352,-5.5923,-5.532,-5.4636,-5.3692,-5.248,-5.2084,-5.1525,-5.0898,-5.0841,-5.0756,-5.0606,-5.0545,0.0,0.0,-5.0302,-5.0302,-5.0302,-5.0302,-5.0149,-4.9892,-4.9427,-4.907,-4.8729,0.0,0.0,0.0,0.0,0.0,0.0,-4.524,-4.6669,-4.7507,-4.6959,-4.7435,-4.7856,-4.7982,-4.7982,-4.7712,-4.7051,0.0,0.0,0.0,0.0,0.0,0.0,0.0,0.0,0.0,0.0,-4.3494,-4.3494,-4.3471,-4.3506,-4.3573,-4.3562,-4.3562,-4.3543,0.0,0.0,0.0,0.0,0.0,0.0,0.0,0.0,0.0,0.0,0.0,0.0,0.0,0.0,0.0,0.0,0.0,0.0,0.0,0.0,0.0,0.0,-4.6248,-4.6289,-4.6229,-4.625,-4.6306,-4.6302,-4.6301,-4.6301,0.0,-4.6293,-4.6287,-4.6216,-4.6206,-4.6198,-4.6206,-4.6199,-4.6764,-4.8514,0.0,0.0,-5.1067,-5.2059,0.0,0.0,0.0,-5.5113,-5.5151,-5.5981,-5.6539,-5.6608,-5.6606,0.0,-5.6606,-5.6606,-5.6606,-5.6606,-5.5767,-5.532,-5.53,-5.3523,-5.2586,-5.248,-5.1552,-5.1035,-5.0898,-5.0898,-5.0789,-5.0587,0.0,0.0,0.0,-5.0302,-5.0302,-5.0302,-5.0302,-4.9805,-4.9064,-4.8588,-4.7876,-4.7071,0.0,0.0,0.0,0.0,0.0,0.0,0.0,-4.7886,-4.8573,-4.8536,-4.9124,-4.9522,-4.957,-4.9073,-4.8673,-4.8449,0.0,0.0,0.0,0.0,0.0,0.0,0.0,0.0,0.0,0.0,-4.4224,-4.4178,-4.3724,-4.3384,-4.3186,-4.3421,-4.3489,-4.3384,-4.3209,0.0,0.0,0.0,0.0,0.0,0.0,0.0,0.0,0.0,0.0,0.0,0.0,0.0,0.0,0.0,0.0,0.0,0.0,0.0,0.0,0.0,0.0,0.0,-4.6216,-4.622,-4.6231,-4.6228,-4.6228,-4.6249,-4.63,-4.6296,-4.6276,-4.6218,-4.6193,-4.6206,-4.6198,-4.6192,-4.6765,-4.846,-4.8725,0.0,0.0,0.0,0.0,-5.243,-5.4036,-5.4875,0.0,0.0,-5.6325,-5.5749,-5.6255,-5.6606,-5.6606,-5.604,-5.5708,-5.5708,-5.5435,-5.4734,-5.3524,-5.2919,-5.2275,-5.1619,-5.126,-5.1042,-5.0898,-5.0898,-5.0789,0.0,0.0,0.0,0.0,-5.0302,-4.9977,-4.948,-4.948,-4.8876,-4.7983,-4.7626,-4.725,-4.6794,0.0,0.0,0.0,0.0,0.0,0.0,0.0,-4.8271,-4.8844,-4.9252,-4.9771,-5.0156,-5.029,-4.9843,-4.9423,-4.9129,0.0,0.0,0.0,0.0,0.0,0.0,0.0,0.0,0.0,-4.5328,-4.495,-4.4924,-4.4453,-4.4117,-4.3958,-4.417,-4.4215,-4.4116,-4.3866,0.0,0.0,0.0,0.0,0.0,0.0,0.0,-4.5322,0.0,0.0,0.0,0.0,0.0,0.0,0.0,0.0,0.0,0.0,0.0,0.0,0.0,-4.6084,-4.6137,0.0,-4.6176,-4.6197,-4.6204,-4.6206,0.0,-4.625,-4.6269,-4.6267,-4.6233,-4.6245,-4.6236,-4.6192,-4.6192,-4.6744,-4.8421,-4.8694,0.0,0.0,0.0,0.0,-5.1944,0.0,0.0,0.0,-5.5019,-5.586,-5.5339,-5.6118,-5.6469,-5.6138,-5.5591,-5.5007,-5.4344,-5.4324,-5.3797,-5.2704,-5.2328,-5.183,-5.1211,-5.1159,-5.1056,-5.0898,-5.0866,-5.0773,0.0,0.0,0.0,0.0,-4.9843,-4.9366,-4.8602,-4.8579,-4.7987,-4.7089,-4.6722,-4.6309,-4.5813,0.0,0.0,0.0,0.0,0.0,0.0,0.0,0.0,-4.8458,-4.9206,-4.9584,-4.9929,-5.0259,-5.0302,-4.9996,-4.9263,0.0,0.0,0.0,0.0,0.0,0.0,0.0,0.0,-4.5773,-4.5646,-4.5579,-4.5552,-4.5446,-4.5408,-4.5459,-4.5486,-4.549,-4.5433,-4.4645,-4.4399,0.0,0.0,0.0,0.0,0.0,0.0,0.0,0.0,0.0,0.0,0.0,0.0,0.0,0.0,0.0,0.0,0.0,0.0,0.0,0.0,0.0,0.0,0.0,-4.6144,-4.6198,0.0,0.0,0.0,-4.6207,-4.6198,0.0,-4.6282,-4.6291,-4.628,-4.6216,-4.626,-4.6818,-4.8444,-4.8704,-4.9281,0.0,-5.1254,0.0,0.0,-5.199,0.0,-5.2585,-5.4177,-5.523,-5.5302,-5.6059,-5.6157,-5.5337,-5.5183,-5.4363,-5.2743,-5.2646,-5.2607,-5.2607,-5.1804,-5.1336,-5.1211,-5.1211,-5.1099,-5.0898,-5.0844,-5.069,0.0,0.0,0.0,0.0,-4.9003,-4.8487,-4.7701,-4.7625,-4.7091,-4.6317,-4.5787,-4.5134,-4.4416,0.0,0.0,0.0,0.0,0.0,0.0,0.0,0.0,0.0,0.0,-4.9584,-4.9929,-5.0259,-5.0302,-5.0225,0.0,0.0,0.0,0.0,0.0,0.0,0.0,0.0,0.0,-4.5492,-4.5409,-4.5321,-4.521,-4.5332,-4.5282,-4.5041,-4.5362,-4.5418,-4.5264,-4.5216,-4.5227,0.0,0.0,0.0,0.0,0.0,0.0,0.0,0.0,0.0,0.0,-4.5623,-4.5623,0.0,0.0,0.0,0.0,0.0,0.0,0.0,0.0,-4.6002,-4.6002,-4.6022,0.0,-4.6069,-4.6119,-4.6111,-4.6144,0.0,-4.6204,-4.6199,-4.6227,-4.6229,-4.623,-4.6272,-4.6788,-4.7535,-4.8596,-4.8779,-4.937,-5.1035,0.0,0.0,-5.1278,-5.2045,-5.2579,-5.2608,-5.4218,-5.529,-5.53,-5.5493,-5.5513,-5.532,-5.4031,-5.3114,-5.2704,-5.2048,-5.1716,-5.1707,-5.1492,-5.1336,-5.1211,-5.1211,-5.1099,-5.0898,-5.0882,-5.0443,0.0,0.0,0.0,-4.8094,-4.8048,-4.756,-4.6805,-4.6729,-4.609,-4.5167,-4.4826,-4.4486,-4.4166,0.0,0.0,0.0,0.0,0.0,0.0,0.0,0.0,0.0,0.0,0.0,0.0,0.0,0.0,0.0,0.0,0.0,0.0,0.0,0.0,0.0,0.0,0.0,0.0,-4.5908,-4.5441,-4.517,-4.5103,-4.5143,-4.5076,-4.4895,-4.5115,-4.5169,-4.5068,-4.5264,-4.5304,0.0,0.0,0.0,0.0,-4.5454,0.0,0.0,0.0,0.0,0.0,-4.549,-4.549,0.0,-4.549,-4.549,-4.5507,0.0,0.0,0.0,0.0,-4.5829,-4.5917,-4.5917,-4.5958,-4.6012,-4.6051,-4.6046,-4.6063,-4.6144,0.0,0.0,0.0,0.0,0.0,-4.6718,-4.7168,-4.787,-4.9134,-4.9341,0.0,0.0,0.0,-5.0804,-5.1257,-5.2413,-5.3207,0.0,-5.4469,-5.53,-5.53,-5.4927,-5.4537,-5.4129,-5.3212,-5.2528,-5.2117,-5.1659,-5.1405,-5.1394,-5.14,-5.1322,-5.1211,-5.0782,-5.0517,-5.0337,-4.9872,-4.9356,0.0,0.0,0.0,-4.7201,-4.7167,-4.6637,-4.5852,-4.5776,-4.5421,-4.4907,-4.4629,-4.4379,-4.4181,0.0,0.0,0.0,0.0,0.0,0.0,0.0,0.0,0.0,0.0,0.0,0.0,0.0,0.0,0.0,0.0,0.0,0.0,0.0,0.0,0.0,0.0,0.0,-4.6764,-4.6636,-4.5734,-4.527,-4.527,-4.5031,-4.4895,-4.4895,-4.4895,-4.4895,-4.4907,-4.5079,-4.5057,0.0,0.0,-4.5304,0.0,-4.5333,0.0,0.0,0.0,0.0,0.0,0.0,0.0,0.0,-4.5409,-4.5409,-4.5409,-4.5436,0.0,0.0,0.0,0.0,0.0,-4.5752,-4.5841,-4.5933,-4.5991,-4.6002,-4.6017,-4.6063,0.0,0.0,0.0,0.0,0.0,0.0,-4.7615,0.0,0.0,0.0,0.0,-5.1028,-5.0575,-5.0452,-5.1208,-5.2719,0.0,-5.3494,-5.4461,-5.5038,-5.4903,-5.4201,-5.3459,-5.2743,-5.2567,-5.2156,-5.1414,-5.1405,-5.1346,-5.1199,-5.1327,-5.1274,-5.0982,-5.0242,-4.9765,-4.9467,-4.8623,-4.8107,-4.7904,0.0,0.0,-4.6298,-4.6275,-4.5803,-4.508,-4.5003,-4.5014,-4.5045,-4.4783,-4.4508,-4.4265,0.0,0.0,0.0,0.0,0.0,0.0,0.0,0.0,0.0,0.0,0.0,0.0,0.0,0.0,0.0,0.0,0.0,0.0,0.0,0.0,0.0,0.0,-4.8187,-4.7345,-4.7252,-4.6461,-4.6031,-4.6031,-4.5267,-4.4895,-4.4895,-4.4895,-4.4895,-4.4895,-4.4931,-4.4931,-4.4895,-4.4979,-4.4972,-4.4955,-4.4972,0.0,0.0,0.0,0.0,0.0,0.0,0.0,0.0,-4.4995,-4.4995,-4.5011,-4.5191,0.0,0.0,0.0,0.0,0.0,-4.5552,-4.5558,-4.5646,-4.5933,-4.6002,-4.6002,0.0,0.0,0.0,0.0,0.0,0.0,0.0,-4.8613,-4.9703,0.0,0.0,-5.0956,0.0,0.0,-5.1074,-5.1191,0.0,-5.2423,-5.1683,-5.3119,-5.3813,-5.3064,-5.2888,-5.2779,-5.2702,-5.1999,-5.1531,-5.1394,-5.1405,-5.1054,-5.0319,-5.1034,-5.0969,-5.0103,-4.9964,-4.9435,-4.8585,-4.8435,-4.7866,-4.699,0.0,-4.6376,-4.5401,-4.527,-4.5147,-4.5022,-4.4931,-4.4919,-4.4907,-4.4764,-4.45,-4.4162,0.0,0.0,0.0,0.0,0.0,0.0,0.0,0.0,0.0,0.0,0.0,0.0,0.0,0.0,0.0,0.0,0.0,0.0,0.0,0.0,0.0,-5.0018,-4.9264,-4.8631,-4.8111,-4.7283,-4.6847,-4.6847,-4.6449,-4.6032,-4.5596,-4.5122,-4.4895,-4.4895,-4.4895,-4.4895,-4.4895,-4.4895,-4.4895,-4.4895,0.0,0.0,0.0,0.0,0.0,0.0,0.0,0.0,0.0,0.0,-4.4895,-4.4919,-4.5019,0.0,0.0,0.0,0.0,0.0,-4.5333,-4.5418,-4.5648,-4.6225,-4.6131,-4.6034,0.0,0.0,0.0,0.0,0.0,0.0,0.0,0.0,-5.0107,-5.0611,0.0,-5.0651,-5.0694,-5.0621,-5.0547,0.0,0.0,-5.1516,-5.0638,-5.1301,-5.1627,-5.1236,-5.0768,-5.053,-5.0596,-5.0206,-4.9998,-5.0008,-5.0037,-4.9864,-4.9469,-4.9845,-4.9784,-4.9258,-4.8747,-4.8233,-4.7721,-4.7221,-4.6669,-4.6088,0.0,-4.5734,-4.5148,-4.5091,-4.5049,-4.5057,-4.5014,-4.5022,-4.4967,-4.4602,-4.4407,-4.425,0.0,0.0,0.0,0.0,0.0,0.0,0.0,0.0,0.0,0.0,0.0,0.0,0.0,0.0,0.0,0.0,0.0,0.0,0.0,0.0,-5.0133,-4.9992,-4.9978,-4.9662,-4.9002,-4.8149,-4.77,-4.77,-4.7491,-4.698,-4.6184,-4.552,-4.5103,-4.4914,-4.5103,-4.5198,-4.5198,-4.5198,-4.5198,-4.5198,0.0,0.0,0.0,0.0,0.0,0.0,0.0,0.0,0.0,0.0,0.0,0.0,0.0,0.0,0.0,-4.4895,-4.5019,-4.5126,-4.5126,-4.5253,-4.5573,-4.6436,0.0,0.0,0.0,0.0,0.0,0.0,0.0,0.0,0.0,-5.0065,0.0,-5.1083,-5.0674,-5.0435,-5.0912,-5.0402,-4.9895,-4.9703,-5.0267,-5.0332,-4.9455,-4.9543,-4.9586,-4.9403,-4.8955,-4.872,-4.8772,-4.88,-4.8794,-4.879,-4.8843,-4.8789,-4.8594,-4.8595,-4.8541,-4.8412,-4.7669,-4.7165,-4.6898,-4.6125,-4.568,-4.5513,-4.5457,-4.5341,-4.5125,-4.5114,-4.5103,-4.5103,-4.5103,-4.5114,-4.5061,-4.4498,-4.4346,-4.4299,0.0,0.0,0.0,0.0,0.0,0.0,0.0,0.0,0.0,0.0,0.0,0.0,0.0,0.0,0.0,0.0,0.0,0.0,0.0,0.0,-5.0057,-4.9906,-4.9912,-4.9874,-4.9817,-4.9021,-4.8623,-4.8623,-4.7808,-4.698,-4.6203,-4.6146,-4.5672,-4.4933,-4.5748,-4.6108,-4.6108,-4.6108,-4.6108,-4.6032,-4.5236,0.0,0.0,0.0,0.0,0.0,0.0,0.0,0.0,0.0,0.0,0.0,0.0,0.0,-4.4895,-4.4895,-4.4907,-4.4919,-4.4919,-4.4931,-4.5193,-4.6258,-4.671,0.0,-4.8024,-4.8328,0.0,-4.8574,0.0,0.0,0.0,-5.0554,-5.1126,-5.1192,-5.1152,-5.0852,-5.01,0.0,-4.9618,-4.8801,-4.8757,-4.8446,-4.7586,-4.8227,-4.8384,-4.7635,-4.8282,-4.8693,-4.8716,-4.8769,-4.8803,-4.8806,-4.881,-4.8447,-4.7705,-4.7694,-4.7666,-4.7574,-4.7385,-4.6873,-4.6088,-4.5824,-4.566,-4.5577,-4.54,-4.527,-4.5181,-4.5125,-4.5103,-4.5103,-4.5103,-4.5136,-4.5117,-4.4511,-4.4346,-4.4299,0.0,0.0,0.0,0.0,0.0,0.0,0.0,0.0,0.0,0.0,0.0,0.0,0.0,0.0,0.0,0.0,0.0,0.0,0.0,0.0,-5.0005,-4.9893,-4.9912,-4.9912,-4.9912,-4.9608,-4.9457,-4.9457,-4.8623,-4.7789,-4.6942,-4.643,-4.5729,-4.4933,-4.5805,-4.6203,-4.6222,-4.6733,-4.6942,-4.6866,-4.6032,-4.571,0.0,0.0,0.0,0.0,0.0,0.0,0.0,0.0,-4.4895,-4.4895,0.0,0.0,-4.4895,-4.4895,-4.4895,-4.4895,-4.4895,-4.4895,-4.5242,-4.6706,-4.7248,0.0,0.0,-4.8647,-4.8727,-4.9813,-4.9938,0.0,0.0,0.0,-5.0383,-5.0398,-4.9939,-4.9469,-4.9135,-4.9085,-4.8774,-4.79,-4.7784,-4.7453,-4.6579,-4.6793,-4.6862,-4.6557,-4.6829,-4.7048,-4.7077,-4.7112,-4.7141,-4.7181,-4.7172,-4.7051,-4.6796,-4.6799,-4.6776,-4.6747,-4.6615,-4.6374,-4.6051,-4.5801,-4.5643,-4.5522,-4.5362,-4.526,-4.5192,-4.517,-4.5181,-4.5213,-4.5213,-4.5235,-4.5192,-4.4578,-4.4388,-4.4299,0.0,0.0,0.0,0.0,0.0,0.0,0.0,0.0,0.0,0.0,0.0,0.0,0.0,0.0,0.0,0.0,0.0,0.0,0.0,-5.0044,-4.9978,-4.9893,-4.9912,-4.9912,-4.9912,-4.9912,-4.9912,-4.9912,-4.9362,-4.8642,-4.7776,-4.6961,-4.6127,-4.5331,-4.5918,-4.6335,-4.6601,-4.7169,-4.7548,-4.7738,-4.6904,-4.643,0.0,0.0,0.0,0.0,0.0,0.0,0.0,0.0,-4.4895,-4.4895,0.0,0.0,0.0,0.0,-4.5116,-4.5336,-4.5324,-4.5324,-4.5735,-4.7409,0.0,0.0,-4.9207,-4.924,-4.9365,-5.0647,-5.0377,0.0,-5.0678,0.0,0.0,0.0,-4.8988,-4.8502,-4.823,-4.8191,-4.7861,-4.6987,-4.689,-4.6657,-4.606,-4.6002,-4.6002,-4.6002,-4.6002,-4.6017,-4.6071,-4.6089,-4.6123,-4.6177,-4.6198,-4.6221,-4.6266,-4.6293,-4.6297,-4.6299,-4.6153,-4.6092,-4.6091,-4.5822,-4.5643,-4.5522,-4.54,-4.5291,-4.5224,-4.5224,-4.5265,-4.5307,-4.5307,-4.5307,-4.5235,-4.472,-4.4465,-4.4332,0.0,0.0,0.0,0.0,0.0,0.0,0.0,0.0,0.0,0.0,0.0,0.0,0.0,0.0,0.0,0.0,0.0,0.0,0.0,-5.0044,-4.9978,-4.9893,-4.9912,-4.9912,-4.9912,-4.9912,-4.9912,-4.9912,-4.9912,-4.9495,-4.8679,-4.7808,-4.6961,-4.6203,-4.6203,-4.6639,-4.7397,-4.7397,-4.7889,-4.8623,-4.7738,-4.6923,-4.6203,0.0,0.0,0.0,0.0,0.0,0.0,0.0,-4.4895,-4.4895,0.0,0.0,0.0,0.0,-4.5569,-4.627,-4.6209,-4.6234,-4.6669,0.0,0.0,0.0,-4.9508,-5.0199,-5.0567,-5.0835,0.0,-4.9887,-4.9887,-4.9182,0.0,-4.858,-4.858,-4.8289,-4.7414,-4.7293,-4.6968,-4.6099,-4.6002,-4.6002,-4.6002,-4.6002,-4.6002,-4.6002,-4.6002,-4.6002,-4.6002,-4.6071,-4.6098,-4.6098,-4.6154,-4.6194,-4.6206,-4.6273,-4.6304,-4.6306,-4.6153,-4.6099,-4.6089,-4.5808,-4.566,-4.5586,-4.5467,-4.5361,-4.5297,-4.5307,-4.5307,-4.5307,-4.5307,-4.5307,-4.5256,-4.4915,-4.4624,-4.4374,0.0,0.0,0.0,0.0,0.0,0.0,0.0,0.0,0.0,0.0,0.0,0.0,0.0,0.0,0.0,0.0,0.0,0.0,0.0,-5.0005,-4.9925,-4.9912,-4.9912,-4.9912,-4.9912,-4.9912,-4.9912,-4.9912,-4.9912,-4.9495,-4.8679,-4.7808,-4.6961,-4.6203,-4.6203,-4.6639,-4.7397,-4.7397,-4.7889,-4.8623,-4.7738,-4.6923,-4.6203,0.0,0.0,0.0,0.0,0.0,0.0,0.0,0.0,0.0,0.0,0.0,0.0,-4.4914,-4.5133,-4.5378,-4.5286,-4.5323,0.0,-4.6733,0.0,0.0,0.0,-4.9339,0.0,0.0,-4.9359,-4.8826,-4.8957,0.0,0.0,-4.7784,-4.7686,-4.7376,-4.6502,-4.6385,-4.6288,-4.6041,-4.6002,-4.6002,-4.6002,-4.6002,-4.6002,-4.6002,-4.6002,-4.6002,0.0,-4.6017,-4.6042,-4.6093,-4.6123,-4.6157,-4.6198,-4.6216,-4.6231,-4.6233,-4.6139,-4.6095,-4.6096,-4.5815,-4.5643,-4.5513,-4.54,-4.5291,-4.5224,-4.5286,-4.5307,-4.5307,-4.5307,-4.5307,-4.5256,-4.4915,-4.4624,-4.4374,0.0,0.0,0.0,0.0,0.0,0.0,0.0,0.0,0.0,0.0,0.0,0.0,0.0,0.0,0.0,0.0,0.0,0.0,0.0,0.0,-4.9912,-4.9912,-4.9912,-4.9912,-4.9912,-4.9912,-4.9912,-4.9912,-4.9912,-4.9646,-4.9153,-4.7946,-4.7131,-4.6639,-4.5975,-4.6146,-4.6923,-4.6923,-4.7397,-4.8149,-4.7605,-4.6923,-4.6203,0.0,0.0,0.0,0.0,0.0,0.0,0.0,0.0,0.0,0.0,0.0,0.0,-4.4931,-4.5226,-4.5546,-4.5468,-4.5511,0.0,-4.6543,-4.7087,-4.7543,-4.7922,0.0,0.0,0.0,0.0,-4.7828,-4.7947,-4.8021,0.0,-4.7395,-4.7293,-4.7123,-4.6599,-4.621,-4.6002,-4.6002,-4.6002,-4.5866,-4.555,-4.5511,-4.5375,-4.5025,-4.5006,0.0,0.0,-4.5006,-4.5177,-4.556,-4.5579,-4.5768,-4.6164,-4.6187,-4.6206,-4.621,-4.6105,-4.6064,-4.606,-4.5835,-4.5648,-4.5495,-4.5331,-4.5237,-4.5203,-4.5275,-4.5307,-4.5307,-4.5307,-4.5307,-4.5256,-4.4915,-4.4624,-4.4374,0.0,0.0,0.0,0.0,0.0,0.0,0.0,0.0,0.0,0.0,0.0,0.0,0.0,0.0,0.0,0.0,0.0,0.0,0.0,0.0,-4.9912,-4.9912,-4.9912,-4.9912,-4.9912,-4.9912,-4.9912,-4.9912,-4.9912,-4.9912,-4.9855,-4.8174,-4.7397,-4.7321,-4.5653,-4.5388,-4.6184,-4.6108,-4.6544,-4.7302,-4.7359,-4.6923,-4.6222,-4.6373,0.0,0.0,0.0,0.0,0.0,0.0,0.0,0.0,-4.4895,0.0,-4.4991,-4.4991,-4.5608,-4.6282,-4.6224,0.0,0.0,-4.703,-4.7233,0.0,-4.8466,-4.805,-4.7483,-4.7581,0.0,-4.6873,-4.6972,-4.7204,-4.7398,-4.7409,-4.7492,-4.7473,-4.7312,-4.6618,-4.606,-4.5905,-4.5885,-4.5569,-4.4753,-4.4676,-4.4345,-4.3563,0.0,0.0,-4.3505,-4.3505,-4.386,-4.4656,-4.4685,-4.5066,-4.5866,-4.593,-4.5955,-4.5967,-4.5819,-4.5741,-4.576,-4.5783,-4.5696,-4.5485,-4.5298,-4.5192,-4.5203,-4.5275,-4.5307,-4.5307,-4.5307,-4.5239,-4.512,-4.4789,-4.4461,-4.4107,0.0,0.0,0.0,0.0,0.0,0.0,0.0,0.0,0.0,0.0,0.0,0.0,0.0,0.0,0.0,0.0,0.0,0.0,0.0,0.0,0.0,0.0,0.0,0.0,0.0,0.0,0.0,-4.9912,-4.9912,-4.9912,0.0,0.0,0.0,-4.7321,0.0,-4.5388,-4.6165,-4.5464,-4.5672,-4.6506,-4.715,-4.6923,-4.6335,-4.7656,-4.7239,0.0,0.0,0.0,0.0,0.0,0.0,0.0,-4.4895,-4.4962,-4.4991,-4.4991,-4.5224,-4.5445,-4.5388,-4.5358,0.0,0.0,-4.5565,-4.5929,-4.7378,-4.6568,-4.5753,-4.6655,-4.6165,-4.5888,-4.6839,-4.7589,-4.8134,-4.8291,-4.8891,-4.8852,-4.7492,-4.7143,-4.6521,-4.52,-4.5064,-4.4715,-4.386,-4.3782,-4.3704,0.0,0.0,0.0,-4.3505,-4.3505,-4.3583,-4.3763,-4.3773,-4.388,-4.4059,-4.4125,-4.4159,0.0,-4.3976,-4.3889,-4.3922,-4.5202,-4.5696,-4.5485,-4.5298,-4.5192,-4.5203,-4.5275,-4.5307,-4.5307,-4.5307,-4.4742,-4.3958,-4.3881,-4.3107,-4.2116,0.0,0.0,0.0,0.0,0.0,0.0,0.0,0.0,0.0,0.0,0.0,0.0,0.0,0.0,0.0,0.0,0.0,0.0,0.0,0.0,0.0,0.0,0.0,0.0,0.0,0.0,0.0,0.0,0.0,0.0,0.0,0.0,0.0,-4.7321,0.0,-4.5141,-4.5539,-4.5085,-4.5407,-4.6241,-4.6657,-4.6809,-4.6866,-4.7738,-4.7555,-4.6822,-4.6822,0.0,0.0,0.0,0.0,0.0,0.0,0.0,-4.4858,-4.4883,-4.4839,-4.4795,0.0,0.0,0.0,-4.5558,0.0,-4.5321,-4.6537,-4.5824,-4.519,-4.6191,-4.6102,-4.6031,-4.6777,-4.8017,-4.8849,-4.8641,-4.8968,-4.8677,-4.6929,-4.6346,-4.5627,-4.4326,-4.419,-4.384,-4.2966,-4.2889,0.0,0.0,0.0,-4.2267,-4.2267,-4.2267,-4.2442,-4.2869,-4.2889,-4.3083,-4.3505,-4.3529,-4.3551,-4.3547,-4.3372,-4.3266,-4.3221,-4.4006,-4.4308,-4.4192,-4.4024,-4.3958,-4.3958,-4.4022,-4.4062,-4.4062,-4.4083,-4.3662,-4.3012,-4.2855,-4.2235,-4.1479,0.0,0.0,0.0,0.0,0.0,0.0,0.0,0.0,0.0,0.0,0.0,0.0,0.0,0.0,0.0,0.0,0.0,0.0,0.0,0.0,0.0,0.0,0.0,0.0,0.0,0.0,0.0,0.0,0.0,0.0,0.0,0.0,0.0,-4.7157,0.0,-4.4802,-4.4833,-4.5041,-4.5539,-4.6222,-4.6525,-4.7018,-4.7643,-4.7776,-4.7776,-4.7713,-4.7713,-4.7087,-4.6301,-4.6301,0.0,0.0,0.0,0.0,-4.464,-4.4706,-4.4535,-4.4393,0.0,0.0,0.0,0.0,0.0,0.0,-4.5956,-4.5496,-4.5066,-4.5653,-4.6012,-4.6377,-4.6849,-4.8144,-4.8941,-4.8411,-4.8355,-4.7764,-4.6041,-4.522,-4.4423,-4.3394,-4.3277,-4.2928,-4.2058,0.0,0.0,0.0,0.0,-4.0907,-4.0907,-4.0907,-4.1238,-4.1961,-4.1981,-4.2325,-4.3044,-4.3044,-4.3044,-4.3039,-4.2892,-4.2751,-4.2615,-4.2411,-4.2508,-4.2795,-4.2666,-4.2612,-4.2601,-4.2664,-4.2704,-4.2714,-4.2774,-4.2525,-4.2077,-4.1788,-4.1404,-4.0985,0.0,0.0,0.0,0.0,0.0,0.0,0.0,0.0,0.0,0.0,0.0,0.0,0.0,0.0,0.0,0.0,0.0,0.0,0.0,0.0,0.0,0.0,-4.9476,0.0,0.0,0.0,0.0,0.0,0.0,0.0,0.0,0.0,0.0,-4.6472,0.0,0.0,-4.4541,-4.5584,-4.6089,-4.6316,-4.7789,-4.8433,-4.8604,-4.9305,-4.9134,-4.8541,-4.8541,-4.7562,-4.6301,-4.6301,-4.5603,0.0,0.0,0.0,-4.4365,-4.4346,-4.4374,-4.4402,0.0,0.0,0.0,0.0,0.0,0.0,0.0,0.0,-4.4743,0.0,-4.4597,-4.5615,-4.7275,-4.7367,-4.7171,-4.7219,-4.7365,-4.689,-4.52,-4.487,-4.419,-4.2563,-4.2369,-4.2034,0.0,0.0,0.0,0.0,-4.0907,-4.0907,-4.0907,-4.0907,-4.0946,-4.1063,-4.1063,-4.1121,-4.1257,-4.1257,-4.1257,-4.1233,-4.0997,-4.08,-4.0663,-4.053,-4.1312,-4.2805,-4.2726,-4.2644,-4.2601,-4.2664,-4.2704,-4.2714,-4.2774,-4.2039,-4.0917,-4.0892,-4.0104,-3.9062,0.0,0.0,0.0,0.0,0.0,0.0,0.0,0.0,0.0,0.0,0.0,0.0,0.0,0.0,0.0,-4.9363,0.0,0.0,0.0,0.0,0.0,-4.9415,-4.9188,-4.8869,-4.8421,0.0,0.0,0.0,0.0,0.0,0.0,-4.6315,-4.5846,0.0,0.0,0.0,0.0,-4.5493,-4.6282,-4.698,-4.8206,-4.8983,-4.9362,0.0,0.0,0.0,-4.8149,-4.7258,-4.6301,-4.6301,-4.5603,-4.4764,-4.4764,0.0,0.0,0.0,-4.4011,0.0,-4.4117,0.0,0.0,0.0,0.0,0.0,0.0,0.0,-4.4795,-4.5041,-4.4649,-4.4505,-4.5458,-4.5792,-4.5839,-4.5636,-4.5674,-4.5173,-4.3563,-4.3335,-4.2869,-4.1626,-4.1471,0.0,0.0,0.0,0.0,0.0,-4.0907,-4.0907,-4.0907,-4.0907,-4.0907,-4.0907,-4.0907,-4.0907,-4.0907,-4.0907,-4.0883,-4.0837,-4.0603,-4.0458,-4.0353,-4.0215,-4.0567,-4.1274,-4.1213,-4.1161,-4.114,-4.1172,-4.1212,-4.1242,-4.1322,-4.0808,-4.0021,-4.0021,-3.9462,-3.8707,0.0,0.0,0.0,0.0,0.0,0.0,0.0,0.0,0.0,0.0,0.0,0.0,0.0,0.0,0.0,0.0,-4.9446,0.0,0.0,0.0,0.0,-4.8934,-4.8656,-4.8309,-4.7875,0.0,0.0,0.0,0.0,0.0,-4.6891,-4.5569,-4.5185,0.0,-4.4352,-4.3977,0.0,0.0,0.0,0.0,0.0,-4.9248,0.0,0.0,0.0,0.0,-4.8067,-4.7264,-4.6592,-4.6334,-4.5546,-4.4687,-4.4608,-4.4273,0.0,0.0,0.0,0.0,0.0,0.0,0.0,0.0,0.0,0.0,0.0,0.0,0.0,0.0,-4.4517,-4.3677,-4.363,-4.4141,-4.4375,-4.3806,-4.3764,-4.3337,-4.2003,-4.1824,-4.1577,-4.0946,0.0,0.0,0.0,0.0,0.0,0.0,-4.0869,-4.0874,-4.0907,-4.0907,-4.0903,-4.0898,-4.0903,-4.0883,-4.0869,-4.0893,-4.0868,-4.0809,-4.0589,-4.0446,-4.0394,-4.0215,-4.0087,-4.0046,-4.0036,-4.0026,-3.9996,-3.9996,-4.0046,-4.0117,-4.0176,-3.9903,-3.9514,-3.9514,-3.917,-3.8707,0.0,0.0,0.0,0.0,0.0,0.0,0.0,0.0,0.0,0.0,0.0,0.0,-4.7828,-4.8384,-4.8723,-4.8797,-4.9188,-4.9312,-4.9059,-4.867,0.0,-4.7625,-4.7704,0.0,-4.7245,0.0,0.0,0.0,0.0,0.0,-4.586,-4.5218,-4.4492,-4.3735,-4.3321,-4.3336,-4.3789,0.0,0.0,0.0,0.0,0.0,0.0,0.0,0.0,0.0,-4.8991,-4.82,-4.7369,-4.6367,-4.5321,-4.4374,-4.4106,-4.3795,-4.3532,0.0,0.0,0.0,0.0,0.0,0.0,0.0,0.0,0.0,0.0,0.0,0.0,0.0,-4.3567,-4.3478,-4.2712,-4.2722,-4.2546,-4.1705,-4.1716,-4.1605,-4.0881,-4.0784,0.0,0.0,0.0,0.0,0.0,0.0,0.0,0.0,-4.0812,-4.0833,-4.0903,-4.0907,-4.0893,-4.0907,-4.0893,-4.0864,-4.0812,-4.0872,-4.0898,-4.0898,-4.0564,-4.04,-4.0385,-4.0061,-3.9911,-3.9911,-4.0036,-4.0057,-3.9996,-3.9996,-4.0046,-4.0117,-4.0176,-3.9903,-3.9514,-3.9514,-3.917,-3.8707,0.0,0.0,0.0,0.0,0.0,0.0,0.0,0.0,0.0,0.0,0.0,0.0,0.0,-4.6941,-4.7439,-4.7813,-4.8273,-4.8511,-4.842,-4.8047,0.0,-4.75,-4.7421,-4.7298,-4.7088,0.0,0.0,0.0,0.0,-4.6659,-4.5784,-4.5047,-4.4366,-4.3699,-4.3147,-4.3105,-4.3584,-4.5446,0.0,0.0,0.0,0.0,0.0,0.0,0.0,0.0,-4.8251,-4.7801,-4.7521,-4.6947,-4.61,-4.5167,-4.4876,-4.4188,-4.3515,-4.3515,-4.3515,-4.3515,0.0,0.0,0.0,0.0,0.0,0.0,0.0,0.0,0.0,0.0,-4.3437,-4.3043,-4.2366,-4.1969,-4.1688,-4.1485,-4.1062,-4.0679,-4.0537,0.0,0.0,0.0,0.0,0.0,0.0,0.0,0.0,0.0,0.0,-4.0818,-4.0839,-4.0869,-4.0903,-4.0893,-4.0903,-4.0898,-4.0859,-4.0888,-4.0898,-4.0903,-4.0564,-4.0427,-4.0462,-4.012,-3.9994,-4.0026,-4.0036,-4.0005,-3.9933,-3.9933,-3.9994,-4.0046,-4.0098,-3.9848,-3.9439,-3.9471,-3.917,-3.8707,0.0,0.0,0.0,0.0,0.0,0.0,0.0,0.0,0.0,-4.3444,0.0,0.0,0.0,0.0,-4.6563,-4.7304,-4.7583,-4.7747,-4.7791,-4.7416,-4.7172,-4.7128,-4.7057,-4.698,-4.6934,0.0,0.0,0.0,0.0,0.0,0.0,-4.4585,-4.3885,-4.3281,-4.2841,-4.2881,0.0,0.0,0.0,-4.6476,0.0,0.0,-4.9245,0.0,0.0,0.0,-4.8104,-4.7839,-4.777,-4.7132,-4.648,-4.5828,-4.5222,-4.4328,-4.3515,-4.3515,-4.3515,0.0,-4.3167,0.0,0.0,0.0,0.0,0.0,0.0,0.0,0.0,0.0,0.0,-4.3023,-4.2466,-4.1795,-4.1255,-4.1005,-4.0472,0.0,0.0,0.0,0.0,0.0,0.0,0.0,0.0,0.0,0.0,0.0,0.0,0.0,-4.0807,-4.0849,-4.0888,-4.0864,-4.0863,-4.0863,-4.0864,-4.0873,-4.0873,-4.0893,-4.061,-4.0465,-4.0462,-4.0186,-4.0058,-4.0026,-3.9994,-3.9954,-3.9933,-3.9911,-3.9943,-3.9996,-4.0057,-3.9792,-3.942,-3.9452,-3.9142,-3.8707,0.0,0.0,0.0,0.0,0.0,0.0,0.0,0.0,0.0,-4.3375,0.0,0.0,0.0,0.0,0.0,-4.731,-4.7124,-4.6963,-4.7078,-4.6746,-4.6472,-4.6352,0.0,0.0,0.0,0.0,0.0,0.0,0.0,0.0,0.0,0.0,-4.3072,-4.2308,-4.2308,-4.2589,-4.3159,0.0,-4.4618,-4.4995,0.0,-4.7876,-4.8131,0.0,0.0,0.0,-4.8749,-4.8419,0.0,-4.6901,0.0,0.0,0.0,-4.4158,-4.3515,-4.3515,-4.3515,0.0,0.0,0.0,0.0,0.0,0.0,0.0,0.0,0.0,0.0,0.0,0.0,0.0,0.0,0.0,0.0,0.0,0.0,0.0,0.0,0.0,0.0,0.0,0.0,0.0,0.0,0.0,0.0,0.0,-4.0655,-4.0724,-4.0782,-4.0867,-4.0872,-4.0807,-4.0788,-4.0808,-4.0807,-4.0798,-4.0829,-4.0902,-4.0706,-4.0523,-4.0392,-4.0257,-4.008,-3.99,-3.99,-3.9933,-3.9986,-3.9922,-3.9933,-3.9996,-3.9996,-3.9739,-3.9389,-3.9389,-3.9101,-3.8707,0.0,0.0,0.0,0.0,0.0,0.0,0.0,0.0,-4.2397,0.0,0.0,0.0,-4.3775,-4.4452,-4.4987,-4.5301,-4.5067,-4.488,-4.4809,-4.4793,-4.4782,-4.4736,-4.4966,0.0,0.0,0.0,0.0,0.0,0.0,0.0,0.0,0.0,0.0,0.0,-4.2308,-4.247,-4.28,-4.3791,0.0,-4.5785,-4.7216,-4.8182,0.0,0.0,0.0,0.0,0.0,-4.8912,-4.8827,0.0,-4.774,-4.6965,0.0,0.0,0.0,0.0,0.0,0.0,-4.2334,0.0,0.0,0.0,0.0,0.0,0.0,0.0,0.0,0.0,0.0,0.0,0.0,0.0,0.0,0.0,0.0,0.0,0.0,0.0,0.0,0.0,0.0,0.0,0.0,0.0,0.0,0.0,-4.0629,-4.0706,-4.0724,-4.0846,-4.0872,-4.0807,-4.079,-4.079,-4.0807,-4.0801,-4.0832,-4.0902,-4.0706,-4.0523,-4.0392,-4.0257,-4.008,-3.99,-3.99,-3.9911,-3.9922,-3.9911,-3.9911,-3.9933,-3.9975,-3.9717,-3.9337,-3.9376,-3.9101,-3.8707,0.0,0.0,0.0,0.0,0.0,0.0,0.0,0.0,-4.2308,0.0,0.0,0.0,-4.3811,-4.3956,-4.425,-4.4809,-4.4461,-4.4147,-4.4084,-4.4147,-4.4216,-4.4261,-4.4414,-4.4525,0.0,0.0,0.0,0.0,0.0,0.0,0.0,0.0,0.0,0.0,0.0,0.0,0.0,0.0,0.0,0.0,-4.6746,0.0,0.0,-4.8692,-4.8764,0.0,0.0,0.0,-4.871,-4.8623,-4.7828,0.0,0.0,0.0,0.0,0.0,0.0,0.0,0.0,0.0,0.0,0.0,0.0,0.0,-3.9534,-3.9986,-4.0599,0.0,-4.2759,0.0,0.0,0.0,0.0,0.0,0.0,0.0,0.0,0.0,0.0,0.0,0.0,0.0,0.0,-4.0034,-4.0072,-4.0203,-4.0415,-4.0589,-4.0725,-4.0815,-4.0837,-4.0809,-4.0798,-4.0792,-4.0792,-4.0792,-4.0823,-4.0865,-4.073,-4.0584,-4.0407,-4.0326,-4.0148,-3.99,-3.99,-3.99,-3.99,-3.99,-3.99,-3.99,-3.9943,-3.9682,-3.9311,-3.9337,-3.9073,-3.8707,0.0,0.0,0.0,0.0,0.0,0.0,0.0,0.0,-4.243,0.0,-4.2483,-4.3048,-4.4365,-4.3863,-4.3961,-4.5197,-4.4607,-4.4182,-4.416,-4.4094,-4.4103,-4.4214,-4.4236,-4.4337,-4.446,0.0,0.0,0.0,0.0,0.0,0.0,0.0,0.0,0.0,0.0,0.0,0.0,0.0,0.0,-4.5104,-4.5908,-4.6928,0.0,0.0,-4.8308,-4.8623,-4.8569,-4.8402,-4.8194,-4.8158,-4.7168,0.0,0.0,0.0,0.0,0.0,-4.3515,0.0,0.0,0.0,0.0,0.0,0.0,0.0,-4.0359,-4.0399,-4.0563,-4.2378,-4.2667,0.0,0.0,0.0,0.0,0.0,0.0,0.0,0.0,0.0,0.0,0.0,0.0,0.0,-3.9761,-3.9765,-3.9775,-3.9797,-4.0091,-4.0407,-4.0726,-4.0761,-4.0773,-4.0776,-4.0784,-4.0797,-4.0797,-4.0797,-4.0809,-4.0794,-4.079,-4.0649,-4.0406,-4.0396,-4.0211,-3.99,-3.99,-3.99,-3.99,-3.99,-3.99,-3.99,-3.99,-3.9647,-3.9298,-3.9298,-3.9045,-3.8707,0.0,0.0,0.0,0.0,0.0,0.0,0.0,0.0,0.0,-4.3268,-4.3786,-4.4264,-4.4545,-4.4438,-4.4448,-4.4663,-4.3948,-4.346,-4.3333,-4.2835,-4.2544,-4.2583,-4.2668,-4.3033,-4.3693,0.0,0.0,0.0,0.0,0.0,0.0,0.0,0.0,0.0,0.0,0.0,0.0,0.0,0.0,-4.4754,-4.5457,0.0,-4.7854,-4.8017,-4.8114,-4.8152,-4.8247,-4.8247,-4.8098,-4.7534,-4.6709,-4.5792,0.0,0.0,0.0,-4.3515,0.0,0.0,0.0,0.0,0.0,0.0,0.0,0.0,-3.8486,-3.8887,-3.9355,0.0,-4.0347,0.0,0.0,0.0,0.0,0.0,0.0,0.0,0.0,0.0,0.0,0.0,0.0,0.0,-3.9613,-3.9568,-3.9632,-3.9786,-4.0005,-4.0192,-4.0307,-4.0526,-4.0615,-4.0554,-4.0713,-4.0797,-4.0797,-4.0797,-4.0809,-4.0794,-4.079,-4.0649,-4.0406,-4.0396,-4.0211,-3.99,-3.99,-3.99,-3.99,-3.99,-3.99,-3.99,-3.99,-3.9647,-3.9298,-3.9298,-3.9045,-3.8707,0.0,0.0,0.0,0.0,0.0,0.0,0.0,0.0,0.0,0.0,0.0,-4.4745,-4.516,-4.4835,-4.4763,-4.5129,-4.4413,-4.3768,-4.333,-4.2981,-4.2632,-4.2222,-4.2267,-4.2483,-4.2894,-4.2501,0.0,0.0,0.0,0.0,0.0,0.0,0.0,0.0,0.0,0.0,0.0,0.0,-4.3358,-4.4146,-4.5258,0.0,-4.7666,-4.777,-4.7872,-4.8012,-4.8148,-4.8226,-4.8137,-4.7236,-4.6469,0.0,-4.4947,-4.4158,-4.3515,0.0,-4.3222,-4.2618,0.0,0.0,0.0,-3.8627,0.0,0.0,0.0,-3.8815,-3.9193,-3.9752,-4.0149,-4.0294,-3.9914,0.0,0.0,0.0,0.0,0.0,0.0,0.0,0.0,0.0,0.0,0.0,-3.9248,-3.9285,-3.9458,-3.9736,-3.9872,-4.0053,-4.0238,-4.0375,-4.0481,-4.0559,-4.0619,-4.0706,-4.0797,-4.0797,-4.0803,-4.0796,-4.0806,-4.0642,-4.0353,-4.0383,-4.0232,-3.99,-3.99,-3.99,-3.99,-3.99,-3.99,-3.99,-3.99,-3.9647,-3.9298,-3.9298,-3.9045,-3.8707,-4.1362,0.0,0.0,0.0,0.0,0.0,0.0,0.0,0.0,0.0,0.0,0.0,0.0,0.0,0.0,0.0,0.0,0.0,0.0,-4.3872,-4.3429,-4.2769,-4.2448,-4.243,-4.2733,-4.2468,-4.2397,0.0,0.0,0.0,0.0,0.0,0.0,0.0,0.0,0.0,0.0,0.0,0.0,-4.3671,0.0,-4.6151,-4.727,-4.7457,-4.7726,-4.8012,-4.8168,-4.8137,-4.7919,-4.694,-4.6193,-4.5535,-4.4674,-4.3976,0.0,0.0,0.0,0.0,0.0,0.0,0.0,0.0,0.0,-3.8298,0.0,0.0,0.0,0.0,0.0,0.0,0.0,0.0,0.0,0.0,0.0,0.0,0.0,0.0,0.0,0.0,0.0,0.0,-3.8822,-3.8989,-3.9277,-3.9623,-3.9694,-3.9861,-4.0138,-4.0375,-4.0507,-4.0545,-4.0673,-4.0745,-4.0797,-4.0797,-4.0797,-4.0797,-4.0802,-4.0615,-4.0309,-4.037,-4.0223,-3.99,-3.99,-3.99,-3.99,-3.99,-3.9805,-3.9673,-3.9843,-3.9647,-3.9298,-3.9298,-3.9045,-3.8707,-4.0939,-4.029,0.0,0.0,0.0,0.0,0.0,0.0,0.0,0.0,0.0,0.0,0.0,0.0,0.0,0.0,0.0,0.0,-4.6641,0.0,0.0,0.0,0.0,-4.2929,-4.43,-4.3001,-4.2644,0.0,0.0,0.0,0.0,0.0,0.0,0.0,-4.2308,0.0,0.0,0.0,-4.2875,0.0,-4.3953,-4.4962,0.0,-4.734,-4.7806,-4.8032,-4.8209,-4.7846,-4.7113,0.0,-4.548,-4.4655,0.0,-4.343,-4.3462,-4.3304,0.0,0.0,0.0,0.0,0.0,0.0,-3.8252,0.0,0.0,0.0,-3.8025,-3.7936,0.0,0.0,0.0,0.0,0.0,0.0,0.0,0.0,0.0,0.0,0.0,0.0,0.0,0.0,0.0,-3.8698,-3.9003,-3.9401,-3.9502,-3.9556,-3.9592,-4.0618,-4.0931,-4.0353,-4.1133,-4.1327,-4.0816,-4.0797,-4.0797,-4.0797,-4.0802,-4.0615,-4.0309,-4.037,-4.0223,-3.99,-3.99,-3.99,-3.99,-3.99,-3.9475,-3.8917,-3.9616,-3.9647,-3.9298,-3.9298,-3.9045,-3.8707,-4.0471,-3.9973,0.0,0.0,0.0,0.0,0.0,0.0,0.0,0.0,0.0,0.0,0.0,0.0,0.0,0.0,0.0,-4.7859,0.0,0.0,0.0,0.0,0.0,-4.259,-4.3251,-4.2626,-4.2486,-4.2804,-4.2486,0.0,0.0,0.0,0.0,0.0,-4.2308,0.0,-4.2308,0.0,-4.2545,0.0,0.0,0.0,0.0,-4.6522,-4.7297,-4.742,-4.7039,-4.6691,-4.6287,0.0,-4.4894,0.0,0.0,0.0,0.0,0.0,0.0,0.0,0.0,0.0,0.0,0.0,0.0,0.0,-3.79,0.0,-3.7703,0.0,0.0,0.0,0.0,0.0,0.0,0.0,-3.7243,0.0,0.0,0.0,0.0,0.0,0.0,0.0,0.0,0.0,0.0,0.0,-3.9305,-3.9433,-3.9724,-4.017,-4.0568,-4.0864,-4.1227,-4.1561,-4.1846,-4.1827,-4.1827,-4.1835,-4.1423,-4.1091,-4.0874,-4.0434,-4.011,-3.99,-3.99,-3.9635,-3.9191,-3.9191,-3.8698,-3.7988,-3.8319,-3.8196,-3.786,-3.786,-3.7622,-3.7312,-4.0179,0.0,0.0,0.0,0.0,0.0,0.0,0.0,0.0,0.0,0.0,0.0,-4.7342,-4.7693,0.0,0.0,-4.9038,-4.8823,0.0,0.0,-4.5963,0.0,0.0,0.0,-4.2929,-4.2522,-4.2308,0.0,0.0,0.0,0.0,0.0,0.0,0.0,0.0,-4.2308,-4.2308,0.0,-4.2328,-4.2443,-4.3012,-4.3429,-4.3855,-4.5695,-4.6517,-4.6616,-4.6085,-4.5718,-4.5407,-4.4893,-4.4473,0.0,-4.3319,0.0,0.0,0.0,0.0,0.0,-4.0063,0.0,0.0,0.0,0.0,0.0,0.0,0.0,0.0,0.0,0.0,0.0,0.0,0.0,0.0,0.0,0.0,-3.6978,0.0,0.0,0.0,0.0,0.0,0.0,0.0,0.0,0.0,-3.9394,-3.944,-3.9616,-4.0075,-4.0283,-4.0575,-4.0954,-4.114,-4.1469,-4.1954,-4.1973,-4.1973,-4.1954,-4.1427,-4.1103,-4.0945,-4.0367,-4.003,-3.99,-3.9673,-3.9248,-3.8671,-3.8443,-3.7837,-3.7078,-3.7078,-3.6699,-3.6204,-3.6634,-3.6584,-3.6303,-4.0078,-3.9781,0.0,0.0,0.0,0.0,0.0,0.0,0.0,0.0,0.0,0.0,0.0,0.0,0.0,0.0,0.0,-5.1244,-5.0441,0.0,-4.8109,0.0,0.0,-4.3782,0.0,0.0,0.0,0.0,0.0,0.0,0.0,0.0,0.0,0.0,0.0,-4.2308,-4.2308,-4.2308,-4.2409,-4.2589,-4.2625,-4.3213,-4.4167,0.0,-4.5465,-4.5678,-4.5828,0.0,0.0,-4.4637,-4.4176,0.0,0.0,0.0,0.0,0.0,0.0,0.0,0.0,0.0,0.0,-3.7936,0.0,0.0,0.0,0.0,-3.6919,0.0,0.0,0.0,0.0,0.0,0.0,0.0,0.0,0.0,0.0,0.0,0.0,0.0,0.0,0.0,0.0,0.0,-3.8593,-3.9967,-4.0008,-4.0158,-4.0555,-4.1434,-4.1372,-4.0176,-4.0898,-4.1007,-4.0377,-4.0377,-4.0377,-4.0377,-4.0339,-4.0269,-4.0129,-4.012,-4.003,-3.9862,-3.9077,-3.8727,-3.8633,-3.7799,-3.6965,-3.6244,-3.6244,-3.5512,-3.4666,-3.6223,-3.6584,-3.6303,0.0,0.0,0.0,0.0,0.0,0.0,0.0,-4.4654,0.0,0.0,-4.7677,0.0,0.0,-4.9406,-4.9899,0.0,0.0,-5.0798,-5.053,-4.9073,0.0,0.0,0.0,-4.4103,0.0,0.0,0.0,0.0,0.0,0.0,0.0,0.0,0.0,0.0,0.0,-4.2044,0.0,0.0,0.0,0.0,0.0,-4.2673,-4.3141,0.0,-4.4158,-4.4747,-4.4273,-4.398,0.0,-4.3278,-4.2843,-4.2372,-4.1637,-4.1644,-4.1831,-4.1493,-4.1546,0.0,0.0,0.0,-4.0949,-3.9049,0.0,0.0,0.0,0.0,0.0,0.0,0.0,0.0,0.0,0.0,0.0,0.0,0.0,0.0,0.0,0.0,0.0,0.0,0.0,0.0,0.0,0.0,0.0,-3.8807,-4.0003,-4.0381,-3.9574,-4.042,-4.0832,-4.0566,-4.0733,-4.1069,-4.1548,-4.1567,-4.1567,-4.1548,-4.106,-4.0802,-4.0748,-4.0211,-3.9935,-3.9862,-3.9039,-3.8367,-3.778,-3.6946,-3.6052,-3.5214,-3.5214,-3.4794,-3.4277,-3.4955,-3.4983,-3.4651,-4.1441,0.0,0.0,0.0,0.0,0.0,0.0,0.0,0.0,0.0,-4.7698,0.0,-4.9222,0.0,-4.9942,0.0,-5.0762,-5.0816,-5.053,-4.9567,0.0,-4.7512,-4.6226,-4.5193,0.0,0.0,0.0,0.0,0.0,-4.149,0.0,0.0,0.0,0.0,0.0,-4.2169,-4.2409,0.0,-4.2366,0.0,0.0,-4.243,0.0,0.0,-4.2992,-4.3779,0.0,-4.2919,-4.2843,-4.2122,-4.178,-4.1621,-4.1209,-4.1293,-4.1485,-4.1524,-4.1799,-4.197,-4.1389,-4.1714,0.0,-4.0058,-4.0112,0.0,-3.8252,0.0,-3.7455,0.0,0.0,0.0,0.0,0.0,0.0,0.0,0.0,0.0,0.0,-3.535,0.0,0.0,0.0,0.0,0.0,0.0,-3.7866,-3.8467,-3.9595,-3.9969,0.0,0.0,-4.0318,-4.0372,-4.0265,-4.0591,-4.1383,-4.1383,-4.1383,-4.1383,-4.09,-4.0666,-4.0658,-4.0143,-3.973,-3.9437,-3.8614,-3.773,-3.6797,-3.6003,-3.525,-3.4583,-3.4583,-3.4386,-3.4124,-3.4245,-3.4086,-3.3807,0.0,0.0,0.0,0.0,-4.2071,0.0,0.0,0.0,-4.5604,0.0,-4.7565,-4.8562,-4.9329,-5.0102,-5.0566,-5.0566,-5.1262,-5.1369,-5.062,-5.0495,0.0,0.0,-4.7631,-4.6886,-4.6205,0.0,0.0,0.0,0.0,0.0,0.0,0.0,0.0,0.0,-4.221,0.0,-4.257,-4.2506,-4.2483,-4.2483,-4.2346,-4.2374,-4.2446,-4.1691,-4.1969,-4.2721,-4.237,-4.2112,-4.1845,-4.1247,-4.1058,-4.1077,-4.1058,-4.1095,-4.1297,-4.2084,-4.2323,-4.2326,-4.2136,-4.2065,-4.1848,-4.0871,-4.0636,0.0,0.0,0.0,-3.7959,0.0,0.0,0.0,0.0,0.0,0.0,0.0,0.0,0.0,0.0,0.0,0.0,0.0,0.0,0.0,0.0,-3.6495,-3.7015,-3.8869,-3.885,-3.9067,0.0,0.0,-3.9923,-3.9588,-3.9514,-3.9611,-3.9878,-3.9889,-3.99,-3.99,-3.99,-3.99,-3.99,-3.9862,-3.9418,-3.8652,-3.7742,-3.6797,-3.5846,-3.5036,-3.4591,-3.4393,-3.4393,-3.4257,-3.4086,-3.4086,-3.3959,-3.3807,-4.2997,-4.2665,-4.2571,0.0,-4.2881,-4.3187,0.0,0.0,0.0,0.0,-4.8531,-4.9708,-5.0945,-5.1262,-5.1387,-5.1387,-5.1583,0.0,0.0,0.0,0.0,-4.9359,-4.8012,-4.6956,-4.6223,-4.5141,-4.3982,-4.2703,0.0,0.0,-4.0303,0.0,0.0,0.0,0.0,0.0,-4.2089,-4.2366,-4.2445,-4.2346,-4.2308,-4.1971,0.0,0.0,-4.1191,-4.0925,-4.1103,-4.1134,-4.1006,-4.0421,-4.0516,-4.08,-4.0364,-4.1038,-4.2029,-4.2249,-4.2708,-4.3185,-4.3115,-4.3098,-4.281,-4.1523,-4.1194,-4.0807,0.0,0.0,0.0,0.0,0.0,0.0,0.0,0.0,0.0,0.0,0.0,0.0,0.0,0.0,0.0,-3.5314,0.0,0.0,-3.6054,-3.6556,-3.7099,-3.764,-3.8879,0.0,0.0,0.0,0.0,-3.9078,-3.921,-3.9376,-3.9599,-3.9792,-3.99,-3.99,-3.99,-3.99,-3.9881,-3.9286,-3.8898,-3.8614,-3.7154,-3.6287,-3.5846,-3.5036,-3.4495,-3.4173,-3.4173,-3.4049,-3.3868,-3.3868,-3.3842,-3.3807,-4.3504,0.0,0.0,-4.3392,0.0,0.0,-4.4632,-4.5077,0.0,-4.7756,-4.8469,0.0,-5.1121,-5.1123,-5.1078,-5.1258,-5.108,0.0,-5.0432,0.0,0.0,-4.8753,-4.8213,-4.7569,-4.6876,-4.5906,0.0,-4.3103,0.0,0.0,-4.0138,0.0,0.0,0.0,0.0,-4.1316,0.0,-4.1707,-4.1928,-4.179,-4.183,-4.1425,0.0,-4.0449,-4.013,-3.9788,-3.9758,-3.9918,-4.0102,-3.9849,-3.9979,-4.0366,-4.0806,-4.157,-4.2378,-4.2708,-4.3149,-4.3515,-4.3515,-4.3515,-4.3317,-4.2523,-4.1922,-4.1153,-3.9681,-3.8617,-3.7805,0.0,-3.6576,-3.6056,0.0,0.0,0.0,0.0,0.0,0.0,0.0,0.0,0.0,0.0,-3.5291,0.0,-3.5554,-3.6045,-3.6461,-3.6821,-3.7732,0.0,0.0,0.0,0.0,-3.8896,-3.8942,-3.9078,-3.9287,-3.9587,-3.9735,-3.9717,-3.9478,-3.938,-3.9342,-3.8519,-3.795,-3.7552,-3.6515,-3.5767,-3.5199,-3.4671,-3.4257,-3.3972,-3.3972,-3.3895,-3.3807,-3.3807,-3.3807,-3.3807,-4.3572,0.0,0.0,0.0,0.0,0.0,0.0,-4.5343,0.0,-4.7919,0.0,-4.866,-5.0396,-5.0216,-5.0095,-5.0332,0.0,-4.9416,-4.8626,-4.9139,-4.892,-4.7728,-4.8255,-4.8298,-4.7696,-4.6356,-4.5076,0.0,0.0,0.0,0.0,0.0,0.0,0.0,0.0,0.0,0.0,-4.0784,-4.1126,-4.0949,-4.1087,-4.0736,-4.0057,-3.9319,-3.9084,-3.9076,-3.8538,-3.8705,-3.9185,-3.9516,-3.9694,-4.0057,-4.1759,-4.2378,-4.2598,-4.3277,-4.3441,-4.3332,-4.3332,-4.3276,-4.3167,-4.3115,-4.2268,-4.116,-4.0061,-3.8868,-3.7915,-3.7564,-3.6702,-3.6289,0.0,0.0,0.0,0.0,0.0,0.0,0.0,0.0,0.0,0.0,0.0,0.0,0.0,0.0,0.0,0.0,0.0,0.0,0.0,0.0,0.0,-3.8818,-3.8766,-3.8803,-3.8952,0.0,-3.9377,-3.9296,-3.8829,-3.8591,-3.8439,-3.7587,-3.6811,-3.6148,-3.5821,-3.5177,-3.434,-3.4173,-3.3985,-3.3807,-3.3807,-3.3807,-3.3807,-3.3807,-3.3807,-3.3807,0.0,0.0,0.0,0.0,0.0,-4.5674,-4.5645,-4.6482,-4.7471,-4.8391,-4.8866,-4.9206,-4.945,-4.9398,-4.9129,-4.8592,-4.847,0.0,0.0,0.0,0.0,-4.8649,-4.8146,-4.7823,-4.7717,-4.5796,-4.452,0.0,0.0,0.0,0.0,0.0,0.0,0.0,0.0,0.0,-4.0028,-4.0248,0.0,-4.0128,-4.0321,-3.993,-3.9229,-3.9228,-3.8864,-3.8282,-3.8189,-3.8225,-3.846,-3.95,-4.0174,-4.0786,-4.1942,-4.2763,-4.3331,-4.346,-4.302,-4.2506,-4.2506,-4.2029,-4.1432,-4.1032,-4.0545,-4.0005,-3.9441,-3.8447,-3.7603,-3.7517,-3.6831,-3.6247,-3.6255,0.0,0.0,0.0,0.0,0.0,0.0,0.0,0.0,0.0,0.0,-3.3962,0.0,0.0,0.0,0.0,0.0,0.0,0.0,0.0,0.0,0.0,-3.8755,0.0,0.0,0.0,-3.8774,-3.8186,-3.8252,-3.7939,-3.7265,-3.6445,-3.6034,-3.5897,-3.4982,-3.4423,-3.4148,-3.4111,-3.3985,-3.3807,-3.3807,-3.3807,-3.3807,-3.3807,-3.3807,-3.3807,0.0,0.0,0.0,0.0,0.0,0.0,0.0,-4.6558,-4.7263,-4.7483,-4.739,-4.7549,-4.8092,-4.7951,-4.7754,-4.757,-4.7377,-4.7465,-4.7927,-4.7328,-4.7228,-4.7832,-4.6861,-4.6297,-4.6297,-4.4938,-4.3807,-4.2892,0.0,0.0,0.0,0.0,0.0,0.0,0.0,-3.8704,0.0,0.0,0.0,-3.9343,-3.9459,-3.9085,-3.8438,-3.8527,-3.8345,-3.8002,-3.8086,-3.8052,-3.8234,-3.9821,-4.077,-4.1377,-4.2073,-4.2493,-4.2661,-4.2344,-4.1992,-4.168,-4.168,-4.1235,-4.072,-4.0509,-3.9674,-3.887,-3.8684,-3.7711,-3.687,-3.687,-3.6559,-3.628,-3.6174,-3.6019,0.0,0.0,0.0,0.0,0.0,0.0,-3.455,0.0,0.0,0.0,0.0,0.0,0.0,0.0,0.0,0.0,0.0,0.0,0.0,0.0,0.0,0.0,0.0,0.0,0.0,-3.7632,-3.7024,-3.6546,-3.6147,-3.5331,-3.5,-3.5038,-3.4413,-3.4124,-3.4099,-3.3985,-3.3881,-3.3807,-3.3807,-3.3807,-3.3807,-3.3807,-3.3807,-3.3807,0.0,-4.4479,0.0,0.0,-4.5213,0.0,-4.55,-4.6092,-4.6587,-4.6557,-4.6056,-4.5983,-4.6794,-4.6544,-4.6379,-4.6534,-4.614,-4.5988,-4.6307,-4.5785,-4.5697,-4.6232,-4.53,-4.4753,-4.4753,-4.4044,-4.3156,0.0,0.0,0.0,0.0,0.0,0.0,0.0,0.0,0.0,0.0,0.0,-3.8597,-3.8577,-3.8653,-3.8385,-3.7933,-3.7985,-3.8038,-3.8089,-3.8204,-3.8263,-3.8557,-4.0098,-4.0902,-4.1342,-4.1873,-4.1946,-4.1715,-4.1246,-4.0918,-4.0721,-4.0721,-4.0304,-3.986,-3.986,-3.886,-3.7837,-3.7837,-3.7036,-3.6301,-3.6301,-3.6301,-3.628,-3.6237,-3.6113,0.0,0.0,0.0,0.0,0.0,0.0,0.0,0.0,0.0,0.0,-3.2531,0.0,0.0,0.0,0.0,0.0,-3.6623,0.0,0.0,0.0,0.0,-3.8227,-3.8053,0.0,-3.7221,-3.6798,-3.5789,-3.523,-3.5051,-3.4427,-3.4185,-3.4245,-3.4036,-3.3972,-3.4023,-3.3855,-3.3807,-3.3807,-3.3807,-3.3807,-3.3807,-3.3807,-3.3807,-3.3807,0.0,0.0,0.0,0.0,0.0,0.0,-4.4818,-4.5331,-4.6041,-4.6701,-4.6718,-4.6464,-4.5901,-4.5805,-4.5529,-4.489,-4.4139,-4.3897,-4.4405,-4.3773,-4.3621,-4.4143,-4.4067,-4.3991,-4.3991,-4.3218,-4.275,0.0,0.0,-4.0718,0.0,0.0,0.0,0.0,0.0,0.0,0.0,-3.7864,-3.7811,-3.7811,-3.7936,-3.8022,-3.8085,-3.8285,-3.8467,-3.863,-3.8627,-3.9103,-3.9745,-3.9905,-3.99,-3.9967,-4.0918,-4.1205,-4.117,-4.1113,-4.0329,-3.9456,-3.9456,-3.8635,-3.7774,-3.7774,-3.7405,-3.7005,-3.7005,-3.665,-3.6301,-3.6301,-3.6301,-3.6237,-3.6062,-3.5641,-3.5201,0.0,0.0,0.0,0.0,0.0,-3.2799,-3.2638,0.0,0.0,0.0,-3.1675,0.0,0.0,-3.3349,0.0,0.0,0.0,0.0,-3.712,0.0,-3.7535,-3.7217,-3.7158,-3.6409,-3.4957,-3.5007,-3.4683,-3.4044,-3.397,-3.3998,-3.4099,-3.3842,-3.3766,-3.3834,-3.382,-3.3807,-3.3807,-3.3807,-3.3807,-3.3807,-3.3807,-3.3807,-3.3807,0.0,0.0,0.0,0.0,0.0,0.0,0.0,-4.4869,-4.4959,-4.479,-4.5179,-4.5376,-4.506,-4.4604,-4.4215,-4.391,-4.3183,-4.2949,-4.3509,-4.2954,-4.2859,-4.3388,-4.296,-4.2693,-4.2693,-4.1945,-4.1516,0.0,0.0,0.0,0.0,0.0,0.0,0.0,0.0,-3.7411,-3.7721,-3.7827,-3.7915,-3.7931,-3.8001,-3.8119,-3.8302,-3.8366,-3.8449,-3.8481,-3.8236,-3.8302,-3.8487,-3.833,-3.9031,-3.9967,-4.0013,-3.9767,-3.9464,-3.9326,-3.8791,-3.8258,-3.8503,-3.7864,-3.7151,-3.7151,-3.6841,-3.6536,-3.6536,-3.6409,-3.6301,-3.6301,-3.5956,-3.5625,-3.5542,-3.4923,-3.4407,-3.4386,0.0,0.0,0.0,0.0,0.0,-3.1834,0.0,-3.1311,0.0,0.0,0.0,0.0,0.0,0.0,0.0,0.0,0.0,-3.6185,0.0,-3.7517,-3.669,-3.6562,-3.5921,-3.475,-3.4316,-3.3972,-3.3726,-3.3671,-3.3739,-3.3873,-3.3793,-3.378,-3.3807,-3.3807,-3.3807,-3.3807,-3.3807,-3.3807,-3.3807,-3.3807,-3.3807,-3.3807,-4.3597,0.0,-4.3654,0.0,-4.3855,-4.3882,-4.391,-4.3938,-4.3707,-4.3166,-4.3555,-4.3938,-4.3938,-4.342,-4.3081,-4.3081,-4.2405,-4.2132,-4.2525,-4.1963,-4.1835,-4.2207,-4.1668,0.0,-4.1302,-4.071,-4.0339,-4.0227,-3.9238,0.0,0.0,0.0,0.0,0.0,-3.6958,-3.7338,-3.7703,-3.7863,-3.7949,-3.7983,-3.7983,-3.8069,-3.817,-3.8186,-3.8168,-3.8083,-3.7809,-3.765,-3.7541,-3.7357,-3.8236,-3.9355,-3.9045,-3.8654,-3.8274,-3.8145,-3.7826,-3.7542,-3.7703,-3.7246,-3.6721,-3.6721,-3.6512,-3.6301,-3.6301,-3.6128,-3.5921,-3.5697,-3.5232,-3.489,-3.489,-3.4172,-3.3653,-3.3731,0.0,0.0,0.0,-3.2266,0.0,-3.1356,-3.1171,-3.1131,-3.119,-3.0952,0.0,0.0,0.0,0.0,0.0,0.0,0.0,0.0,0.0,0.0,-3.5987,-3.5823,-3.5316,-3.4473,-3.3836,-3.3563,-3.3633,-3.3605,-3.3629,-3.3739,-3.378,-3.3807,-3.3807,-3.3807,-3.3807,-3.3807,-3.3807,-3.3807,-3.3807,-3.3807,-3.3807,-3.3807,-4.1915,-4.1915,-4.1986,-4.2095,-4.2122,-4.2176,-4.2293,-4.232,-4.2303,-4.2303,-4.2303,-4.232,-4.232,-4.2303,-4.2303,-4.2303,-4.1644,-4.1221,-4.1221,-4.0536,-4.013,0.0,0.0,-4.0062,-3.9943,-3.9668,-3.9455,-3.932,0.0,0.0,-3.7102,0.0,-3.6698,-3.7189,-3.7541,-3.7775,-3.7881,-3.7757,-3.7703,-3.7703,-3.7703,-3.7685,-3.7613,-3.7667,-3.7632,-3.7505,-3.7505,-3.7505,-3.7505,-3.7505,-3.7505,-3.7596,-3.7983,-3.8119,-3.8103,-3.8101,-3.7826,-3.7414,-3.7017,-3.6618,-3.6322,-3.6322,-3.6301,-3.6301,-3.6301,-3.5732,-3.5028,-3.4286,-3.413,-3.4113,-3.4113,-3.3455,-3.2921,-3.2921,0.0,0.0,0.0,-3.1479,0.0,-3.1479,-3.1151,-3.0992,-3.1171,-3.0773,0.0,0.0,0.0,0.0,0.0,0.0,0.0,-3.4005,-3.5074,0.0,-3.5011,-3.4957,-3.4517,-3.3716,-3.3633,-3.3629,-3.3698,-3.3766,-3.3807,-3.3807,-3.3807,-3.3807,-3.3807,-3.3807,-3.3807,-3.3807,-3.3807,-3.3807,-3.3807,-3.3807,-3.3807,-3.3807,-4.1777,-4.1777,-4.1805,-4.1925,-4.1953,-4.2007,-4.2142,-4.2169,-4.2028,-4.1583,-4.1542,-4.1356,-4.0874,-4.1238,-4.1542,0.0,-4.0865,-4.0468,0.0,-4.0147,-3.9741,-3.9244,-3.9423,-3.9289,-3.8738,-3.8963,-3.9022,-3.8893,0.0,0.0,0.0,-3.6387,-3.6454,-3.6917,-3.6841,-3.7054,-3.7431,-3.7468,-3.7505,-3.7578,-3.7578,-3.7559,-3.7523,-3.7559,-3.7542,-3.7469,-3.7189,-3.7283,-3.7469,-3.7189,-3.7094,-3.7152,-3.756,-3.7685,-3.7632,-3.7377,-3.7189,-3.7075,-3.6939,-3.6597,-3.6301,-3.6301,-3.5921,-3.5542,-3.5542,-3.4973,-3.4389,-3.4165,-3.3645,-3.3283,-3.3283,-3.2662,-3.2145,-3.2145,-3.1899,0.0,-3.18,0.0,-3.144,-3.1498,-3.1286,-3.1131,-3.119,-3.0952,0.0,0.0,0.0,0.0,0.0,0.0,0.0,0.0,-3.3765,0.0,-3.3847,-3.4239,-3.4197,-3.3766,-3.3698,-3.3671,-3.3698,-3.378,-3.3807,-3.3807,-3.3807,-3.3807,-3.3807,-3.3807,-3.3807,-3.3807,-3.3807,-3.3807,-3.3807,-3.3807,-3.3807,-3.3715,-4.0795,-4.0795,-4.085,-4.0969,-4.0996,-4.1023,-4.1184,-4.1211,-4.1069,-4.0693,-4.0626,-4.0457,-3.9994,-4.0365,0.0,-4.0781,-4.0079,-3.9614,-3.9614,-3.9236,-3.8882,-3.8589,-3.8778,-3.864,-3.8133,-3.8138,0.0,-3.7689,-3.709,-3.6625,-3.6329,-3.6241,-3.643,-3.6873,-3.6696,-3.6816,-3.7129,-3.7206,-3.7281,-3.7301,-3.7339,-3.7282,-3.7206,-3.7226,-3.7151,-3.7017,-3.6761,-3.6841,-3.7017,-3.6761,-3.6779,-3.6919,-3.7017,-3.7265,-3.7432,-3.7017,-3.69,-3.6808,-3.6369,-3.6076,-3.5818,-3.5542,-3.5128,-3.4697,-3.4404,-3.3973,-3.3559,-3.3283,-3.2835,-3.249,-3.249,-3.211,-3.18,-3.18,-3.18,-3.18,-3.18,0.0,-3.1576,0.0,0.0,0.0,0.0,-3.1092,-3.1012,0.0,0.0,0.0,0.0,0.0,0.0,-3.1598,-3.2929,0.0,-3.33,-3.3664,-3.3847,-3.3807,-3.3766,-3.3739,-3.3739,-3.378,-3.3807,-3.3807,-3.3807,-3.3807,-3.3807,-3.3807,-3.3807,-3.3807,-3.3807,-3.3807,-3.3752,-3.3458,-3.3348,-3.3238,-3.9149,-3.9149,-3.9193,0.0,-3.9418,0.0,-3.9651,-3.9677,-3.9661,-3.9636,-3.962,-3.9603,-3.9553,-3.9603,-3.9706,-3.9935,0.0,0.0,0.0,-3.796,-3.767,-3.8035,-3.8058,-3.7972,-3.7821,-3.7171,-3.6591,-3.6128,-3.5679,-3.5655,-3.6062,-3.6266,-3.6632,-3.7068,-3.7029,-3.7029,-3.7048,-3.7029,-3.7009,-3.6989,-3.7069,-3.693,-3.6684,-3.6733,-3.6553,-3.6301,-3.6301,-3.6322,-3.6343,-3.6343,-3.6577,-3.6821,-3.6402,-3.677,-3.7269,-3.689,-3.681,-3.6556,-3.5423,-3.5111,-3.4956,-3.4268,-3.4061,-3.382,-3.3007,-3.2817,-3.2628,-3.1938,-3.18,-3.18,-3.18,-3.18,-3.18,-3.18,-3.18,-3.18,-3.18,-3.18,-3.1707,0.0,0.0,0.0,0.0,-3.1171,-3.1171,0.0,0.0,0.0,0.0,0.0,-3.1738,-3.1553,-3.2474,-3.3047,-3.3194,-3.323,-3.3437,-3.3807,-3.3807,-3.3807,-3.3807,-3.3807,-3.3807,-3.3807,-3.3807,-3.3807,-3.3807,-3.3807,-3.3807,-3.3807,-3.3807,-3.377,-3.3623,-3.2876,-3.2564,-3.2399,0.0,0.0,-3.7798,-3.8387,-3.8513,-3.8747,-3.9428,-3.9554,-3.9389,-3.8924,-3.8857,-3.8639,-3.8095,-3.8505,-3.874,-3.8439,-3.8546,-3.8656,-3.8656,-3.7836,-3.7143,-3.6678,-3.6582,-3.6355,-3.5944,-3.6078,-3.6487,-3.722,-3.712,-3.7245,-3.7578,-3.7322,-3.7432,-3.7827,-3.7286,-3.7267,-3.7595,-3.745,-3.7189,-3.6917,-3.6937,-3.6736,-3.6402,-3.6406,-3.6385,-3.6301,-3.6301,-3.6512,-3.6759,-3.6759,-3.6821,-3.6792,-3.6136,-3.5843,-3.5742,-3.5642,-3.5824,-3.5805,-3.4681,-3.4372,-3.432,-3.4148,-3.3628,-3.299,-3.2231,-3.2059,-3.2007,-3.1834,-3.18,-3.18,-3.18,-3.18,-3.18,-3.18,-3.18,-3.18,-3.18,-3.167,-3.1538,0.0,-3.1346,-3.119,-3.0992,-3.0972,-3.0892,0.0,0.0,0.0,0.0,-3.094,-3.1122,-3.1061,-3.1464,-3.1857,-3.23,-3.2556,-3.3057,-3.3807,-3.3807,-3.3807,-3.3807,-3.3807,-3.3807,-3.3807,-3.3807,-3.3807,-3.3807,-3.3807,-3.3807,-3.3807,-3.3807,-3.3421,-3.2858,-3.2674,-3.221,-3.1568,-3.7102,-3.7102,-3.7235,-3.7649,-3.7996,-3.837,-3.8847,-3.8985,-3.8887,-3.8478,-3.8187,-3.7845,-3.7361,-3.7678,-3.7962,-3.802,-3.812,-3.8085,-3.7829,-3.7026,-3.6427,-3.6237,-3.6191,-3.6028,-3.5756,-3.6161,-3.6643,-3.7228,-3.7322,-3.7469,-3.7649,-3.7542,-3.7523,-3.7542,-3.7155,-3.7039,-3.7094,-3.6997,-3.6821,-3.6618,-3.6618,-3.6492,-3.6301,-3.6301,-3.6301,-3.6301,-3.6301,-3.6225,-3.6133,-3.6133,-3.5906,-3.554,-3.514,-3.4861,-3.4611,-3.4266,-3.4564,-3.4805,-3.3827,-3.3542,-3.3455,-3.3128,-3.2714,-3.2283,-3.1886,-3.18,-3.18,-3.18,-3.18,-3.18,-3.18,-3.18,-3.18,-3.18,-3.18,-3.18,-3.18,-3.1707,-3.1649,-3.1649,-3.15,-3.1329,-3.1232,-3.1154,-3.1018,-3.0882,-3.0855,0.0,-3.0814,-3.1052,-3.1032,-3.0733,-3.1032,-3.137,-3.1715,-3.2248,-3.2856,-3.3564,-3.3564,-3.3652,-3.3807,-3.3766,-3.3753,-3.3753,-3.3753,-3.3753,-3.3766,-3.3793,-3.3587,-3.3256,-3.3256,-3.2761,-3.2008,-3.1641,-3.1237,-3.0742,-3.6771,-3.687,-3.6986,-3.7085,-3.7715,-3.8245,-3.8361,-3.8426,-3.8344,-3.8072,-3.7536,-3.7095,-3.6812,-3.6986,-3.7268,-3.7733,-3.7686,-3.7458,-3.6965,-3.6027,-3.5672,-3.6088,-3.6131,-3.6152,-3.6195,-3.6597,-3.6805,-3.6831,-3.6986,-3.7101,-3.7176,-3.7396,-3.7321,-3.6997,-3.6997,-3.6801,-3.6492,-3.6492,-3.6451,-3.6388,-3.6388,-3.6346,-3.6284,-3.618,-3.6128,-3.6111,-3.6008,-3.5559,-3.5025,-3.5025,-3.4631,-3.4079,-3.3975,-3.3923,-3.3749,-3.2972,-3.3214,-3.3613,-3.2921,-3.2731,-3.2576,-3.1955,-3.18,-3.18,-3.18,-3.18,-3.18,-3.18,-3.18,-3.18,-3.18,-3.18,-3.18,-3.18,-3.18,-3.18,-3.18,0.0,-3.18,-3.18,-3.1709,-3.1617,-3.1596,-3.1428,-3.1332,-3.1293,-3.1232,-3.119,-3.119,-3.1346,-3.119,-3.063,-3.1055,-3.137,-3.1529,-3.2161,-3.2747,-3.3306,-3.3306,-3.3451,-3.3707,-3.3726,-3.3684,-3.3643,-3.3684,-3.3712,-3.3726,-3.3652,-3.322,-3.2583,-3.2472,-3.1935,-3.114,-3.0448,-3.0118,-2.9922,-3.5247,-3.5744,-3.6373,-3.7003,-3.7715,-3.8411,-3.9033,-3.8619,-3.8006,-3.7367,-3.6663,-3.5975,-3.5297,-3.6357,-3.673,-3.584,-3.679,-3.7344,-3.7087,-3.5765,-3.5048,-3.5118,-3.5344,-3.5526,-3.5694,-3.6156,-3.6557,-3.6882,-3.6921,-3.7097,-3.7451,-3.7469,-3.7469,-3.7414,-3.7414,-3.7377,-3.7303,-3.7303,-3.7132,-3.6801,-3.6801,-3.6597,-3.6232,-3.5611,-3.537,-3.5283,-3.4683,-3.4372,-3.4268,-3.4268,-3.4199,-3.3992,-3.33,-3.3093,-3.2938,-3.2179,-3.2059,-3.2127,-3.199,-3.1972,-3.1938,-3.1834,-3.18,-3.18,-3.18,-3.18,-3.18,-3.18,-3.18,-3.18,-3.18,-3.18,-3.18,-3.18,-3.18,-3.18,-3.18,0.0,-3.18,-3.18,-3.1781,-3.1707,-3.1519,-3.1498,-3.1404,-3.123,-3.121,-3.119,-3.119,-3.123,-3.119,-3.1092,-3.15,-3.1839,-3.2144,-3.2266,-3.2651,-3.3306,-3.3306,-3.3306,-3.3302,-3.362,-3.3611,-3.3306,-3.3638,-3.3793,-3.3738,-3.306,-3.2711,-3.2528,-3.1843,-3.1091,-3.0375,-3.0246,-2.9757,-2.917,-3.6009,-3.6357,-3.6704,-3.7052,-3.7715,-3.8195,-3.8112,-3.7917,-3.7461,-3.6605,-3.5998,-3.5495,-3.5161,-3.5728,-3.6107,-3.6064,-3.6276,-3.6565,-3.6855,-3.6024,-3.5538,-3.565,-3.5761,-3.5963,-3.6291,-3.6721,-3.7133,-3.7542,-3.7756,-3.7965,-3.8153,-3.8153,-3.8034,-3.7808,-3.7596,-3.7395,-3.7135,-3.6519,-3.6147,-3.5951,-3.5533,-3.5295,-3.5076,-3.4731,-3.4594,-3.4562,-3.4234,-3.3818,-3.3455,-3.3455,-3.3179,-3.28,-3.2421,-3.2317,-3.2231,-3.1903,-3.18,-3.18,-3.18,-3.18,-3.1818,-3.1856,-3.1839,-3.1839,-3.1839,-3.1911,-3.1929,-3.1874,-3.1839,-3.1839,-3.1839,-3.1819,-3.18,-3.18,-3.18,0.0,0.0,-3.18,-3.18,-3.18,-3.1744,-3.1653,-3.1559,-3.1464,-3.1349,-3.1271,-3.123,-3.1249,-3.1363,-3.1346,-3.1404,-3.1519,-3.15,-3.1596,-3.1874,-3.1874,-3.2179,-3.2749,-3.2749,-3.2923,-3.3258,-3.3408,-3.3465,-3.3447,-3.3214,-3.3098,-3.3025,-3.2271,-3.1696,-3.1274,-3.0889,-3.0265,-2.9537,-2.9537,-2.9317,-2.9005,-3.7003,-3.7251,-3.7317,-3.7186,-3.7775,-3.805,-3.7378,-3.7243,-3.6974,-3.6254,-3.572,-3.5383,-3.5383,-3.5518,-3.5839,-3.6394,-3.6073,-3.6051,-3.6525,-3.6195,-3.6067,-3.6262,-3.6412,-3.6661,-3.7036,-3.734,-3.756,-3.7677,-3.7996,-3.8052,-3.787,-3.7772,-3.7575,-3.727,-3.688,-3.6545,-3.6199,-3.5324,-3.4938,-3.4887,-3.4337,-3.4113,-3.4079,-3.3886,-3.3818,-3.3783,-3.363,-3.3162,-3.2645,-3.2645,-3.2265,-3.18,-3.18,-3.18,-3.18,-3.18,-3.18,-3.18,-3.18,-3.18,-3.1801,-3.1857,-3.1875,-3.1875,-3.1875,-3.1965,-3.2001,-3.1893,-3.1875,-3.1875,-3.1875,-3.1838,-3.18,-3.18,0.0,0.0,0.0,-3.18,-3.18,-3.18,-3.1709,-3.1653,-3.1653,-3.1504,-3.1428,-3.1428,-3.1368,-3.1404,-3.1557,-3.1574,-3.1632,-3.18,-3.15,-3.1404,-3.1574,-3.1574,-3.1819,-3.2301,-3.2369,-3.2651,-3.3154,-3.3081,-3.3139,-3.3273,-3.2551,-3.2248,-3.2193,-3.1433,-3.076,-3.0173,-2.9989,-2.9537,-2.9005,-2.9005,-2.9005,-2.9005,-3.7102,-3.7665,-3.7949,-3.7461,-3.7978,-3.8313,-3.7819,-3.7199,-3.6726,-3.6652,-3.6033,-3.5577,-3.5577,-3.6185,-3.636,-3.5735,-3.6265,-3.6457,-3.6073,-3.6031,-3.6049,-3.6211,-3.6733,-3.7175,-3.745,-3.7469,-3.7148,-3.6435,-3.6452,-3.6095,-3.5363,-3.5048,-3.4884,-3.4848,-3.4488,-3.433,-3.4291,-3.4217,-3.4182,-3.4182,-3.413,-3.4113,-3.4027,-3.3266,-3.299,-3.2904,-3.2214,-3.1921,-3.1869,-3.1869,-3.1834,-3.18,-3.18,-3.18,-3.18,-3.18,-3.18,-3.18,-3.18,-3.18,-3.18,-3.1818,-3.1818,-3.1818,-3.1818,-3.1818,-3.1818,-3.1818,-3.1818,-3.1818,-3.1818,-3.18,-3.18,-3.18,0.0,0.0,-3.18,-3.18,-3.18,-3.18,-3.18,-3.18,-3.18,-3.1764,-3.1746,-3.1746,-3.1763,-3.1763,-3.1781,-3.1781,-3.1781,-3.18,-3.1781,-3.1763,-3.1781,-3.1781,-3.1965,-3.2301,-3.2554,-3.2702,-3.2731,-3.2607,-3.2406,-3.2108,-3.167,-3.1476,-3.1421,-3.0613,-3.0246,-3.0136,-2.9372,-2.906,-2.9005,-2.9005,-2.9005,-2.9005,-3.744,-3.7776,-3.7901,-3.7696,-3.7864,-3.7846,-3.7222,-3.6891,-3.6552,-3.6073,-3.5769,-3.5667,-3.5822,-3.61,-3.62,-3.6058,-3.6302,-3.6397,-3.6191,-3.643,-3.6474,-3.6266,-3.6047,-3.5983,-3.6079,-3.5873,-3.5614,-3.5313,-3.5527,-3.5453,-3.5167,-3.5029,-3.496,-3.496,-3.4617,-3.4466,-3.443,-3.3658,-3.3352,-3.3317,-3.2852,-3.2662,-3.2628,-3.2334,-3.2214,-3.2179,-3.1903,-3.18,-3.18,-3.18,-3.18,-3.18,-3.18,-3.18,-3.18,-3.18,-3.18,-3.18,-3.18,-3.18,-3.1818,-3.1839,-3.1857,-3.1857,-3.1857,-3.1929,-3.1965,-3.1875,-3.1857,-3.1857,-3.1857,-3.1819,-3.18,-3.18,0.0,-3.18,-3.18,-3.18,-3.18,-3.18,-3.18,-3.18,-3.18,-3.18,-3.18,-3.18,-3.18,-3.18,-3.18,-3.18,-3.18,-3.18,-3.18,-3.18,-3.18,-3.2019,-3.2162,-3.2301,-3.2107,-3.2036,-3.2065,-3.1679,-3.1456,-3.1347,-3.0874,-3.065,-3.0595,-2.9787,-2.9464,-2.9427,-2.9115,-2.9005,-2.9005,-2.9005,-2.9005,-2.9005,-3.7713,-3.7814,-3.7753,-3.7604,-3.7577,-3.7346,-3.6673,-3.6576,-3.6389,-3.5873,-3.5805,-3.5893,-3.6084,-3.6088,-3.6152,-3.6301,-3.6409,-3.6388,-3.6142,-3.6262,-3.6324,-3.6332,-3.5599,-3.5198,-3.5198,-3.5082,-3.4888,-3.464,-3.4959,-3.5011,-3.4758,-3.4647,-3.4598,-3.46,-3.425,-3.4094,-3.4041,-3.3102,-3.271,-3.2658,-3.2062,-3.18,-3.18,-3.18,-3.18,-3.18,-3.18,-3.18,-3.18,-3.18,-3.18,-3.18,-3.18,-3.18,-3.18,-3.18,-3.18,-3.18,-3.18,-3.18,-3.1818,-3.1857,-3.1875,-3.1875,-3.1875,-3.1947,-3.1983,-3.1875,-3.1875,-3.1875,-3.1875,-3.1838,-3.18,-3.18,-3.18,-3.18,-3.18,-3.18,-3.18,-3.18,-3.18,-3.18,-3.18,-3.18,-3.18,-3.18,-3.18,-3.18,-3.18,-3.18,-3.18,-3.18,-3.1576,-3.1438,-3.1438,-3.1672,-3.1777,-3.1725,-3.1273,-3.1155,-3.1308,-3.0782,-3.06,-3.0722,-3.01,-2.9824,-2.9776,-2.9225,-2.9005,-2.9005,-2.9005,-2.9005,-2.9005,-2.9005,-2.9005,-2.9005,-3.7797,-3.7797,-3.7631,-3.7194,-3.708,-3.6913,-3.6379,-3.6301,-3.6301,-3.6301,-3.6301,-3.6301,-3.6301,-3.6322,-3.6322,-3.6322,-3.6678,-3.6547,-3.5754,-3.5314,-3.5472,-3.6345,-3.5612,-3.52,-3.52,-3.5512,-3.5289,-3.4495,-3.4826,-3.4582,-3.3775,-3.3451,-3.3306,-3.3291,-3.2937,-3.2795,-3.2779,-3.2453,-3.2301,-3.2266,-3.1947,-3.18,-3.18,-3.18,-3.18,-3.18,-3.18,-3.18,-3.18,-3.18,-3.18,-3.18,-3.18,-3.18,-3.18,-3.18,-3.18,-3.18,-3.18,-3.18,-3.18,-3.18,-3.18,-3.18,-3.18,-3.18,-3.18,-3.18,-3.18,-3.18,-3.18,-3.18,-3.18,-3.18,-3.18,-3.18,-3.18,-3.18,-3.18,-3.18,-3.18,-3.18,-3.18,-3.18,-3.18,-3.18,-3.18,-3.18,-3.1783,-3.1783,-3.1783,-3.1783,-3.1058,-3.0697,-3.0697,-3.0697,-3.0626,-3.0501,-3.0089,-3.011,-3.0475,-2.9948,-2.988,-3.0143,-2.9354,-2.9005,-2.9005,-2.9005,-2.9005,-2.9005,-2.9005,-2.9005,-2.9005,-2.9005,-2.9005,-2.9005,-3.6757,-3.6757,-3.671,-3.6552,-3.6539,-3.6474,-3.6314,-3.6301,-3.6301,-3.6301,-3.6553,-3.6719,-3.6719,-3.6978,-3.7151,-3.7151,-3.6731,-3.6148,-3.5314,-3.4674,-3.4438,-3.4704,-3.449,-3.4365,-3.4365,-3.389,-3.356,-3.3311,-3.3404,-3.3324,-3.309,-3.3001,-3.2937,-3.2937,-3.2842,-3.2795,-3.2795,-3.27,-3.252,-3.2283,-3.2179,-3.2002,-3.18,-3.18,-3.18,-3.18,-3.18,-3.18,-3.18,-3.18,-3.18,-3.18,-3.18,-3.18,-3.18,-3.18,-3.18,-3.18,-3.18,-3.18,-3.18,-3.18,-3.18,-3.18,-3.18,-3.18,-3.18,-3.18,-3.18,-3.18,-3.18,-3.18,-3.18,-3.18,-3.18,-3.18,-3.18,-3.18,-3.18,-3.18,-3.18,-3.18,-3.18,-3.18,-3.18,-3.18,-3.18,-3.1576,-3.1059,-3.1024,-3.0765,-3.0213,-2.9972,-2.9937,-3.0073,-3.0402,-3.0545,-3.0511,-3.0244,-3.0057,-2.9994,-2.9446,-2.9156,-2.9071,-2.9027,-2.9005,-2.9005,-2.9005,-2.9005,-2.9005,-2.9005,-2.9005,-2.9005,-2.9005,-2.9005,-2.9005,-3.6301,-3.6301,-3.6301,-3.6301,-3.643,-3.6553,-3.6553,-3.6678,-3.6761,-3.6761,-3.6997,-3.7151,-3.7151,-3.7358,-3.738,-3.7059,-3.6147,-3.544,-3.5067,-3.4341,-3.3924,-3.3924,-3.3924,-3.38,-3.3544,-3.319,-3.3001,-3.3001,-3.3139,-3.3199,-3.3199,-3.3199,-3.3199,-3.3181,-3.3063,-3.3001,-3.2968,-3.2716,-3.2487,-3.2283,-3.2161,-3.1966,-3.18,-3.18,-3.18,-3.18,-3.18,-3.18,-3.18,-3.18,-3.18,-3.18,-3.18,-3.18,-3.18,-3.18,-3.18,-3.18,-3.18,-3.18,-3.18,-3.18,-3.18,-3.18,-3.18,-3.18,-3.18,-3.18,-3.18,-3.18,-3.18,-3.18,-3.18,-3.18,-3.18,-3.18,-3.18,-3.18,-3.18,-3.18,-3.18,-3.18,-3.18,-3.18,-3.1679,-3.1386,-3.1076,-3.0696,-3.0248,-3.0231,-3.0006,-2.9523,-2.923,-2.9125,-2.9257,-2.9323,-2.9565,-2.9938,-2.9463,-2.9243,-2.9313,-2.8856,-2.8688,-2.8767,-2.8929,-2.9005,-2.9005,-2.9005,-2.9005,-2.9005,-2.9005,-2.9005,-2.9005,-2.9005,-2.9005,-2.9005,-3.6364,-3.6346,-3.6346,-3.6346,-3.6658,-3.69,-3.69,-3.7189,-3.7377,-3.7377,-3.7469,-3.747,-3.7398,-3.7452,-3.7184,-3.6362,-3.5213,-3.4636,-3.4866,-3.4211,-3.3807,-3.3807,-3.3807,-3.3522,-3.2905,-3.3184,-3.335,-3.335,-3.3652,-3.3807,-3.3807,-3.3807,-3.3807,-3.3793,-3.348,-3.335,-3.3288,-3.2684,-3.2386,-3.2318,-3.202,-3.1838,-3.18,-3.18,-3.18,-3.18,-3.18,-3.18,-3.18,-3.18,-3.18,-3.18,-3.18,-3.18,-3.18,-3.18,-3.18,-3.18,-3.18,-3.18,-3.18,-3.18,-3.18,-3.18,-3.18,-3.18,-3.18,-3.18,-3.18,-3.18,-3.18,-3.18,-3.18,-3.18,-3.18,-3.18,-3.18,-3.1731,-3.1696,-3.1696,-3.1627,-3.1593,-3.1593,-3.1593,-3.1317,-3.0645,-2.992,-2.9472,-2.942,-2.9403,-2.9368,-2.9317,-2.8661,-2.8315,-2.8332,-2.7855,-2.8076,-2.8953,-2.8164,-2.8055,-2.8576,-2.829,-2.8476,-2.9005,-2.9005,-2.9005,-2.9005,-2.8994,-2.8994,-2.9005,-2.8994,-2.8994,-2.8994,-2.9005,-2.8994,-2.8994,-3.6719,-3.6761,-3.6761,-3.6761,-3.6841,-3.69,-3.69,-3.6719,-3.6557,-3.6557,-3.7113,-3.7255,-3.6631,-3.711,-3.7174,-3.6374,-3.5447,-3.4659,-3.4087,-3.3899,-3.3807,-3.3807,-3.3807,-3.3734,-3.3578,-3.3648,-3.3694,-3.3694,-3.3762,-3.3807,-3.3807,-3.3807,-3.3807,-3.3807,-3.3721,-3.3694,-3.368,-3.3536,-3.3184,-3.27,-3.2601,-3.2266,-3.18,-3.18,-3.18,-3.18,-3.18,-3.18,-3.18,-3.18,-3.18,-3.18,-3.18,-3.18,-3.18,-3.18,-3.18,-3.18,-3.18,-3.18,-3.18,-3.18,-3.18,-3.18,-3.18,-3.18,-3.18,-3.18,-3.18,-3.18,-3.18,-3.18,-3.18,-3.18,-3.18,-3.18,-3.18,-3.13,-3.0938,-3.0938,-3.0386,-3.0006,-3.0006,-3.0006,-2.9937,-2.9782,-2.961,-2.9248,-2.8678,-2.8644,-2.8368,-2.7799,-2.7609,-2.7617,-2.7783,-2.7874,-2.7914,-2.7929,-2.8132,-2.8316,-2.8446,-2.8682,-2.8881,-2.9005,-2.9005,-2.9005,-2.8994,-2.894,-2.8952,-2.8994,-2.894,-2.8917,-2.8929,-2.8982,-2.897,-2.894,-3.6557,-3.6618,-3.6618,-3.6618,-3.6939,-3.7189,-3.7189,-3.7322,-3.7433,-3.7433,-3.7467,-3.7344,-3.6928,-3.6915,-3.6578,-3.5752,-3.4912,-3.4252,-3.3825,-3.3807,-3.3807,-3.3807,-3.3807,-3.3807,-3.3807,-3.3807,-3.3807,-3.3807,-3.3807,-3.3807,-3.3807,-3.3807,-3.3807,-3.3775,-3.3638,-3.355,-3.3536,-3.3364,-3.3078,-3.2749,-3.2718,-3.2487,-3.2161,-3.1984,-3.193,-3.1947,-3.1744,-3.1688,-3.1709,-3.1781,-3.18,-3.18,-3.18,-3.18,-3.18,-3.18,-3.18,-3.18,-3.18,-3.18,-3.18,-3.18,-3.1541,-3.1369,-3.1714,-3.18,-3.18,-3.18,-3.18,-3.1679,-3.1334,-3.1265,-3.1145,-3.0765,-3.0696,-3.0696,-3.0696,-3.0368,-3.0127,-3.0127,-2.9765,-2.9506,-2.9506,-2.9179,-2.8989,-2.8989,-2.8661,-2.8282,-2.7902,-2.7868,-2.7696,-2.7299,-2.7392,-2.7481,-2.76,-2.7844,-2.7883,-2.7757,-2.8215,-2.8533,-2.8682,-2.8779,-2.887,-2.894,-2.894,-2.8929,-2.8893,-2.887,-2.887,-2.8912,-2.8858,-2.8858,-2.8858,-2.8952,-2.901,-2.9012,-3.6301,-3.647,-3.6597,-3.6597,-3.717,-3.7596,-3.7596,-3.8101,-3.8462,-3.8316,-3.7775,-3.7293,-3.7018,-3.6311,-3.5587,-3.4857,-3.4192,-3.3807,-3.3807,-3.3807,-3.3807,-3.3807,-3.3807,-3.3807,-3.3807,-3.3807,-3.3807,-3.3807,-3.3807,-3.3807,-3.3807,-3.3807,-3.3807,-3.3793,-3.3508,-3.3394,-3.3364,-3.3034,-3.2829,-3.2798,-3.2654,-3.2571,-3.2488,-3.2074,-3.1984,-3.2055,-3.1651,-3.1576,-3.1635,-3.1746,-3.18,-3.18,-3.18,-3.18,-3.18,-3.18,-3.1714,-3.161,-3.161,-3.1507,-3.1403,-3.1403,-3.0938,-3.0662,-3.1265,-3.1403,-3.1403,-3.1403,-3.1403,-3.1214,-3.061,-3.0489,-3.0282,-2.961,-2.9506,-2.9506,-2.9506,-2.9403,-2.9317,-2.9317,-2.9213,-2.9127,-2.9127,-2.8575,-2.8213,-2.8213,-2.7644,-2.7299,-2.7299,-2.7299,-2.7282,-2.7266,-2.7465,-2.7569,-2.7539,-2.7829,-2.7954,-2.7968,-2.8344,-2.8657,-2.8893,-2.8731,-2.8743,-2.8893,-2.8893,-2.8846,-2.8798,-2.8785,-2.8798,-2.8822,-2.8822,-2.8834,-2.8839,-2.8828,-2.8898,-2.8878,-3.6308,-3.7184,-3.7861,-3.7861,-3.7948,-3.8017,-3.8017,-3.7826,-3.7417,-3.6719,-3.6829,-3.6445,-3.5054,-3.4465,-3.4082,-3.3972,-3.3862,-3.3807,-3.3807,-3.3807,-3.3807,-3.3807,-3.3807,-3.3807,-3.3807,-3.3807,-3.3807,-3.3807,-3.3807,-3.3807,-3.3807,-3.3807,-3.3807,-3.3807,-3.3748,-3.3734,-3.3721,-3.3611,-3.3422,-3.3169,-3.2768,-3.2454,-3.2197,-3.1746,-3.1615,-3.1673,-3.1615,-3.1671,-3.1781,-3.18,-3.18,-3.18,-3.18,-3.18,-3.18,-3.18,-3.1334,-3.0852,-3.0852,-3.0334,-2.9817,-2.9817,-2.9748,-2.9696,-2.9799,-2.9817,-2.9817,-2.9817,-2.9817,-2.9782,-2.9679,-2.9661,-2.9627,-2.9523,-2.9506,-2.9506,-2.9506,-2.8954,-2.8558,-2.8558,-2.7989,-2.7592,-2.7592,-2.7506,-2.7437,-2.7437,-2.7351,-2.7299,-2.7299,-2.7299,-2.725,-2.7135,-2.7417,-2.7524,-2.7334,-2.7929,-2.8224,-2.8156,-2.8513,-2.8589,-2.8407,-2.8725,-2.8827,-2.881,-2.881,-2.881,-2.8785,-2.8749,-2.8822,-2.897,-2.8905,-2.8964,-2.8982,-2.8301,-2.8107,-2.8061,-3.5633,-3.6075,-3.6571,-3.702,-3.7281,-3.7431,-3.7431,-3.7464,-3.7209,-3.6395,-3.603,-3.5556,-3.4863,-3.4188,-3.3807,-3.3807,-3.3807,-3.3807,-3.3807,-3.3807,-3.3807,-3.3807,-3.3807,-3.3807,-3.3807,-3.3807,-3.3807,-3.3807,-3.3807,-3.3807,-3.3807,-3.3807,-3.3807,-3.3807,-3.3807,-3.3807,-3.3775,-3.3526,-3.3353,-3.322,-3.2768,-3.2521,-3.2369,-3.1893,-3.1784,-3.1804,-3.1637,-3.1635,-3.1709,-3.1764,-3.18,-3.1731,-3.1317,-3.1197,-3.1093,-3.0644,-3.0282,-3.0024,-3.0024,-2.9782,-2.9506,-2.9506,-2.9196,-2.8885,-2.8885,-2.8575,-2.8506,-2.9334,-2.9506,-2.9368,-2.8972,-2.8885,-2.8747,-2.8334,-2.8265,-2.8265,-2.8265,-2.7989,-2.7782,-2.7782,-2.7489,-2.7299,-2.7299,-2.7299,-2.7299,-2.7299,-2.7299,-2.7299,-2.7299,-2.7233,-2.7168,-2.7103,-2.7491,-2.7672,-2.758,-2.821,-2.8518,-2.8482,-2.8743,-2.8767,-2.8601,-2.8767,-2.8846,-2.8858,-2.8858,-2.887,-2.8912,-2.8881,-2.8917,-2.8994,-2.897,-2.875,-2.8395,-2.7574,-2.7358,-2.7335]},{"header":{"parameterUnit":"m.s-1","parameterCategory":1,"la1":30.6,"la2":28.766,"lo1":-90.7593,"lo2":-88.6598,"dy":0.0162,"dx":0.0183,"nx":116,"ny":114,"refTime":"2023-08-02T18:00:00:Z","depth":0,"parameterNumber":3,"parameterNumberName":"V-component_of_WINDS"},"data":[0.0,0.0,0.0,0.0,0.0,0.0,0.0,0.0,0.0,0.0,0.0,0.0,0.0,0.0,0.0,0.0,0.0,0.0,0.0,0.0,0.0,0.0,0.0,0.0,0.0,0.0,0.0,0.0,0.0,0.0,0.0,0.0,0.0,0.0,0.0,0.0,0.0,0.0,0.0,0.0,0.0,0.0,0.0,0.0,0.0,0.0,0.0,0.0,0.0,0.0,0.0,0.0,0.0,0.0,0.0,0.0,0.0,0.0,0.0,0.0,0.0,0.0,0.0,0.0,0.0,0.0,0.0,0.0,0.0,0.0,0.0,0.0,0.0,0.0,0.0,0.0,0.0,0.0,0.0,0.0,0.0,0.0,0.0,0.0,0.0,0.0,0.0,0.0,0.0,0.0,0.0,0.0,0.0,0.0,0.0,0.0,0.0,0.0,0.0,0.0,0.0,0.0,0.0,0.0,0.0,0.0,0.0,0.0,0.0,0.0,0.0,0.0,0.0,0.0,0.0,0.0,0.0,0.0,0.0,0.0,0.0,0.0,0.0,0.0,0.0,0.0,0.0,0.0,0.0,0.0,0.0,0.0,0.0,0.0,0.0,0.0,0.0,0.0,0.0,0.0,0.0,0.0,0.0,0.0,0.0,0.0,0.0,0.0,0.0,0.0,0.0,0.0,0.0,0.0,0.0,0.0,0.0,0.0,0.0,0.0,0.0,0.0,0.0,0.0,0.0,0.0,0.0,0.0,0.0,0.0,0.0,0.0,0.0,0.0,0.0,0.0,0.0,0.0,0.0,0.0,0.0,0.0,0.0,0.0,0.0,0.0,0.0,0.0,0.0,0.0,0.0,0.0,0.0,0.0,0.0,0.0,0.0,0.0,0.0,0.0,0.0,0.0,0.0,0.0,0.0,0.0,0.0,0.0,0.0,0.0,0.0,0.0,0.0,0.0,0.0,0.0,0.0,0.0,0.0,0.0,0.0,0.0,0.0,0.0,0.0,0.0,0.0,0.0,0.0,0.0,0.0,0.0,0.0,0.0,0.0,0.0,0.0,0.0,0.0,0.0,0.0,0.0,0.0,0.0,0.0,0.0,0.0,0.0,0.0,0.0,0.0,0.0,0.0,0.0,0.0,0.0,0.0,0.0,0.0,0.0,0.0,0.0,0.0,0.0,0.0,0.0,0.0,0.0,0.0,0.0,0.0,0.0,0.0,0.0,0.0,0.0,0.0,0.0,0.0,0.0,0.0,0.0,0.0,0.0,0.0,0.0,0.0,0.0,0.0,0.0,0.0,0.0,0.0,0.0,0.0,0.0,0.0,0.0,0.0,0.0,0.0,0.0,0.0,0.0,0.0,0.0,0.0,0.0,0.0,0.0,0.0,0.0,0.0,0.0,0.0,0.0,0.0,0.0,0.0,0.0,0.0,0.0,0.0,0.0,0.0,0.0,0.0,0.0,0.0,0.0,0.0,0.0,0.0,0.0,0.0,0.0,0.0,0.0,0.0,0.0,0.0,0.0,0.0,0.0,0.0,0.0,0.0,0.0,0.0,0.0,0.0,0.0,0.0,0.0,0.0,0.0,0.0,0.0,0.0,0.0,0.0,0.0,0.0,0.0,0.0,0.0,0.0,0.0,0.0,0.0,0.0,0.0,0.0,0.0,0.0,0.0,0.0,0.0,0.0,0.0,0.0,0.0,0.0,0.0,0.0,0.0,0.0,0.0,0.0,0.0,0.0,0.0,0.0,0.0,0.0,0.0,0.0,0.0,0.0,0.0,0.0,0.0,0.0,0.0,0.0,0.0,0.0,0.0,0.0,0.0,0.0,0.0,0.0,0.0,0.0,0.0,0.0,0.0,0.0,0.0,0.0,0.0,0.0,0.0,0.0,0.0,0.0,0.0,0.0,0.0,0.0,0.0,0.0,0.0,0.0,0.0,0.0,0.0,0.0,0.0,0.0,0.0,0.0,0.0,0.0,0.0,0.0,0.0,0.0,0.0,0.0,0.0,0.0,0.0,0.0,0.0,0.0,0.0,0.0,0.0,0.0,0.0,0.0,0.0,0.0,0.0,0.0,0.0,0.0,0.0,0.0,0.0,0.0,0.0,0.0,0.0,0.0,0.0,0.0,0.0,0.0,0.0,0.0,0.0,0.0,0.0,0.0,0.0,0.0,0.0,0.0,0.0,0.0,0.0,0.0,0.0,0.0,0.0,0.0,0.0,0.0,0.0,0.0,0.0,0.0,0.0,0.0,0.0,0.0,0.0,0.0,0.0,0.0,0.0,0.0,0.0,0.0,0.0,0.0,0.0,0.0,0.0,0.0,0.0,0.0,0.0,0.0,0.0,0.0,0.0,0.0,0.0,0.0,0.0,0.0,0.0,0.0,0.0,0.0,0.0,0.0,0.0,0.0,0.0,0.0,0.0,0.0,0.0,0.0,0.0,0.0,0.0,0.0,0.0,0.0,0.0,0.0,0.0,0.0,0.0,0.0,0.0,0.0,0.0,0.0,0.0,0.0,0.0,0.0,0.0,0.0,0.0,0.0,0.0,0.0,0.0,0.0,0.0,0.0,0.0,0.0,0.0,0.0,0.0,0.0,0.0,0.0,0.0,0.0,0.0,0.0,0.0,0.0,0.0,0.0,0.0,0.0,0.0,0.0,0.0,0.0,0.0,0.0,0.0,0.0,0.0,0.0,0.0,0.0,0.0,0.0,0.0,0.0,0.0,0.0,0.0,0.0,0.0,0.0,0.0,0.0,0.0,0.0,0.0,0.0,0.0,0.0,0.0,0.0,0.0,0.0,0.0,0.0,0.0,0.0,0.0,0.0,0.0,0.0,0.0,0.0,0.0,0.0,0.0,0.0,0.0,0.0,0.0,0.0,0.0,0.0,0.0,0.0,0.0,0.0,0.0,0.0,0.0,0.0,0.0,0.0,0.0,0.0,0.0,0.0,0.0,0.0,0.0,0.0,0.0,0.0,0.0,0.0,0.0,0.0,0.0,0.0,0.0,0.0,0.0,0.0,0.0,0.0,0.0,0.0,0.0,0.0,0.0,0.0,0.0,0.0,0.0,0.0,0.0,0.0,0.0,0.0,0.0,0.0,0.0,0.0,0.0,0.0,0.0,0.0,0.0,0.0,0.0,0.0,0.0,0.0,0.0,0.0,0.0,0.0,0.0,0.0,0.0,0.0,0.0,0.0,0.0,0.0,0.0,0.0,0.0,0.0,0.0,0.0,0.0,0.0,0.0,0.0,0.0,0.0,0.0,0.0,0.0,0.0,0.0,0.0,0.0,0.0,0.0,0.0,0.0,0.0,0.0,0.0,0.0,0.0,0.0,0.0,0.0,0.0,0.0,0.0,0.0,0.0,0.0,0.0,0.0,0.0,0.0,0.0,0.0,0.0,0.0,0.0,0.0,0.0,0.0,0.0,0.0,0.0,0.0,0.0,0.0,0.0,0.0,0.0,0.0,0.0,0.0,0.0,0.0,0.0,0.0,0.0,0.0,0.0,0.0,0.0,0.0,0.0,0.0,0.0,0.0,0.0,0.0,0.0,0.0,0.0,0.0,0.0,0.0,0.0,0.0,0.0,0.0,0.0,0.0,0.0,0.0,0.0,0.0,0.0,0.0,0.0,0.0,0.0,0.0,0.0,0.0,0.0,0.0,0.0,0.0,0.0,0.0,0.0,0.0,0.0,0.0,0.0,0.0,0.0,0.0,0.0,0.0,0.0,0.0,0.0,0.0,0.0,0.0,0.0,0.0,0.0,0.0,0.0,0.0,0.0,0.0,0.0,0.0,0.0,0.0,0.0,0.0,0.0,0.0,0.0,0.0,0.0,0.0,0.0,0.0,0.0,0.0,0.0,0.0,0.0,0.0,0.0,0.0,0.0,0.0,0.0,0.0,0.0,0.0,0.0,0.0,0.0,0.0,0.0,0.0,0.0,0.0,0.0,0.0,0.0,0.0,0.0,0.0,0.0,0.0,0.0,0.0,0.0,0.0,0.0,0.0,0.0,0.0,0.0,0.0,0.0,0.0,0.0,0.0,0.0,0.0,0.0,0.0,0.0,0.0,0.0,0.0,0.0,0.0,0.0,0.0,0.0,0.0,0.0,0.0,0.0,0.0,0.0,0.0,0.0,0.0,0.0,0.0,0.0,0.0,0.0,0.0,0.0,0.0,0.0,0.0,0.0,0.0,0.0,0.0,0.0,0.0,0.0,0.0,0.0,0.0,0.0,0.0,0.0,0.0,0.0,0.0,0.0,0.0,0.0,0.0,0.0,0.0,0.0,0.0,0.0,0.0,0.0,0.0,0.0,0.0,0.0,0.0,0.0,0.0,0.0,0.0,0.0,0.0,0.0,0.0,0.0,0.0,0.0,0.0,0.0,0.0,0.0,0.0,0.0,0.0,0.0,0.0,0.0,0.0,0.0,0.0,0.0,0.0,0.0,0.0,0.0,0.0,0.0,0.0,0.0,0.0,0.0,0.0,0.0,0.0,0.0,0.0,0.0,0.0,0.0,0.0,0.0,0.0,0.0,0.0,0.0,0.0,0.0,0.0,0.0,0.0,0.0,0.0,0.0,0.0,0.0,0.0,0.0,0.0,0.0,0.0,0.0,0.0,0.0,0.0,0.0,0.0,0.0,0.0,0.0,0.0,0.0,0.0,0.0,0.0,0.0,0.0,0.0,0.0,0.0,0.0,0.0,0.0,0.0,0.0,0.0,0.0,0.0,0.0,0.0,0.0,0.0,0.0,0.0,0.0,0.0,0.0,0.0,0.0,0.0,0.0,0.0,0.0,0.0,0.0,0.0,0.0,0.0,0.0,0.0,0.0,0.0,0.0,0.0,0.0,0.0,0.0,0.0,0.0,0.0,0.0,0.0,0.0,0.0,0.0,0.0,0.0,0.0,0.0,0.0,0.0,0.0,0.0,0.0,0.0,0.0,0.0,0.0,0.0,0.0,0.0,0.0,0.0,0.0,0.0,0.0,0.0,0.0,0.0,0.0,0.0,0.0,0.0,0.0,0.0,0.0,0.0,0.0,0.0,0.0,0.0,0.0,0.0,0.0,0.0,0.0,0.0,0.0,0.0,0.0,0.0,0.0,0.0,0.0,0.0,0.0,0.0,0.0,0.0,0.0,0.0,0.0,0.0,0.0,0.0,0.0,0.0,0.0,0.0,0.0,0.0,0.0,0.0,0.0,0.0,0.0,0.0,0.0,0.0,0.0,0.0,0.0,0.0,0.0,0.0,0.0,0.0,0.0,0.0,0.0,0.0,0.0,0.0,0.0,0.0,0.0,0.0,0.0,0.0,0.0,0.0,0.0,0.0,0.0,0.0,0.0,0.0,0.0,0.0,0.0,0.0,0.0,0.0,0.0,0.0,0.0,0.0,0.0,0.0,0.0,0.0,0.0,0.0,0.0,0.0,0.0,0.0,0.0,0.0,0.0,0.0,0.0,0.0,0.0,0.0,0.0,0.0,0.0,0.0,0.0,0.0,0.0,0.0,0.0,0.0,0.0,0.0,0.0,0.0,0.0,0.0,0.0,0.0,0.0,0.0,0.0,0.0,0.0,0.0,0.0,0.0,0.0,0.0,0.0,0.0,0.0,0.0,0.0,0.0,0.0,0.0,0.0,0.0,0.0,0.0,0.0,0.0,0.0,0.0,0.0,0.0,0.0,0.0,0.0,0.0,0.0,0.0,0.0,0.0,0.0,0.0,0.0,0.0,0.0,0.0,0.0,0.0,0.0,0.0,0.0,0.0,0.0,0.0,0.0,0.0,0.0,0.0,0.0,0.0,0.0,0.0,0.0,0.0,0.0,0.0,0.0,0.0,0.0,0.0,0.0,0.0,0.0,0.0,0.0,0.0,0.0,0.0,0.0,0.0,0.0,0.0,0.0,0.0,0.0,0.0,0.0,0.0,0.0,0.0,0.0,0.0,0.0,0.0,0.0,0.0,0.0,0.0,0.0,0.0,0.0,0.0,0.0,0.0,0.0,0.0,0.0,0.0,0.0,0.0,0.0,0.0,0.0,0.0,0.0,0.0,0.0,0.0,0.0,0.0,0.0,0.0,0.0,0.0,0.0,0.0,0.0,0.0,0.0,0.0,0.0,0.0,-1.0547,0.0,0.0,0.0,0.0,0.0,0.0,0.0,0.0,0.0,0.0,0.0,0.0,0.0,0.0,0.0,0.0,0.0,0.0,0.0,0.0,0.0,0.0,0.0,0.0,0.0,0.0,0.0,0.0,0.0,0.0,0.0,0.0,0.0,0.0,0.0,0.0,0.0,0.0,0.0,0.0,0.0,0.0,0.0,0.0,0.0,0.0,0.0,0.0,0.0,0.0,0.0,0.0,0.0,0.0,0.0,0.0,0.0,0.0,0.0,0.0,0.0,0.0,0.0,0.0,0.0,0.0,0.0,0.0,0.0,0.0,0.0,0.0,0.0,0.0,0.0,0.0,0.0,0.0,0.0,0.0,0.0,0.0,0.0,0.0,0.0,0.0,0.0,0.0,0.0,0.0,0.0,0.0,0.0,0.0,0.0,0.0,0.0,0.0,0.0,0.0,0.0,0.0,0.0,0.0,0.0,0.0,0.0,0.0,0.0,0.0,0.0,0.0,0.0,0.0,0.0,0.0,-1.0954,0.0,0.0,0.0,0.0,0.0,0.0,0.0,0.0,0.0,0.0,0.0,0.0,0.0,0.0,0.0,0.0,0.0,0.0,0.0,0.0,0.0,0.0,0.0,0.0,0.0,0.0,0.0,0.0,0.0,0.0,0.0,0.0,0.0,0.0,0.0,0.0,0.0,0.0,0.0,0.0,0.0,0.0,0.0,0.0,0.0,0.0,0.0,0.0,0.0,0.0,0.0,0.0,0.0,0.0,0.0,0.0,0.0,0.0,0.0,0.0,0.0,0.0,0.0,0.0,0.0,0.0,0.0,0.0,0.0,0.0,0.0,0.0,0.0,0.0,0.0,0.0,0.0,0.0,0.0,0.0,0.0,0.0,0.0,0.0,0.0,0.0,0.0,0.0,0.0,0.0,0.0,0.0,0.0,0.0,0.0,0.0,0.0,0.0,0.0,0.0,0.0,0.0,0.0,0.0,0.0,0.0,0.0,0.0,-0.97,-0.9883,-1.0122,-1.0365,-1.0774,-1.1275,-1.134,-1.1396,-1.1506,-1.2624,0.0,0.0,0.0,0.0,0.0,0.0,0.0,0.0,0.0,0.0,0.0,0.0,0.0,0.0,0.0,0.0,0.0,0.0,0.0,0.0,0.0,0.0,0.0,0.0,0.0,0.0,0.0,0.0,0.0,0.0,0.0,0.0,0.0,0.0,0.0,0.0,0.0,0.0,0.7431,0.7779,0.7534,0.6739,0.5271,0.0,0.0,0.0,0.0,0.0,0.0,0.0,0.0,0.0,0.0,0.0,0.0,0.0,0.0,0.0,0.0,0.0,0.0,0.0,0.0,0.0,0.0,0.0,0.0,0.0,0.0,0.0,0.0,0.0,0.0,0.0,0.0,0.0,0.0,0.0,0.0,0.0,0.0,0.0,0.0,0.0,0.0,0.0,-0.0785,-0.0983,0.0,0.0,0.0,0.0,0.0,0.0,0.0,0.0,0.0,0.0,0.0,0.0,0.0,-0.6073,-0.7255,-0.8421,-0.9037,-0.9037,-0.9275,-0.9396,-0.9457,-1.0668,-1.1135,-1.1055,-1.1661,0.0,-1.1248,-1.1549,0.0,0.0,0.0,0.0,0.0,0.0,0.0,0.0,0.0,0.0,0.0,0.0,0.0,0.0,0.0,0.0,0.0,0.0,0.0,0.0,0.0,0.0,0.0,0.0,0.0,0.0,0.0,0.0,0.0,0.0,0.0,0.0,0.0,0.0,0.0,0.0,0.8528,0.818,0.758,0.7829,0.8022,0.8153,0.6842,0.6197,0.6051,0.5281,0.0,0.0,0.0,0.0,0.0,0.0,0.0,0.0,0.0,0.0,0.0,0.0,0.0,0.0,0.0,0.0,0.0,0.0,0.0,0.0,0.0,0.0,0.0,0.0,0.0,0.0,0.0,0.0,0.0,0.0,0.0,0.0,0.0,0.0,0.0,0.0,0.0,0.0,0.0,-0.0525,-0.1071,-0.1187,-0.1702,-0.197,0.0,0.0,0.0,0.0,0.0,0.0,0.0,0.0,0.0,-0.3388,-0.3816,-0.4981,-0.6881,-0.7495,-0.8172,-0.8915,-0.9335,-0.97,-0.9879,-1.0849,-1.1358,-1.1471,-1.1782,-1.1687,-1.1216,-1.1257,-1.1955,-1.3007,0.0,0.0,0.0,0.0,-1.7702,-1.7582,0.0,0.0,0.0,0.0,0.0,0.0,0.0,0.0,0.0,0.0,0.0,0.0,0.0,0.0,0.0,0.7865,0.0,0.0,0.0,0.0,0.0,0.0,0.0,0.0,0.0,0.0,0.0,0.0,0.8796,0.8521,0.8069,0.8118,0.8496,0.8996,0.8282,0.7654,0.6975,0.5965,0.5481,0.0,0.0,0.0,0.0,0.0,0.0,0.0,0.0,0.0,0.0,0.0,0.0,0.0,0.0,0.0,0.0,0.0,0.0,0.0,0.0,0.0,0.0,0.0,0.0,0.0,0.0,0.0,0.0,0.0,0.0,0.0,0.0,0.0,0.0,0.0,0.0,0.0,0.0,-0.0929,-0.1296,-0.1508,-0.1805,-0.1964,0.0,0.0,0.0,0.0,0.0,0.0,-0.1853,-0.1544,-0.1916,-0.3159,-0.2974,-0.4091,-0.6648,-0.671,-0.7395,-0.8711,-0.926,-0.9729,-1.0124,-1.0852,-1.1421,-1.1759,-1.1853,-1.1683,-1.1335,-1.129,-1.192,-1.2979,-1.3648,-1.4844,-1.6289,-1.6906,-1.7364,-1.7582,0.0,0.0,0.0,0.0,0.0,0.0,0.0,0.0,0.0,0.0,0.0,0.0,0.0,0.0,0.9796,0.9669,0.9888,1.0238,0.0,0.0,0.0,0.0,0.0,0.0,0.0,0.0,0.0,0.8785,0.8734,0.8914,0.932,0.9556,0.9506,0.9187,0.9252,0.9212,0.8943,0.7162,0.6843,0.7466,0.0,0.0,0.0,0.0,0.0,0.0,0.0,0.0,0.0,0.0,0.0,0.0,0.0,0.0,0.0,0.0,0.0,0.0,0.0,0.0,0.0,0.0,0.0,0.0,0.0,0.0,0.0,0.0,0.0,0.0,0.0,0.0,0.0,0.0,0.0,0.0,0.0,0.0,0.0,-0.1887,-0.1939,0.0,0.0,0.0,0.0,-0.1977,-0.1729,-0.1544,-0.1544,-0.1235,-0.149,-0.2515,-0.2517,-0.367,-0.6091,-0.6155,-0.6862,-0.8217,-0.8597,-0.904,-0.9604,-1.0532,-1.1221,-1.1512,-1.1858,-1.1862,-1.1672,-1.1442,-1.1813,-1.2446,-1.2491,-1.3884,-1.5933,-1.5974,-1.6664,-1.7582,0.0,0.0,0.0,0.0,0.0,0.0,0.0,0.0,0.0,0.0,0.0,0.0,0.0,0.9909,1.0298,1.0414,1.066,1.0873,1.1078,0.0,0.0,0.0,0.0,0.0,0.0,0.0,0.9786,0.9461,0.8804,0.8699,0.904,0.9224,0.9413,0.9599,0.9579,0.9609,0.948,0.8167,0.7608,0.7589,0.7298,0.6865,0.0,0.0,0.0,0.0,0.0,0.0,0.0,0.0,0.0,0.0,0.0,0.0,0.0,0.0,0.0,0.0,0.0,0.0,0.0,0.0,0.0,0.0,0.0,0.0,0.0,0.0,0.0,0.0,0.0,0.0,0.0,0.0,0.0,0.0,0.0,0.0,0.0,-0.1594,-0.1818,0.0,-0.1934,-0.1775,-0.1667,-0.1667,-0.1359,-0.1302,-0.1502,-0.119,-0.1261,-0.1918,-0.1727,-0.2754,-0.5148,-0.5212,-0.624,-0.8236,-0.9249,-0.9859,-1.0062,-1.1262,-1.1888,-1.202,-1.2143,-1.2036,-1.1743,-1.1558,-1.154,-1.169,-1.2344,-1.3699,-1.5376,-1.6099,-1.6986,-1.7883,0.0,0.0,0.0,0.0,0.0,0.0,0.0,0.0,0.0,0.0,0.0,0.9274,1.0551,1.0662,1.0702,1.0725,1.0956,1.1156,1.1351,0.0,0.0,0.0,0.0,0.0,0.0,1.041,0.9904,0.9585,0.9088,0.898,0.9267,0.9263,0.9537,1.0127,0.9907,0.9969,1.0062,0.922,0.86,0.814,0.8332,0.7898,0.7165,0.0,0.0,0.0,0.0,0.0,0.0,0.0,0.0,0.0,0.0,0.0,0.0,0.0,0.0,0.0,0.0,0.0,0.0,0.0,0.0,0.0,0.0,0.0,0.0,0.0,0.0,0.0,0.0,0.0,0.0,0.0,0.0,0.0,0.0,0.0,-0.18,-0.1594,-0.1818,-0.1964,-0.1934,-0.1652,-0.1547,-0.1679,-0.1245,-0.1127,-0.1524,-0.1081,-0.0961,-0.1234,-0.0909,-0.1951,-0.4571,-0.4571,-0.5808,-0.8353,-0.9254,-0.9938,-1.0337,-1.1239,-1.1913,-1.2308,-1.2308,-1.2174,-1.1935,-1.1695,-1.152,-1.1433,-1.185,-1.3049,-1.4622,-1.5448,-1.6508,-1.758,0.0,0.0,0.0,0.0,0.0,0.0,0.0,0.0,0.0,0.0,1.072,1.0791,1.1868,1.1517,1.1065,1.0666,1.083,1.1183,1.172,1.2427,0.0,0.0,0.0,0.0,1.0663,1.061,1.0154,0.9231,0.9467,0.9781,1.019,0.9701,0.9962,1.0777,1.0396,1.0412,1.0806,1.046,0.988,0.9241,0.9941,0.968,0.8841,0.0,0.0,0.0,0.0,0.0,0.0,0.0,0.0,0.0,0.0,0.0,0.0,0.0,0.0,0.0,0.0,0.0,0.0,0.0,0.0,0.0,0.0,0.0,0.0,0.0,0.0,0.0,0.0,0.0,0.0,0.0,0.0,0.0,-0.1714,-0.1913,-0.1922,-0.1892,-0.1941,-0.1965,-0.1937,-0.1654,-0.1616,-0.1955,-0.139,-0.1145,-0.1548,-0.0904,-0.052,-0.0527,-0.0198,-0.1392,-0.4293,-0.4293,-0.5767,-0.8587,-0.8653,-0.9251,-1.0432,-1.0432,-1.1127,-1.2324,-1.2324,-1.232,-1.2288,-1.1931,-1.178,-1.1707,-1.0988,-1.196,-1.3743,-1.4002,-1.5232,-1.6781,0.0,0.0,0.0,0.0,0.0,0.0,0.0,0.0,0.0,0.0,1.0387,1.0605,1.1077,1.1482,1.1663,1.1554,1.1964,1.2357,1.2767,0.0,0.0,0.0,0.0,0.0,1.1636,1.0956,1.0463,1.0241,0.9589,0.9485,0.9754,0.9763,1.0168,1.0934,1.1895,1.2078,1.1657,1.2899,1.2251,1.0514,1.0572,1.0108,0.9367,0.0,0.0,0.0,0.0,0.0,0.0,0.0,0.0,0.0,0.0,0.0,0.0,0.0,0.0,0.0,0.0,0.0,0.0,0.0,0.0,0.0,0.0,0.0,0.0,0.0,0.0,0.0,0.0,0.0,0.0,0.0,0.0,-0.0421,-0.174,-0.1945,-0.1961,-0.1952,-0.1967,-0.1981,-0.1993,-0.1689,-0.1577,-0.1729,-0.1282,-0.1097,-0.1244,-0.1049,-0.0923,-0.0937,-0.087,-0.2009,-0.4631,-0.4631,-0.5969,-0.8587,-0.9652,-1.03,-1.0656,-1.1644,-1.2342,-1.269,-1.269,-1.2617,-1.2467,-1.2105,-1.189,-1.1732,-1.1261,-1.2368,-1.4213,-1.4319,-1.56,-1.7298,0.0,0.0,0.0,0.0,0.0,0.0,0.0,0.0,0.0,0.0,1.0815,1.112,1.1682,1.2137,1.2418,1.2418,1.2918,1.3273,1.3412,0.0,0.0,0.0,0.0,1.216,1.216,1.116,1.0636,1.0636,1.0111,0.998,1.0323,1.0159,1.0543,1.1382,1.2338,1.2615,1.2459,1.3516,1.328,1.2169,1.1756,1.091,0.9846,1.0179,0.9855,0.9124,0.8852,0.8798,0.8832,0.9005,0.0,0.0,0.0,0.0,0.0,0.0,0.0,0.0,0.0,0.0,0.0,0.0,0.0,0.0,0.0,0.0,0.0,0.0,0.0,0.0,0.0,0.0,0.0,0.0,0.1555,0.0965,-0.0851,-0.1587,-0.1962,-0.1975,-0.1977,-0.1988,-0.2016,-0.1713,-0.1601,-0.182,-0.1497,-0.1375,-0.1528,-0.1396,-0.1335,-0.1279,-0.1144,-0.2286,-0.4765,-0.4832,-0.6105,-0.8587,-0.9718,-1.0452,-1.0721,-1.1846,-1.2507,-1.2832,-1.2755,-1.2661,-1.26,-1.2178,-1.1931,0.0,0.0,0.0,0.0,0.0,-1.6518,-1.756,0.0,0.0,0.0,0.0,0.0,0.0,0.0,0.0,0.0,0.0,0.0,1.1964,1.2842,1.3031,1.3094,1.3052,1.3591,1.3873,0.0,0.0,0.0,1.4569,1.3142,1.2363,1.2448,1.1462,1.0944,1.0944,1.0944,1.1068,1.1365,1.0722,1.0996,1.2091,1.2193,1.2595,1.3273,1.3349,1.3648,1.3964,1.3187,1.1942,1.0482,1.0147,0.9998,0.9798,0.914,0.892,0.8848,0.8669,0.0,0.0,0.0,0.0,0.0,0.0,0.0,0.0,0.0,0.0,0.0,0.0,0.0,0.0,0.0,0.0,0.0,0.0,0.0,0.0,0.0,0.0,0.0,0.0,0.3789,0.2903,0.0368,-0.0971,-0.1756,-0.1973,-0.1979,-0.1992,-0.2021,-0.1795,-0.1756,-0.2112,-0.185,-0.1793,-0.2086,0.0,0.0,0.0,0.0,-0.2219,-0.4564,-0.4766,-0.6038,-0.8454,-0.9383,-1.0117,-1.0721,-1.1516,-1.2231,-1.2795,-1.2633,-1.2616,-1.2507,-1.217,-1.1931,-1.18,-1.1599,-1.2698,-1.4627,-1.6738,-1.7539,-1.7515,0.0,0.0,0.0,0.0,0.0,0.0,0.0,0.0,0.0,1.0382,1.1208,1.1734,1.2102,1.2718,1.3009,1.279,1.3385,1.371,0.0,0.0,1.2591,1.3145,1.2337,1.2143,1.2875,1.2491,1.232,1.232,1.232,1.2143,1.1843,1.1327,1.1652,1.2649,1.2931,1.3515,1.4347,1.501,1.5137,1.4816,1.425,1.3067,1.1748,1.1678,1.1199,1.0398,0.9302,0.892,0.8806,0.829,0.8115,0.8216,0.8648,0.0,0.0,0.0,0.0,0.0,0.0,0.0,0.0,0.0,0.0,0.0,0.0,0.0,0.0,0.0,0.0,0.0,0.0,0.0,0.0,0.3961,0.3761,0.2892,0.0302,-0.0298,-0.0837,-0.1847,-0.1996,-0.2022,-0.2052,-0.2017,-0.2047,-0.2144,-0.2146,-0.1947,-0.175,-0.1616,-0.1481,-0.1212,-0.1144,-0.1884,-0.3496,-0.4364,-0.5637,-0.7319,0.0,0.0,-1.0721,-1.2045,-1.2624,-1.2613,-1.258,-1.2483,-1.2341,-1.2117,-1.1931,-1.192,-1.3042,-1.373,-1.4298,-1.6183,-1.703,-1.7198,0.0,0.0,0.0,0.0,0.0,0.0,0.0,0.0,0.0,0.0,1.0892,1.1817,1.1912,1.2804,1.3476,1.3675,1.4013,0.0,0.0,1.324,1.2655,1.2768,1.1935,1.1684,1.2099,1.1592,1.1466,1.1816,1.1554,1.1729,1.2165,1.1386,1.18,1.319,1.3537,1.4279,1.5309,1.5842,1.5967,1.582,1.5029,1.4161,1.332,1.2442,1.1803,1.1257,1.0206,0.9798,0.9743,0.9471,0.9361,0.9292,0.8941,0.8652,0.8461,0.0,0.0,0.0,0.0,0.0,0.0,0.0,0.0,0.0,0.0,0.0,0.0,0.0,0.0,0.5604,0.0,0.0,0.5481,0.4871,0.4668,0.4006,0.2079,0.1249,0.012,-0.1786,-0.1989,-0.2015,-0.2124,-0.2091,-0.2122,-0.2219,-0.2222,-0.2087,-0.1885,-0.1885,-0.1818,-0.1683,-0.1683,-0.2221,-0.3498,-0.4568,-0.5685,-0.6909,-0.9351,-1.0499,-1.0555,-1.1922,-1.2519,-1.243,-1.2337,-1.2247,-1.2154,-1.1975,-1.1853,-1.1997,-1.3624,-1.4407,-1.4814,-1.6793,-1.7551,-1.7551,0.0,0.0,0.0,0.0,0.0,0.0,0.0,0.0,0.0,0.0,0.0,1.1847,1.1905,1.2856,1.3857,0.0,0.0,0.0,0.0,1.3649,1.2851,1.251,1.1746,1.1342,1.1389,1.0657,1.0551,1.1085,1.0731,1.1064,1.2093,1.1097,1.1599,1.3316,1.349,1.442,1.5931,1.6067,1.6447,1.6837,1.5754,1.5289,1.4999,1.3341,1.2591,1.2303,1.1368,1.1055,1.1,1.0781,1.0726,1.0483,0.9425,0.904,0.893,0.8674,0.8014,0.0,0.0,0.0,0.0,0.0,0.0,0.0,0.0,0.0,0.5285,0.55,0.5533,0.558,0.5727,0.5633,0.5578,0.5706,0.5604,0.5077,0.3871,0.2613,0.0965,-0.1355,-0.1857,-0.2003,-0.205,-0.2088,-0.2119,-0.2144,-0.2218,-0.2222,-0.2222,-0.2222,-0.2219,-0.2213,-0.2213,-0.2544,-0.3337,-0.4665,-0.5695,-0.6414,-0.908,-1.0382,-1.0326,-1.1668,-1.2288,-1.2243,-1.206,-1.1979,-1.1971,-1.1833,-1.1776,-1.1953,-1.3679,-1.4624,-1.5268,-1.7414,-1.8077,-1.7901,0.0,0.0,0.0,0.0,0.0,0.0,0.0,0.0,0.0,0.0,0.0,0.0,0.0,0.0,0.0,0.0,0.0,0.0,1.4057,1.2504,1.1623,1.18,1.1499,1.156,1.2148,1.1844,1.1729,1.1812,1.1729,1.1499,1.1064,1.0572,1.1027,1.227,1.1886,1.3291,1.5869,1.5669,1.6424,1.7662,1.661,1.6467,1.6777,1.5327,1.4286,1.3477,1.2562,1.2195,1.2032,1.1055,1.0726,1.0668,1.0538,1.0317,0.9998,0.9399,0.0,0.8663,0.8242,0.7459,0.672,0.671,0.5976,0.5231,0.0,0.0,0.5506,0.555,0.557,0.5576,0.5596,0.5584,0.555,0.5547,0.552,0.5077,0.3871,0.2532,0.1252,-0.0061,-0.1248,-0.2016,-0.2023,-0.2076,-0.211,-0.2114,-0.2139,-0.2222,-0.2222,-0.2222,-0.2142,-0.2115,-0.2114,-0.2035,-0.1879,-0.4014,-0.5044,-0.497,-0.862,-1.028,-1.0326,-1.1668,-1.2219,-1.2052,-1.1878,-1.1805,-1.1805,-1.1784,-1.1776,-1.1897,-1.2964,-1.3913,-1.4922,-1.6885,-1.7602,-1.7513,0.0,0.0,0.0,0.0,0.0,0.0,0.0,0.0,0.0,0.0,0.0,0.0,0.0,0.0,0.0,0.0,0.0,0.0,1.4189,1.2382,1.1284,1.1284,1.0939,1.0829,1.1054,1.0835,1.09,1.1252,1.0974,1.1156,1.1706,1.0855,1.1101,1.2168,1.2725,1.3802,1.5176,1.6112,1.6962,1.767,1.7175,1.7007,1.6927,1.6385,1.5405,1.4252,1.3498,1.3209,0.0,0.0,1.251,1.2403,1.1706,1.1327,1.0992,1.0269,0.9488,0.0,0.9031,0.8694,0.8148,0.7749,0.672,0.5732,0.538,0.5299,0.5394,0.5535,0.5563,0.5582,0.5576,0.5542,0.5551,0.0,0.5467,0.5293,0.48,0.3682,0.243,0.1212,-0.0062,-0.1124,-0.1953,-0.2041,-0.2071,-0.2106,-0.2105,-0.211,-0.2127,-0.2111,-0.2161,-0.2083,-0.2082,-0.2012,-0.187,-0.3286,-0.4296,-0.4894,-0.7292,-0.9018,-1.0067,-1.0998,-1.1579,-1.1878,-1.1809,-1.1776,-1.1776,-1.1776,-1.1776,-1.1897,-1.2848,-1.3799,-1.4748,-1.6172,-1.7009,-1.7467,0.0,0.0,0.0,0.0,0.0,0.0,0.0,0.0,0.0,0.0,0.0,0.0,0.0,0.0,0.0,0.0,0.0,0.0,0.0,1.2681,1.1542,1.1198,1.0814,1.044,1.0218,1.0047,1.0144,1.0519,1.0191,1.0577,1.1617,1.0681,1.1029,1.24,1.3157,1.4107,1.524,1.6329,1.7106,1.7574,1.7496,1.7363,1.712,1.7014,1.6293,1.5253,1.4585,1.4142,0.0,0.0,1.4188,1.3787,1.3106,1.2459,1.1836,1.1231,1.0289,0.9511,1.0,0.9816,0.9242,0.8421,0.7279,0.6219,0.5429,0.5282,0.5318,0.5447,0.5473,0.5492,0.5559,0.5516,0.5473,0.5473,0.5422,0.5418,0.5529,0.4493,0.3261,0.2005,0.0739,-0.0562,-0.1901,-0.2031,-0.2049,-0.2093,-0.2084,-0.2086,-0.2108,-0.208,-0.206,-0.2052,-0.2051,-0.2048,-0.1912,-0.2738,-0.3733,-0.4881,-0.6309,-0.8004,-0.9819,-1.0671,-1.1345,-1.1776,-1.1776,-1.1776,-1.1776,-1.1776,-1.1776,-1.1897,-1.2552,-1.3559,-1.4689,-1.5402,-1.6473,-1.7473,0.0,0.0,0.0,0.0,0.0,0.0,0.0,0.0,0.0,0.0,0.0,0.0,0.0,0.0,0.0,0.0,0.0,0.0,0.0,1.3294,1.2357,1.1714,1.1413,1.0917,1.0218,1.0178,1.0049,0.9833,0.9881,0.9921,0.9962,0.9535,1.0622,1.2831,1.2186,1.362,1.6495,1.6035,1.6496,1.7519,1.7505,1.7662,1.7818,1.7213,1.6957,1.6807,1.6004,0.0,0.0,0.0,1.5164,1.4211,1.4752,1.3903,0.0,1.2324,1.1721,1.1065,1.0829,1.0184,0.9347,0.8207,0.7294,0.6482,0.5599,0.5377,0.5377,0.5386,0.5386,0.5386,0.539,0.5388,0.5386,0.5386,0.5384,0.5443,0.5556,0.4524,0.3229,0.2064,0.0755,-0.057,0.0,-0.2127,-0.2128,-0.213,-0.2092,-0.2108,-0.2109,-0.208,-0.205,-0.2021,-0.202,-0.1818,-0.1546,-0.2531,-0.3452,-0.4435,-0.6086,-0.7922,-0.9822,-1.1163,-1.1776,-1.1776,-1.1776,-1.1776,-1.1776,-1.1776,-1.1776,-1.1776,-1.1837,-1.2969,-1.4629,-1.4629,-1.5876,-1.7449,0.0,0.0,0.0,0.0,0.0,0.0,0.0,0.0,0.0,0.0,0.0,0.0,0.0,0.0,0.0,0.0,0.0,0.0,0.0,1.3555,1.279,1.2363,1.1972,1.1451,1.0752,1.0577,1.0292,0.9876,0.9899,1.0137,1.0577,1.1006,1.1745,1.277,1.4065,1.4949,1.5526,1.615,1.6528,1.6715,1.7107,1.7302,1.7358,1.7309,1.7051,1.6778,0.0,0.0,0.0,0.0,1.5122,1.4914,1.4917,1.4262,1.3209,1.1737,1.1152,1.091,1.0725,1.0395,0.9931,0.918,0.8245,0.7308,0.6525,0.5833,0.5382,0.5382,0.5333,0.5253,0.5089,0.5165,0.5145,0.4866,0.5156,0.5407,0.5402,0.5195,0.4313,0.2289,0.1662,0.0,0.0,0.0,0.0,-0.2093,-0.2066,-0.2058,-0.2078,-0.2033,-0.2001,-0.1991,-0.199,-0.1862,-0.1482,-0.1605,-0.2588,-0.443,-0.7429,-0.9147,-0.9822,-1.1163,-1.1776,-1.1776,-1.1776,-1.1776,-1.1776,-1.1776,-1.1776,-1.1837,-1.2492,-1.3504,-1.4689,-1.5343,-1.6311,-1.7213,0.0,0.0,0.0,0.0,0.0,0.0,0.0,0.0,0.0,0.0,0.0,0.0,0.0,0.0,0.0,0.0,0.0,0.0,0.0,0.0,1.3222,1.2966,1.2491,1.1929,1.1241,1.0939,1.0581,1.0203,1.0154,1.042,1.0947,1.1706,1.2484,1.3269,1.4897,1.5684,1.5806,1.6532,1.6704,1.6601,1.6937,1.7081,1.7067,1.7199,1.7046,0.0,0.0,0.0,0.0,0.0,1.5538,1.5278,1.5303,1.446,1.3128,1.1325,1.0757,1.0707,1.0433,1.045,1.0234,0.9377,0.8766,0.8085,0.694,0.627,0.5782,0.5485,0.5198,0.5041,0.4875,0.49,0.4826,0.449,0.4799,0.5074,0.5143,0.542,0.4908,0.2902,0.2271,0.117,0.0,0.0,0.0,-0.2108,-0.2063,-0.2044,-0.2127,-0.2008,-0.1977,-0.1977,-0.1977,-0.1853,-0.1482,-0.1666,-0.2773,-0.4984,-0.8227,-0.9822,-0.9822,-1.1163,-1.1776,-1.1776,-1.1776,-1.1776,-1.1776,-1.1776,-1.1776,-1.1889,-1.2704,-1.3625,-1.4562,-1.5481,-1.6287,-1.6966,0.0,0.0,0.0,0.0,0.0,0.0,0.0,0.0,0.0,0.0,0.0,0.0,0.0,0.0,0.0,0.0,0.0,0.0,0.0,0.0,0.0,1.3307,1.2833,1.2272,1.1634,1.1154,1.0809,1.0598,1.0549,1.0722,1.0987,1.1581,1.2744,1.4328,1.4669,1.5749,1.721,1.7044,1.6958,1.6958,1.6958,1.6943,1.6947,1.6861,0.0,0.0,0.0,0.0,0.0,0.0,1.6197,1.5201,1.5755,1.4446,1.2441,1.114,1.0694,1.0558,1.0132,1.0285,1.025,0.9013,0.8932,0.8706,0.688,0.6642,0.6513,0.5633,0.508,0.4798,0.0,0.0,0.437,0.4373,0.4434,0.456,0.4734,0.5065,0.4868,0.0,0.0,0.0,0.0,0.0,0.0,-0.2114,0.0,-0.2128,-0.2128,-0.2008,-0.1977,-0.1977,-0.1977,-0.1853,-0.1482,-0.2527,-0.4,-0.5906,-0.8535,-0.9822,-0.9822,-1.1163,-1.1776,-1.1776,-1.1776,-1.1768,-1.176,-1.176,-1.1756,-1.1852,-1.2541,-1.3343,-1.426,-1.5023,-1.5896,-1.6712,0.0,0.0,0.0,0.0,0.0,0.0,0.0,0.0,0.0,0.0,0.0,0.0,0.0,0.0,0.0,0.0,0.0,0.0,0.0,0.0,0.0,0.0,0.0,0.0,0.0,0.0,0.0,0.0,0.0,1.0289,1.0722,1.2275,1.3448,0.0,1.4977,1.5714,1.6423,1.6384,1.6391,1.6338,0.0,1.6485,1.6263,0.0,0.0,0.0,0.0,0.0,0.0,0.0,0.0,0.0,1.3643,1.301,1.2096,1.0654,1.0201,1.0162,0.9945,1.0042,1.0083,0.9926,0.9466,0.8763,0.7756,0.7011,0.6438,0.6198,0.5364,0.4872,0.0,0.0,0.0,0.3817,0.4322,0.0,0.4621,0.5023,0.0,0.3454,0.0,0.1138,-0.0269,-0.1481,0.0,0.0,-0.2159,-0.2128,-0.2128,-0.2008,-0.1977,-0.1977,-0.1977,-0.1729,-0.1112,-0.2833,-0.4429,-0.5906,-0.8535,-0.9822,-0.9822,-1.1163,-1.1776,-1.1776,-1.1776,-1.1699,-1.1569,-1.1569,-1.1488,-1.1416,-1.2356,-1.325,-1.4157,-1.5066,-1.5831,-1.6398,0.0,0.0,0.0,0.0,0.0,0.0,0.0,0.0,0.0,0.0,0.0,0.0,0.0,0.0,0.0,0.0,0.0,0.0,0.0,0.0,0.0,0.0,0.0,0.0,0.0,0.0,0.0,0.0,0.0,0.0,0.0,1.1798,1.2847,1.3185,1.412,1.4672,1.4858,0.0,0.0,0.0,0.0,0.0,0.0,0.0,0.0,0.0,0.0,0.0,0.0,0.0,0.0,1.3494,1.2752,1.2339,1.1853,1.0404,0.0,0.9942,0.9816,0.9504,0.9261,0.9306,0.8816,0.8032,0.7075,0.6576,0.6197,0.5609,0.4843,0.0,0.4676,0.429,0.0,0.0,0.0,0.0,0.442,0.485,0.4905,0.0,0.2997,0.0,0.0538,-0.0736,-0.1672,0.0,-0.2164,-0.2128,-0.2128,-0.2008,-0.1977,-0.1977,-0.1977,-0.2222,-0.2713,-0.3633,-0.5044,-0.6827,-0.8541,-0.9518,-0.9819,-1.0786,-1.1415,-1.165,0.0,-1.1472,-1.1378,-1.1378,-1.1317,-1.1269,-1.2161,-1.3031,-1.3918,-1.4767,-1.5525,-1.6109,0.0,0.0,0.0,0.0,0.0,0.0,0.0,0.0,0.0,0.0,0.0,0.0,0.0,0.0,0.0,0.0,0.0,0.0,0.0,0.0,0.0,0.0,0.0,0.0,0.0,0.0,0.0,0.0,0.0,0.0,0.0,0.0,0.0,0.0,0.0,0.0,0.0,0.0,0.0,0.0,0.0,0.0,0.0,0.0,0.0,0.0,0.0,0.0,0.0,0.0,1.212,1.3016,1.2111,1.157,1.1007,0.9892,0.9477,0.9427,0.9284,0.8693,0.8128,0.8023,0.7712,0.7073,0.5874,0.5948,0.5893,0.4724,0.0,0.3832,0.3925,0.3619,0.3403,0.3412,0.0,0.4041,0.4248,0.4579,0.4891,0.5111,0.3884,0.2648,0.1611,0.0266,-0.106,-0.2152,-0.2164,-0.2128,-0.2128,-0.2008,-0.1977,-0.1977,-0.1977,-0.2838,-0.4681,-0.4493,-0.5536,-0.7686,-0.8465,-0.9128,-0.9785,-1.0235,-1.0812,-1.1455,-1.1293,-1.1208,-1.1187,-1.1187,-1.1175,-1.1192,-1.182,-1.2701,-1.3623,-1.4191,-1.503,-1.5891,0.0,0.0,0.0,0.0,0.0,0.0,0.0,0.0,0.0,0.0,-0.1975,0.0536,0.0,0.0,0.0,0.0,0.0,0.0,0.0,0.0,0.0,0.0,0.0,0.0,0.0,0.0,0.0,0.0,0.0,0.0,0.0,0.0,0.0,0.0,0.0,0.0,0.0,0.0,0.0,0.0,0.0,0.0,0.0,0.0,0.0,0.0,0.0,0.0,0.0,0.0,0.8887,0.9692,0.9486,0.8639,0.7683,0.7232,0.7125,0.722,0.7467,0.7427,0.734,0.7543,0.7543,0.7235,0.6366,0.6056,0.0,0.0,0.4619,0.397,0.4517,0.3911,0.3353,0.3403,0.3687,0.3986,0.424,0.4395,0.4579,0.0,0.3555,0.2316,0.1275,0.0133,0.0,0.0,-0.2164,-0.2128,-0.2128,-0.2008,-0.1977,-0.1977,-0.1729,-0.2283,-0.3757,-0.4186,-0.5168,-0.6707,-0.8073,-0.9042,-0.9625,-1.0124,-1.0694,-1.1269,-1.1236,0.0,-1.1013,-1.1013,-1.0923,-1.0781,-1.0914,-1.1937,-1.3345,-1.3472,-1.4535,-1.5891,0.0,0.0,0.0,0.0,0.0,0.0,0.0,-1.0507,-0.8693,-0.6725,-0.4489,-0.2035,0.0892,0.2192,0.0,0.0,0.0,0.0,0.0,0.0,0.0,0.0,0.0,0.0,0.0,0.0,0.0,0.0,0.0,0.0,0.0,0.0,0.0,0.0,0.0,0.0,0.0,0.0,0.0,0.0,0.0,0.0,0.0,0.0,0.0,0.0,0.0,0.0,0.0,0.0,0.6958,0.6784,0.6886,0.6803,0.6505,0.5795,0.5729,0.5926,0.6082,0.5726,0.5326,0.5638,0.5443,0.503,0.4614,0.0,0.0,0.0,0.3934,0.3568,0.3888,0.3586,0.0,0.3402,0.3676,0.4004,0.4378,0.4561,0.0,0.0,0.0,0.0,0.0,0.0528,-0.0459,-0.2062,-0.2089,-0.2128,-0.2128,-0.2008,-0.1977,-0.1977,-0.1853,-0.2345,-0.3511,-0.4247,-0.5212,-0.6326,-0.7603,-0.8494,-0.9062,-0.95,-0.9999,-1.0623,-1.0872,0.0,-1.0826,-1.0826,-1.0773,-1.0692,-1.0692,-1.1509,-1.2703,-1.3127,-1.4105,-1.5303,0.0,0.0,0.0,0.0,0.0,0.0,0.0,-1.1722,-0.9879,-0.8517,-0.6675,-0.4375,-0.1511,0.0199,0.128,0.0,0.0,0.0,0.0,0.0,0.0,0.0,0.0,0.0,0.0,0.0,0.0,0.0,0.0,0.0,0.0,0.0,0.0,0.0,0.0,0.0,0.0,0.0,0.0,0.0,0.0,0.0,0.0,0.0,0.0,0.0,0.0,0.0,0.0,0.0,0.5532,0.4722,0.4212,0.4678,0.5253,0.4444,0.4356,0.4523,0.4677,0.407,0.3475,0.3888,0.3543,0.3127,0.3114,0.3268,0.0,0.3295,0.323,0.318,0.318,0.3219,0.3326,0.0,0.3611,0.3966,0.4457,0.0,0.0,0.0,0.0,0.0,0.0,0.0,0.0,-0.1976,-0.2075,-0.2052,-0.2109,-0.2002,-0.1977,-0.1977,-0.1977,-0.2407,-0.3143,-0.4297,-0.5176,-0.5893,-0.705,-0.7923,-0.8454,-0.8717,-0.9268,-1.0051,-1.0366,0.0,0.0,-1.0692,-1.0692,-1.0692,-1.0692,-1.124,-1.2114,-1.297,-1.3835,-1.4708,0.0,0.0,0.0,0.0,0.0,0.0,0.0,-1.3693,-1.2068,-0.9756,-0.8411,-0.6672,-0.3972,-0.226,-0.0803,0.0,0.0,0.0,0.0,0.0,0.0,0.0,0.0,0.0,0.0,0.0,0.0,0.0,0.0,0.0,0.0,0.0,0.0,0.0,0.0,0.0,0.0,0.0,0.0,0.0,0.0,0.0,0.0,0.0,0.0,0.0,0.0,0.0,0.0,0.0,0.0,0.4271,0.1411,0.1224,0.217,0.2326,0.0,0.0,0.3021,0.2968,0.281,0.3397,0.3504,0.349,0.3693,0.0,0.3408,0.3549,0.3383,0.318,0.318,0.3185,0.3226,0.3394,0.0,0.3644,0.0,0.0,0.0,0.0,0.0,0.0,0.0,0.0,0.0,-0.1977,-0.2055,-0.2011,-0.1986,-0.1979,-0.1977,-0.1977,-0.1977,-0.2038,-0.2161,-0.3828,-0.4759,-0.4869,-0.6539,-0.7649,-0.8208,-0.8124,-0.8729,-0.9839,-0.9875,0.0,0.0,-1.0692,-1.0692,-1.0692,-1.0692,-1.124,-1.2114,-1.297,-1.3835,-1.4708,0.0,0.0,0.0,0.0,0.0,0.0,-1.6459,-1.448,-1.2754,-1.1199,-0.9462,-0.7981,-0.6895,-0.5651,-0.3916,0.0,0.0,0.0,0.0,0.0,0.0,0.0,0.0,0.0,0.0,0.0,0.0,-0.0914,-0.0993,0.0,0.0,0.0,0.0,0.0,0.0,0.0,0.0,0.0,0.0,0.0,0.0,0.0,0.0,0.0,0.0,0.0,0.0,0.0,0.0,0.0,0.0,0.0,0.1009,0.066,0.0,0.0,0.0872,0.1032,0.1342,0.1342,0.1393,0.196,0.2012,0.2058,0.2809,0.0,0.2698,0.3236,0.3281,0.318,0.318,0.318,0.3219,0.0,0.0,0.0,0.3999,0.0,0.0,0.0,0.0,0.0,0.0,0.0,0.0321,-0.1862,-0.2016,-0.1988,-0.1977,-0.1977,-0.1977,-0.1977,-0.1977,-0.1968,-0.1949,-0.3804,-0.4647,-0.4619,-0.6403,-0.7412,-0.7617,-0.7902,-0.8484,-0.9258,-0.9647,0.0,0.0,-1.0692,-1.0692,-1.0692,-1.0692,-1.0911,-1.14,-1.2807,-1.3511,-1.3981,0.0,0.0,0.0,0.0,0.0,-2.0338,-1.7612,-1.5265,-1.3461,-1.2478,-1.0448,-0.8943,-0.8626,-0.8017,-0.6613,-0.4016,0.0,0.0,0.0,0.0,0.0,0.0,0.0,0.0,0.0,0.0,-0.2473,-0.2286,-0.2575,-0.2466,0.0,0.0,0.0,0.0,0.0,0.0,0.0,0.0,0.0,0.0,0.0,0.0,0.0,0.0,0.0,0.0,0.0,0.0,0.0,0.0,0.0,0.0,0.0,0.0,0.0,0.0,0.0,0.0253,0.0202,0.0303,0.0505,0.096,0.096,0.101,0.0,0.0,0.1968,0.2775,0.2977,0.3027,0.318,0.318,0.3219,0.0,0.0,0.3508,0.3851,0.0,0.0,0.0,0.0,0.4346,0.0,0.139,0.0125,-0.188,-0.1988,-0.1977,-0.1977,-0.1977,-0.1977,-0.1977,-0.1968,-0.1953,-0.1871,-0.3461,-0.4344,-0.4534,-0.6107,-0.6955,-0.721,-0.7598,-0.8152,-0.8923,-0.9368,0.0,0.0,-1.0692,-1.0692,-1.0692,-1.0692,-1.066,-1.0833,-1.2553,-1.3148,-1.3285,0.0,0.0,0.0,0.0,0.0,0.0,-1.8681,-1.624,-1.4355,-1.3521,-1.1498,-0.9791,-0.8731,-0.8839,-0.8467,-0.7189,0.0,0.0,0.0,0.0,0.0,0.0,0.0,0.0,0.0,0.0,-0.3471,-0.3471,-0.3755,-0.3328,-0.2284,-0.2807,-0.3094,-0.3093,0.0,0.0,0.0,0.0,0.0,0.0,0.0,0.0,0.0,0.0,0.0,0.0,0.0,0.0,0.0,0.0,0.0,0.0,0.0,0.0,0.0,0.0,-0.0404,-0.005,-0.0303,0.0,0.0455,0.0758,0.0808,0.0859,0.0,0.1212,0.1414,0.222,0.2422,0.2573,0.3079,0.318,0.3219,0.3392,0.0,0.0,0.3571,0.3926,0.0,0.0,0.0,0.4458,0.3675,0.1283,-0.0678,-0.1915,-0.1977,0.0,-0.1977,-0.1977,-0.1977,-0.1977,-0.1947,-0.1871,-0.1871,-0.2746,-0.3677,-0.4534,-0.5418,-0.6323,-0.721,-0.721,-0.7817,-0.892,0.0,0.0,0.0,-1.0692,-1.0692,-1.0692,-1.0692,-1.0586,-1.0597,-1.2283,-1.2772,-1.2833,0.0,0.0,0.0,0.0,0.0,0.0,0.0,-1.6664,-1.4677,-1.3975,-1.1907,-1.0413,-1.0085,-0.9984,-0.9792,-0.9417,0.0,0.0,0.0,0.0,0.0,0.0,0.0,0.0,0.0,0.0,-0.4697,-0.4936,-0.4403,-0.4464,-0.5016,-0.4085,-0.3996,-0.4656,-0.4256,0.0,0.0,0.0,0.0,0.0,0.0,0.0,0.0,0.0,0.0,0.0,0.0,0.0,0.0,0.0,0.0,0.0,0.0,0.0,0.0,0.0,0.0,0.0,-0.1765,-0.1665,-0.1312,-0.0504,-0.0454,-0.0252,0.0909,0.1061,0.1111,0.1715,0.1865,0.2017,0.2573,0.2674,0.2911,0.3601,0.3728,0.0,0.0,0.0,0.0,0.4875,0.366,0.2696,0.0,0.0,-0.1598,-0.1886,-0.1964,-0.1977,-0.1977,-0.1957,-0.1945,-0.1945,-0.1936,-0.1852,-0.1811,-0.2715,-0.3655,-0.4516,-0.5388,-0.6267,-0.721,-0.721,-0.7817,0.0,0.0,0.0,0.0,-1.0692,-1.0623,-1.0517,-1.0517,-1.0724,-1.1133,-1.2262,-1.2993,-1.3529,0.0,0.0,0.0,0.0,0.0,0.0,0.0,-1.7391,-1.5518,-1.4239,-1.2467,-1.1177,-1.0747,-1.0595,-1.0505,-1.0387,0.0,0.0,0.0,0.0,0.0,0.0,0.0,0.0,0.0,-0.5365,-0.6018,-0.6214,-0.605,-0.62,-0.6619,-0.5815,-0.5772,-0.6347,-0.6019,0.0,0.0,0.0,0.0,0.0,0.0,0.0,-0.2822,0.0,0.0,0.0,0.0,0.0,0.0,0.0,0.0,0.0,0.0,0.0,0.0,0.0,-0.3677,-0.3226,0.0,-0.2622,-0.2219,-0.1563,-0.1513,0.0,0.0,0.0252,0.0454,0.1261,0.1514,0.1766,0.232,0.232,0.2603,0.3598,0.3619,0.0,0.0,0.0,0.0,0.483,0.0,0.0,0.0,-0.006,-0.1463,-0.1872,-0.196,-0.1972,-0.196,-0.1941,-0.1861,-0.1838,-0.1838,-0.182,-0.1783,-0.2399,-0.3284,-0.448,-0.5039,-0.5986,-0.721,-0.7432,-0.8042,0.0,0.0,0.0,0.0,-1.0595,-1.0493,-1.0331,-1.0437,-1.0584,-1.0925,-1.2246,-1.2951,-1.3407,0.0,0.0,0.0,0.0,0.0,0.0,0.0,0.0,-1.6685,-1.44,-1.3112,-1.1987,-1.0798,-1.0692,-1.0627,-1.0415,0.0,0.0,0.0,0.0,0.0,0.0,0.0,0.0,-0.6484,-0.7077,-0.7372,-0.7419,-0.8372,-0.8365,-0.7505,-0.7816,-0.8021,-0.8113,-0.7973,-0.733,0.0,0.0,0.0,0.0,0.0,0.0,0.0,0.0,0.0,0.0,0.0,0.0,0.0,0.0,0.0,0.0,0.0,0.0,0.0,0.0,0.0,0.0,0.0,-0.3126,-0.2573,0.0,0.0,0.0,-0.1462,-0.1109,0.0,0.0808,0.1263,0.1616,0.222,0.2121,0.23,0.3281,0.3192,0.3338,0.0,0.4203,0.0,0.0,0.3806,0.0,0.1836,0.0532,-0.0723,-0.181,-0.1958,-0.1961,-0.1932,-0.1867,-0.1839,-0.1784,-0.1781,-0.178,-0.178,-0.1809,-0.269,-0.448,-0.448,-0.5427,-0.721,-0.7712,-0.8312,0.0,0.0,0.0,0.0,-1.0416,-1.0306,-1.0248,-1.0504,-1.0386,-1.0268,-1.2269,-1.2729,-1.2684,0.0,0.0,0.0,0.0,0.0,0.0,0.0,0.0,0.0,0.0,-1.3112,-1.1987,-1.0798,-1.0692,-1.0676,0.0,0.0,0.0,0.0,0.0,0.0,0.0,0.0,0.0,-0.7664,-0.857,-0.9221,-0.9661,-0.9069,-0.9316,-1.0243,-0.8715,-0.8418,-0.9209,-0.8329,-0.7822,0.0,0.0,0.0,0.0,0.0,0.0,0.0,0.0,0.0,0.0,-0.7226,-0.7226,0.0,0.0,0.0,0.0,0.0,0.0,0.0,0.0,-0.4784,-0.4784,-0.4583,0.0,-0.4081,-0.3478,-0.3325,-0.3126,0.0,-0.2068,-0.1714,-0.0555,-0.0303,0.0101,0.1262,0.1634,0.2023,0.2706,0.293,0.3182,0.3737,0.0,0.0,0.4148,0.2955,0.2008,0.1722,-0.0237,-0.1569,-0.1871,-0.1938,-0.1939,-0.1871,-0.1828,-0.1797,-0.1783,-0.1533,-0.1524,-0.1806,-0.1798,-0.269,-0.448,-0.448,-0.5427,-0.721,-0.7321,-0.7877,0.0,0.0,0.0,-1.0277,-1.0487,-1.0435,-1.0323,-1.0574,-1.0906,-1.1314,-1.2379,-1.3072,-1.3661,0.0,0.0,0.0,0.0,0.0,0.0,0.0,0.0,0.0,0.0,0.0,0.0,0.0,0.0,0.0,0.0,0.0,0.0,0.0,0.0,0.0,0.0,0.0,0.0,-0.8872,-0.9607,-1.0117,-1.0413,-1.006,-1.0355,-1.1194,-1.0002,-0.9756,-1.0301,-0.9209,-0.9011,0.0,0.0,0.0,0.0,-0.8219,0.0,0.0,0.0,0.0,0.0,-0.8021,-0.8021,0.0,-0.8021,-0.8021,-0.7922,0.0,0.0,0.0,0.0,-0.5932,-0.5536,-0.5536,-0.5186,-0.4684,-0.4282,-0.413,-0.3929,-0.3126,0.0,0.0,0.0,0.0,0.0,-0.0306,-0.0103,0.0313,0.1608,0.1831,0.0,0.0,0.0,0.3943,0.364,0.2231,0.1277,0.0,-0.0654,-0.1871,-0.1871,-0.1918,-0.1904,-0.1831,-0.18,-0.1777,-0.182,-0.1466,-0.1458,-0.1795,-0.1627,-0.2577,-0.448,-0.4443,-0.5365,-0.713,-0.7342,-0.7872,0.0,0.0,0.0,-1.0248,-1.0403,-1.0446,-1.0375,-1.0621,-1.0852,-1.1145,-1.2063,-1.2883,-1.3613,0.0,0.0,0.0,0.0,0.0,0.0,0.0,0.0,0.0,0.0,0.0,0.0,0.0,0.0,0.0,0.0,0.0,0.0,0.0,0.0,0.0,0.0,0.0,-0.9674,-1.0179,-1.0454,-1.0555,-1.0555,-1.0967,-1.1194,-1.1194,-1.1194,-1.1194,-1.1145,-1.0252,-1.035,0.0,0.0,-0.9011,0.0,-0.8863,0.0,0.0,0.0,0.0,0.0,0.0,0.0,0.0,-0.8467,-0.8467,-0.8467,-0.8319,0.0,0.0,0.0,0.0,0.0,-0.6634,-0.5984,-0.5233,-0.4885,-0.4784,-0.4634,-0.3929,0.0,0.0,0.0,0.0,0.0,0.0,-0.1975,0.0,0.0,0.0,0.0,0.2172,0.2651,0.2754,0.2516,0.1265,0.0,0.0408,-0.1129,-0.2102,-0.2037,-0.2011,-0.1984,-0.1784,-0.1778,-0.1821,-0.1795,-0.1458,-0.1457,-0.1788,-0.1456,-0.2351,-0.4404,-0.434,-0.523,-0.7007,-0.7375,-0.7889,-0.8501,0.0,0.0,-1.0264,-1.0365,-1.0417,-1.0511,-1.0752,-1.0703,-1.0659,-1.1634,-1.25,-1.327,0.0,0.0,0.0,0.0,0.0,0.0,0.0,0.0,0.0,0.0,0.0,0.0,0.0,0.0,0.0,0.0,0.0,0.0,0.0,0.0,0.0,0.0,-1.1291,-1.1203,-1.1508,-1.1369,-1.1317,-1.1317,-1.1234,-1.1194,-1.1194,-1.1194,-1.1194,-1.1194,-1.1047,-1.1047,-1.1194,-1.085,-1.0797,-1.0949,-1.0797,0.0,0.0,0.0,0.0,0.0,0.0,0.0,0.0,-1.0699,-1.0699,-1.0547,-0.9657,0.0,0.0,0.0,0.0,0.0,-0.7776,-0.7624,-0.7077,-0.5233,-0.4784,-0.4784,0.0,0.0,0.0,0.0,0.0,0.0,0.0,-0.1963,-0.1519,0.0,0.0,-0.0222,0.0,0.0,-0.0223,-0.0279,0.0,-0.1373,-0.1297,-0.261,-0.3173,-0.2549,-0.254,-0.2362,-0.184,-0.1816,-0.18,-0.1795,-0.1458,-0.1448,-0.1812,-0.1448,-0.217,-0.3888,-0.4152,-0.5196,-0.6828,-0.6915,-0.7421,-0.8286,0.0,-0.9225,-1.0065,-1.0555,-1.0735,-1.0757,-1.1047,-1.1096,-1.1145,-1.1785,-1.2603,-1.3607,0.0,0.0,0.0,0.0,0.0,0.0,0.0,0.0,0.0,0.0,0.0,0.0,0.0,0.0,0.0,0.0,0.0,0.0,0.0,0.0,0.0,-1.1951,-1.1827,-1.1787,-1.194,-1.1789,-1.168,-1.168,-1.1581,-1.1477,-1.1368,-1.125,-1.1194,-1.1194,-1.1194,-1.1194,-1.1194,-1.1194,-1.1194,-1.1194,0.0,0.0,0.0,0.0,0.0,0.0,0.0,0.0,0.0,0.0,-1.1194,-1.1096,-1.06,0.0,0.0,0.0,0.0,0.0,-0.8863,-0.8418,-0.7793,-0.6908,-0.6176,-0.555,0.0,0.0,0.0,0.0,0.0,0.0,0.0,0.0,-0.3284,-0.232,0.0,-0.116,-0.1715,-0.1547,-0.1379,0.0,0.0,-0.2193,-0.2156,-0.2969,-0.3384,-0.3078,-0.305,-0.2759,-0.2209,-0.2192,-0.2019,-0.1746,-0.1474,-0.136,-0.1511,-0.136,-0.201,-0.339,-0.3943,-0.4857,-0.6071,-0.6426,-0.7235,-0.8334,0.0,-0.9149,-1.0216,-1.0462,-1.0556,-1.0609,-1.0703,-1.0757,-1.09,-1.216,-1.2786,-1.3318,0.0,0.0,0.0,0.0,0.0,0.0,0.0,0.0,0.0,0.0,0.0,0.0,0.0,0.0,0.0,0.0,0.0,0.0,0.0,0.0,-1.1459,-1.206,-1.2114,-1.2095,-1.2161,-1.1949,-1.1893,-1.1893,-1.1841,-1.1713,-1.1515,-1.135,-1.1246,-1.1198,-1.1246,-1.1269,-1.1269,-1.1269,-1.1269,-1.1269,0.0,0.0,0.0,0.0,0.0,0.0,0.0,0.0,0.0,0.0,0.0,0.0,0.0,0.0,0.0,-1.1194,-1.06,-0.9953,-0.9953,-0.9361,-0.8755,-0.8711,0.0,0.0,0.0,0.0,0.0,0.0,0.0,0.0,0.0,-0.4986,0.0,-0.4132,-0.2988,-0.2312,-0.2557,-0.2586,-0.256,-0.2496,-0.2909,-0.3134,-0.3079,-0.3519,-0.3739,-0.3563,-0.3531,-0.3247,-0.2716,-0.2558,-0.229,-0.1917,-0.1546,-0.1384,-0.1379,-0.1326,-0.1801,-0.2855,-0.3699,-0.4541,-0.5395,-0.6226,-0.7235,-0.8333,-0.8528,-0.9225,-1.0314,-1.0364,-1.0413,-1.0413,-1.0413,-1.0364,-1.0507,-1.2393,-1.2926,-1.3017,0.0,0.0,0.0,0.0,0.0,0.0,0.0,0.0,0.0,0.0,0.0,0.0,0.0,0.0,0.0,0.0,0.0,0.0,0.0,0.0,-1.1787,-1.2327,-1.2387,-1.2377,-1.2363,-1.2165,-1.2067,-1.2067,-1.1864,-1.1713,-1.152,-1.1505,-1.1387,-1.1203,-1.1406,-1.1496,-1.1496,-1.1496,-1.1496,-1.1477,-1.1279,0.0,0.0,0.0,0.0,0.0,0.0,0.0,0.0,0.0,0.0,0.0,0.0,0.0,-1.1194,-1.1194,-1.1145,-1.1096,-1.1096,-1.1047,-1.0798,-0.9991,-0.8184,0.0,-0.6749,-0.6095,0.0,-0.5159,0.0,0.0,0.0,-0.4367,-0.408,-0.5098,-0.425,-0.3835,-0.4824,0.0,-0.4942,-0.486,-0.491,-0.4878,-0.4844,-0.4909,-0.4712,-0.4115,-0.4118,-0.3886,-0.33,-0.2769,-0.2504,-0.2451,-0.1918,-0.1692,-0.1666,-0.1405,-0.1665,-0.2441,-0.3573,-0.4513,-0.5251,-0.6542,-0.7487,-0.8088,-0.8825,-0.9468,-1.0068,-1.0314,-1.0413,-1.0413,-1.0413,-1.0265,-1.0261,-1.2344,-1.2926,-1.3017,0.0,0.0,0.0,0.0,0.0,0.0,0.0,0.0,0.0,0.0,0.0,0.0,0.0,0.0,0.0,0.0,0.0,0.0,0.0,0.0,-1.2005,-1.2382,-1.2387,-1.2387,-1.2387,-1.2311,-1.2274,-1.2274,-1.2067,-1.186,-1.1704,-1.1576,-1.1401,-1.1203,-1.142,-1.152,-1.1524,-1.1652,-1.1704,-1.1685,-1.1477,-1.1397,0.0,0.0,0.0,0.0,0.0,0.0,0.0,0.0,-1.1194,-1.1194,0.0,0.0,-1.1194,-1.1194,-1.1194,-1.1194,-1.1194,-1.1194,-1.1175,-1.1105,-0.9935,0.0,0.0,-0.7216,-0.6361,-0.6337,-0.58,0.0,0.0,0.0,-0.474,-0.5186,-0.4864,-0.4654,-0.5056,-0.5159,-0.5126,-0.5035,-0.5022,-0.4988,-0.4896,-0.4918,-0.4822,-0.4534,-0.4561,-0.4323,-0.3757,-0.3553,-0.3141,-0.2473,-0.2266,-0.19,-0.1379,-0.1277,-0.1378,-0.1683,-0.3106,-0.3955,-0.4282,-0.6284,-0.7587,-0.8283,-0.892,-0.9517,-1.0019,-1.0117,-1.0068,-0.992,-0.992,-0.9821,-1.0019,-1.2101,-1.278,-1.3017,0.0,0.0,0.0,0.0,0.0,0.0,0.0,0.0,0.0,0.0,0.0,0.0,0.0,0.0,0.0,0.0,0.0,0.0,0.0,-1.1841,-1.2114,-1.2382,-1.2387,-1.2387,-1.2387,-1.2387,-1.2387,-1.2387,-1.225,-1.2071,-1.1912,-1.1709,-1.1501,-1.1302,-1.1449,-1.1553,-1.1619,-1.1761,-1.1855,-1.1902,-1.1694,-1.1576,0.0,0.0,0.0,0.0,0.0,0.0,0.0,0.0,-1.1194,-1.1194,0.0,0.0,0.0,0.0,-1.1196,-1.1199,-1.1248,-1.1248,-1.1297,-1.1766,0.0,0.0,-1.0011,-0.8682,-0.7433,-0.7174,-0.6074,0.0,-0.5326,0.0,0.0,0.0,-0.5149,-0.5098,-0.5069,-0.5065,-0.503,-0.4939,-0.4928,-0.4904,-0.479,-0.4784,-0.4784,-0.4784,-0.4784,-0.4634,-0.4284,-0.4083,-0.3681,-0.2925,-0.2573,-0.2119,-0.1464,-0.1212,-0.101,-0.096,-0.2671,-0.3577,-0.383,-0.6134,-0.7587,-0.8283,-0.8825,-0.9369,-0.9871,-0.9871,-0.9776,-0.9579,-0.9579,-0.9579,-0.9821,-1.1565,-1.2436,-1.2974,0.0,0.0,0.0,0.0,0.0,0.0,0.0,0.0,0.0,0.0,0.0,0.0,0.0,0.0,0.0,0.0,0.0,0.0,0.0,-1.1841,-1.2114,-1.2382,-1.2387,-1.2387,-1.2387,-1.2387,-1.2387,-1.2387,-1.2387,-1.2283,-1.2081,-1.1864,-1.1709,-1.152,-1.152,-1.1628,-1.1817,-1.1817,-1.194,-1.2067,-1.1902,-1.1699,-1.152,0.0,0.0,0.0,0.0,0.0,0.0,0.0,-1.1194,-1.1194,0.0,0.0,0.0,0.0,-1.1151,-1.1162,-1.1414,-1.1313,-1.1258,0.0,0.0,0.0,-1.2229,-1.0613,-0.8575,-0.7371,0.0,-0.5188,-0.5188,-0.5169,0.0,-0.5106,-0.5106,-0.5075,-0.4983,-0.5023,-0.4937,-0.4794,-0.4784,-0.4784,-0.4784,-0.4784,-0.4784,-0.4784,-0.4784,-0.4784,-0.4784,-0.4284,-0.3982,-0.3982,-0.2975,-0.2269,-0.2017,-0.1212,-0.0657,-0.0455,-0.2318,-0.3476,-0.4083,-0.6234,-0.7487,-0.8038,-0.8581,-0.9126,-0.9628,-0.9579,-0.9579,-0.9579,-0.9579,-0.9579,-0.9723,-1.0783,-1.1853,-1.2829,0.0,0.0,0.0,0.0,0.0,0.0,0.0,0.0,0.0,0.0,0.0,0.0,0.0,0.0,0.0,0.0,0.0,0.0,0.0,-1.2005,-1.2332,-1.2387,-1.2387,-1.2387,-1.2387,-1.2387,-1.2387,-1.2387,-1.2387,-1.2283,-1.2081,-1.1864,-1.1709,-1.152,-1.152,-1.1628,-1.1817,-1.1817,-1.194,-1.2067,-1.1902,-1.1699,-1.152,0.0,0.0,0.0,0.0,0.0,0.0,0.0,0.0,0.0,0.0,0.0,0.0,-1.1198,-1.1044,-1.0947,-1.1239,-1.109,0.0,-1.1327,0.0,0.0,0.0,-1.0712,0.0,0.0,-0.6498,-0.6049,-0.5254,0.0,0.0,-0.5022,-0.5012,-0.4979,-0.4888,-0.4875,-0.4865,-0.4788,-0.4784,-0.4784,-0.4784,-0.4784,-0.4784,-0.4784,-0.4784,-0.4784,0.0,-0.4634,-0.4383,-0.4033,-0.3681,-0.3228,-0.2573,-0.1765,-0.1312,-0.1261,-0.2569,-0.3274,-0.3527,-0.6032,-0.7587,-0.8333,-0.8825,-0.9369,-0.9871,-0.9677,-0.9579,-0.9579,-0.9579,-0.9579,-0.9723,-1.0783,-1.1853,-1.2829,0.0,0.0,0.0,0.0,0.0,0.0,0.0,0.0,0.0,0.0,0.0,0.0,0.0,0.0,0.0,0.0,0.0,0.0,0.0,0.0,-1.2387,-1.2387,-1.2387,-1.2387,-1.2387,-1.2387,-1.2387,-1.2387,-1.2387,-1.2321,-1.2198,-1.1954,-1.1751,-1.1628,-1.1463,-1.1505,-1.1699,-1.1699,-1.1817,-1.1949,-1.1869,-1.1699,-1.152,0.0,0.0,0.0,0.0,0.0,0.0,0.0,0.0,0.0,0.0,0.0,0.0,-1.1047,-1.091,-1.083,-1.1073,-1.0979,0.0,-1.1281,-1.1522,-1.1634,-1.156,0.0,0.0,0.0,0.0,-0.6456,-0.5834,-0.5365,0.0,-0.4981,-0.5023,-0.4953,-0.4898,-0.4857,-0.4784,-0.4784,-0.4784,-0.477,-0.4787,-0.4783,-0.4769,-0.4732,-0.473,0.0,0.0,-0.473,-0.4599,-0.4287,-0.4088,-0.3703,-0.3127,-0.2421,-0.2017,-0.1917,-0.3123,-0.3676,-0.3726,-0.5882,-0.7434,-0.8432,-0.9171,-0.9719,-0.9969,-0.9727,-0.9579,-0.9579,-0.9579,-0.9579,-0.9723,-1.0783,-1.1853,-1.2829,0.0,0.0,0.0,0.0,0.0,0.0,0.0,0.0,0.0,0.0,0.0,0.0,0.0,0.0,0.0,0.0,0.0,0.0,0.0,0.0,-1.2387,-1.2387,-1.2387,-1.2387,-1.2387,-1.2387,-1.2387,-1.2387,-1.2387,-1.2387,-1.2372,-1.2011,-1.1817,-1.1798,-1.1383,-1.1316,-1.1515,-1.1496,-1.1605,-1.1794,-1.1808,-1.1699,-1.1524,-1.1562,0.0,0.0,0.0,0.0,0.0,0.0,0.0,0.0,-1.1194,0.0,-1.0801,-1.0801,-1.0739,-1.0685,-1.0937,0.0,0.0,-1.1508,-1.1503,0.0,-1.1636,-1.0928,-1.0147,-1.0059,0.0,-0.6796,-0.6654,-0.5796,-0.5139,-0.5035,-0.4992,-0.499,-0.5025,-0.49,-0.479,-0.4774,-0.4772,-0.479,-0.4704,-0.4696,-0.4661,-0.4627,0.0,0.0,-0.4621,-0.4621,-0.461,-0.4694,-0.4204,-0.3893,-0.371,-0.3111,-0.271,-0.251,-0.3807,-0.4455,-0.4457,-0.5824,-0.7135,-0.8482,-0.9525,-1.0019,-0.9969,-0.9727,-0.9579,-0.9579,-0.9579,-0.9616,-0.9797,-1.0805,-1.1861,-1.2908,0.0,0.0,0.0,0.0,0.0,0.0,0.0,0.0,0.0,0.0,0.0,0.0,0.0,0.0,0.0,0.0,0.0,0.0,0.0,0.0,0.0,0.0,0.0,0.0,0.0,0.0,0.0,-1.2387,-1.2387,-1.2387,0.0,0.0,0.0,-1.1798,0.0,-1.1316,-1.151,-1.1335,-1.1387,-1.1595,-1.1756,-1.1699,-1.1553,-1.1827,-1.1723,0.0,0.0,0.0,0.0,0.0,0.0,0.0,-1.1194,-1.1002,-1.0801,-1.0801,-1.0493,-1.0231,-1.0479,-1.0524,0.0,0.0,-1.0834,-1.1079,-1.1648,-1.1341,-1.0721,-0.9811,-0.9287,-0.8453,-0.6896,-0.6477,-0.607,-0.5235,-0.5139,-0.5135,-0.4992,-0.4955,-0.489,-0.4751,-0.4736,-0.47,-0.461,-0.4602,-0.4594,0.0,0.0,0.0,-0.4621,-0.4621,-0.4629,-0.46,-0.4504,-0.4418,-0.4388,-0.3667,-0.3233,0.0,-0.4234,-0.471,-0.4762,-0.5901,-0.7135,-0.8482,-0.9525,-1.0019,-0.9969,-0.9727,-0.9579,-0.9579,-0.9579,-0.997,-1.0503,-1.0738,-1.1853,-1.3279,0.0,0.0,0.0,0.0,0.0,0.0,0.0,0.0,0.0,0.0,0.0,0.0,0.0,0.0,0.0,0.0,0.0,0.0,0.0,0.0,0.0,0.0,0.0,0.0,0.0,0.0,0.0,0.0,0.0,0.0,0.0,0.0,0.0,-1.1798,0.0,-1.1255,-1.1354,-1.1241,-1.1321,-1.1529,-1.1633,-1.1671,-1.1685,-1.1902,-1.1747,-1.1457,-1.1457,0.0,0.0,0.0,0.0,0.0,0.0,0.0,-1.134,-1.1243,-1.1336,-1.1429,0.0,0.0,0.0,-1.078,0.0,-1.0933,-1.1549,-1.1425,-1.1058,-1.0558,-1.0062,-0.9261,-0.7671,-0.7069,-0.6485,-0.5273,-0.5147,-0.5116,-0.4932,-0.4871,-0.4796,-0.4659,-0.4645,-0.4608,-0.4516,-0.4508,0.0,0.0,0.0,-0.4442,-0.4442,-0.4442,-0.4461,-0.4506,-0.4508,-0.4528,-0.4621,-0.4191,-0.3954,-0.4001,-0.4942,-0.5648,-0.6122,-0.7068,-0.7862,-0.859,-0.9508,-0.9896,-0.9896,-0.9608,-0.9516,-0.9516,-0.942,-0.988,-1.0674,-1.1133,-1.221,-1.3477,0.0,0.0,0.0,0.0,0.0,0.0,0.0,0.0,0.0,0.0,0.0,0.0,0.0,0.0,0.0,0.0,0.0,0.0,0.0,0.0,0.0,0.0,0.0,0.0,0.0,0.0,0.0,0.0,0.0,0.0,0.0,0.0,0.0,-1.236,0.0,-1.1482,-1.1438,-1.1334,-1.1354,-1.1524,-1.16,-1.1723,-1.1879,-1.1912,-1.1746,-1.151,-1.151,-1.1359,-1.1116,-1.1116,0.0,0.0,0.0,0.0,-1.217,-1.1927,-1.2403,-1.2834,0.0,0.0,0.0,0.0,0.0,0.0,-1.1618,-1.1449,-1.1236,-1.1383,-1.0728,-0.9805,-0.8736,-0.7787,-0.6824,-0.5569,-0.5189,-0.502,-0.4788,-0.4753,-0.4669,-0.4561,-0.4549,-0.4512,-0.4374,0.0,0.0,0.0,0.0,-0.43,-0.43,-0.43,-0.4334,-0.4364,-0.4366,-0.4449,-0.4524,-0.4524,-0.4524,-0.4571,-0.5647,-0.6628,-0.7562,-0.8436,-0.8745,-0.8707,-0.941,-0.974,-0.9786,-0.9507,-0.9418,-0.9372,-0.9189,-0.9769,-1.0784,-1.1638,-1.2609,-1.3664,0.0,0.0,0.0,0.0,0.0,0.0,0.0,0.0,0.0,0.0,0.0,0.0,0.0,0.0,0.0,0.0,0.0,0.0,0.0,0.0,0.0,0.0,-1.3954,0.0,0.0,0.0,0.0,0.0,0.0,0.0,0.0,0.0,0.0,-1.4597,0.0,0.0,-1.2457,-1.1736,-1.1491,-1.1548,-1.186,-1.202,-1.2062,-1.2236,-1.2194,-1.199,-1.199,-1.1638,-1.1116,-1.1116,-1.1423,0.0,0.0,0.0,-1.2931,-1.2926,-1.2829,-1.2732,0.0,0.0,0.0,0.0,0.0,0.0,0.0,0.0,-1.1156,0.0,-1.1016,-1.0794,-0.9995,-0.8832,-0.7682,-0.6584,-0.5606,-0.4928,-0.4751,-0.4716,-0.4645,-0.4427,-0.4406,-0.4418,0.0,0.0,0.0,0.0,-0.43,-0.43,-0.43,-0.43,-0.4304,-0.4316,-0.4316,-0.4322,-0.4336,-0.4336,-0.4336,-0.4379,-0.5944,-0.7057,-0.7812,-0.8754,-0.9017,-0.866,-0.9228,-0.96,-0.9786,-0.9507,-0.9418,-0.9372,-0.9189,-1.0044,-1.1492,-1.1581,-1.2645,-1.4025,0.0,0.0,0.0,0.0,0.0,0.0,0.0,0.0,0.0,0.0,0.0,0.0,0.0,0.0,0.0,-1.3922,0.0,0.0,0.0,0.0,0.0,-1.4169,-1.4804,-1.5761,-1.7028,0.0,0.0,0.0,0.0,0.0,0.0,-1.7721,-1.663,0.0,0.0,0.0,0.0,-1.2456,-1.2077,-1.1713,-1.1963,-1.2156,-1.225,0.0,0.0,0.0,-1.1949,-1.1564,-1.1116,-1.1116,-1.1423,-1.1785,-1.1785,0.0,0.0,0.0,-1.4088,0.0,-1.3752,0.0,0.0,0.0,0.0,0.0,0.0,0.0,-1.1741,-1.1334,-1.1132,-1.0736,-0.9714,-0.9161,-0.8289,-0.6617,-0.5912,-0.5347,-0.4627,-0.4555,-0.4506,-0.4375,-0.4359,0.0,0.0,0.0,0.0,0.0,-0.43,-0.43,-0.43,-0.43,-0.43,-0.43,-0.43,-0.43,-0.43,-0.43,-0.4523,-0.4924,-0.6204,-0.7088,-0.7661,-0.864,-0.904,-0.9009,-0.9373,-0.9597,-0.9687,-0.9553,-0.9467,-0.9332,-0.9066,-0.9986,-1.1429,-1.1429,-1.2537,-1.4088,0.0,0.0,0.0,0.0,0.0,0.0,0.0,0.0,0.0,0.0,0.0,0.0,0.0,0.0,0.0,0.0,-1.3771,0.0,0.0,0.0,0.0,-1.5429,-1.6221,-1.7285,-1.8617,0.0,0.0,0.0,0.0,0.0,-2.0146,-1.946,-1.8142,0.0,-1.511,-1.413,0.0,0.0,0.0,0.0,0.0,-1.2222,0.0,0.0,0.0,0.0,-1.1873,-1.1456,-1.1078,-1.1231,-1.1567,-1.1922,-1.2214,-1.3377,0.0,0.0,0.0,0.0,0.0,0.0,0.0,0.0,0.0,0.0,0.0,0.0,0.0,0.0,-1.1254,-1.0587,-0.9573,-0.9332,-0.8776,-0.7085,-0.6589,-0.5994,-0.4878,-0.4719,-0.4645,-0.4484,0.0,0.0,0.0,0.0,0.0,0.0,-0.4476,-0.4431,-0.43,-0.43,-0.4344,-0.4389,-0.4344,-0.4342,-0.4476,-0.4433,-0.4656,-0.5146,-0.6293,-0.7041,-0.7441,-0.864,-0.9301,-0.9476,-0.9519,-0.9563,-0.9602,-0.9602,-0.9476,-0.9262,-0.8999,-0.9903,-1.1284,-1.1284,-1.2491,-1.4088,0.0,0.0,0.0,0.0,0.0,0.0,0.0,0.0,0.0,0.0,0.0,0.0,-1.8359,-1.6837,-1.5831,-1.5855,-1.4804,-1.4315,-1.4824,-1.5931,0.0,-1.888,-1.8731,0.0,-2.0359,0.0,0.0,0.0,0.0,0.0,-2.0358,-1.9486,-1.9,-1.8733,-1.7174,-1.5988,-1.5185,0.0,0.0,0.0,0.0,0.0,0.0,0.0,0.0,0.0,-1.1875,-1.1405,-1.1099,-1.1668,-1.2197,-1.2829,-1.3854,-1.4867,-1.5737,0.0,0.0,0.0,0.0,0.0,0.0,0.0,0.0,0.0,0.0,0.0,0.0,0.0,-1.1419,-1.074,-1.0254,-0.952,-0.8946,-0.877,-0.792,-0.6869,-0.5791,-0.5641,0.0,0.0,0.0,0.0,0.0,0.0,0.0,0.0,-0.4966,-0.4788,-0.4344,-0.43,-0.4433,-0.4661,-0.4433,-0.452,-0.4966,-0.4792,-0.4569,-0.4389,-0.6198,-0.7078,-0.7166,-0.9065,-0.9951,-0.9951,-0.9519,-0.9432,-0.9602,-0.9602,-0.9476,-0.9262,-0.8999,-0.9903,-1.1284,-1.1284,-1.2491,-1.4088,0.0,0.0,0.0,0.0,0.0,0.0,0.0,0.0,0.0,0.0,0.0,0.0,0.0,-1.8431,-1.7619,-1.8234,-1.7095,-1.6408,-1.6613,-1.7666,0.0,-1.9191,-1.9642,-2.0138,-2.0719,0.0,0.0,0.0,0.0,-2.0531,-2.0384,-1.988,-1.9291,-1.8718,-1.7762,-1.6709,-1.5648,-1.5593,0.0,0.0,0.0,0.0,0.0,0.0,0.0,0.0,-1.1695,-1.1311,-1.1135,-1.1923,-1.246,-1.3111,-1.4203,-1.5107,-1.5784,-1.5784,-1.5784,-1.5784,0.0,0.0,0.0,0.0,0.0,0.0,0.0,0.0,0.0,0.0,-1.2764,-1.1937,-1.1302,-1.0415,-0.9576,-0.8771,-0.8308,-0.7723,-0.6738,0.0,0.0,0.0,0.0,0.0,0.0,0.0,0.0,0.0,0.0,-0.4921,-0.4743,-0.4476,-0.4344,-0.4433,-0.4344,-0.4389,-0.4565,-0.4478,-0.4389,-0.4344,-0.6198,-0.7037,-0.6953,-0.8894,-0.9694,-0.9563,-0.9519,-0.965,-0.9864,-0.9864,-0.9694,-0.9476,-0.9257,-1.012,-1.1542,-1.1365,-1.2491,-1.4088,0.0,0.0,0.0,0.0,0.0,0.0,0.0,0.0,0.0,-1.9399,0.0,0.0,0.0,0.0,-1.9109,-1.9413,-1.8984,-1.8568,-1.8345,-1.9398,-2.0084,-2.0187,-2.0644,-2.0917,-2.1019,0.0,0.0,0.0,0.0,0.0,0.0,-1.9909,-1.9367,-1.8651,-1.824,-1.738,0.0,0.0,0.0,-1.3988,0.0,0.0,-1.3022,0.0,0.0,0.0,-1.2049,-1.1817,-1.1855,-1.2905,-1.3493,-1.3902,-1.4912,-1.548,-1.5784,-1.5784,-1.5784,0.0,-1.5712,0.0,0.0,0.0,0.0,0.0,0.0,0.0,0.0,0.0,0.0,-1.3256,-1.2327,-1.1689,-1.0765,-0.9231,-0.9019,0.0,0.0,0.0,0.0,0.0,0.0,0.0,0.0,0.0,0.0,0.0,0.0,0.0,-0.501,-0.4654,-0.4478,-0.452,-0.4701,-0.4701,-0.452,-0.4612,-0.4612,-0.4433,-0.6024,-0.6817,-0.6953,-0.8496,-0.934,-0.9563,-0.9694,-0.9777,-0.9864,-0.9951,-0.982,-0.9602,-0.9432,-1.0337,-1.1677,-1.1499,-1.2577,-1.4088,0.0,0.0,0.0,0.0,0.0,0.0,0.0,0.0,0.0,-1.9312,0.0,0.0,0.0,0.0,0.0,-1.9295,-2.0246,-2.0664,-2.0105,-2.1057,-2.1794,-2.2047,0.0,0.0,0.0,0.0,0.0,0.0,0.0,0.0,0.0,0.0,-1.9177,-1.8781,-1.8781,-1.8133,-1.7001,0.0,-1.6295,-1.5878,0.0,-1.4752,-1.4314,0.0,0.0,0.0,-1.3062,-1.3087,0.0,-1.4732,0.0,0.0,0.0,-1.6072,-1.5784,-1.5784,-1.5784,0.0,0.0,0.0,0.0,0.0,0.0,0.0,0.0,0.0,0.0,0.0,0.0,0.0,0.0,0.0,0.0,0.0,0.0,0.0,0.0,0.0,0.0,0.0,0.0,0.0,0.0,0.0,0.0,0.0,-0.5985,-0.5497,-0.5053,-0.4837,-0.4792,-0.501,-0.546,-0.5463,-0.501,-0.5235,-0.5149,-0.4705,-0.563,-0.6464,-0.7122,-0.8053,-0.9069,-0.9994,-0.9994,-0.9864,-0.9646,-0.9907,-0.9864,-0.9602,-0.9602,-1.0463,-1.1714,-1.1714,-1.2705,-1.4088,0.0,0.0,0.0,0.0,0.0,0.0,0.0,0.0,-1.8821,0.0,0.0,0.0,-1.9375,-1.9966,-2.0206,-1.9933,-2.0598,-2.1047,-2.1014,-2.1186,-2.13,-2.1398,-2.0908,0.0,0.0,0.0,0.0,0.0,0.0,0.0,0.0,0.0,0.0,0.0,-1.8781,-1.8411,-1.7783,-1.7526,0.0,-1.6045,-1.5285,-1.5019,0.0,0.0,0.0,0.0,0.0,-1.443,-1.4579,0.0,-1.5569,-1.5487,0.0,0.0,0.0,0.0,0.0,0.0,-1.5881,0.0,0.0,0.0,0.0,0.0,0.0,0.0,0.0,0.0,0.0,0.0,0.0,0.0,0.0,0.0,0.0,0.0,0.0,0.0,0.0,0.0,0.0,0.0,0.0,0.0,0.0,0.0,-0.6163,-0.563,-0.5497,-0.5015,-0.4792,-0.501,-0.5144,-0.5144,-0.501,-0.5055,-0.4968,-0.4705,-0.563,-0.6464,-0.7122,-0.8053,-0.9069,-0.9994,-0.9994,-0.9951,-0.9907,-0.9951,-0.9951,-0.9864,-0.9689,-1.0549,-1.1886,-1.1757,-1.2705,-1.4088,0.0,0.0,0.0,0.0,0.0,0.0,0.0,0.0,-1.8781,0.0,0.0,0.0,-1.9678,-1.9974,-2.0224,-2.0598,-2.0791,-2.0998,-2.1086,-2.0998,-2.0853,-2.0757,-2.0475,-2.0232,0.0,0.0,0.0,0.0,0.0,0.0,0.0,0.0,0.0,0.0,0.0,0.0,0.0,0.0,0.0,0.0,-1.6899,0.0,0.0,-1.6174,-1.6021,0.0,0.0,0.0,-1.6121,-1.6505,-1.6294,0.0,0.0,0.0,0.0,0.0,0.0,0.0,0.0,0.0,0.0,0.0,0.0,0.0,-1.6123,-1.6716,-1.6972,0.0,-1.6682,0.0,0.0,0.0,0.0,0.0,0.0,0.0,0.0,0.0,0.0,0.0,0.0,0.0,0.0,-0.8921,-0.8746,-0.8317,-0.7217,-0.6293,-0.5633,-0.5102,-0.4924,-0.5146,-0.5235,-0.528,-0.528,-0.528,-0.5193,-0.5018,-0.5453,-0.6201,-0.7261,-0.7702,-0.8671,-0.9994,-0.9994,-0.9994,-0.9994,-0.9994,-0.9994,-0.9994,-0.982,-1.0679,-1.1972,-1.1886,-1.279,-1.4088,0.0,0.0,0.0,0.0,0.0,0.0,0.0,0.0,-1.8891,0.0,-1.8915,-1.9279,-2.016,-1.9989,-2.015,-2.1016,-2.0801,-2.0603,-2.0651,-2.0561,-2.0449,-2.0208,-2.016,-2.0031,-1.9853,0.0,0.0,0.0,0.0,0.0,0.0,0.0,0.0,0.0,0.0,0.0,0.0,0.0,0.0,-1.8856,-1.8957,-1.8782,0.0,0.0,-1.7404,-1.6564,-1.6783,-1.7199,-1.766,-1.7588,-1.7168,0.0,0.0,0.0,0.0,0.0,-1.5784,0.0,0.0,0.0,0.0,0.0,0.0,0.0,-1.514,-1.6066,-1.6906,-1.664,-1.6969,0.0,0.0,0.0,0.0,0.0,0.0,0.0,0.0,0.0,0.0,0.0,0.0,0.0,-1.0144,-1.0053,-1.0009,-0.9923,-0.8659,-0.7261,-0.5769,-0.5366,-0.5277,-0.5549,-0.5641,-0.5688,-0.5688,-0.5688,-0.5599,-0.5416,-0.5144,-0.5894,-0.7489,-0.7214,-0.8181,-0.9994,-0.9994,-0.9994,-0.9994,-0.9994,-0.9994,-0.9994,-0.9994,-1.0809,-1.2015,-1.2015,-1.2875,-1.4088,0.0,0.0,0.0,0.0,0.0,0.0,0.0,0.0,0.0,-1.9264,-1.9495,-1.9765,-1.9949,-1.9902,-2.0022,-2.0354,-2.0086,-1.9978,-2.0206,-1.9747,-1.9445,-1.9406,-1.922,-1.9216,-1.9511,0.0,0.0,0.0,0.0,0.0,0.0,0.0,0.0,0.0,0.0,0.0,0.0,0.0,0.0,-1.9576,-1.8251,0.0,-1.867,-1.8192,-1.7989,-1.7943,-1.7799,-1.7799,-1.7864,-1.7418,-1.7001,-1.6667,0.0,0.0,0.0,-1.5784,0.0,0.0,0.0,0.0,0.0,0.0,0.0,0.0,-1.5745,-1.6307,-1.6655,0.0,-1.6815,0.0,0.0,0.0,0.0,0.0,0.0,0.0,0.0,0.0,0.0,0.0,0.0,0.0,-1.1079,-1.102,-1.0712,-0.9966,-0.896,-0.8177,-0.7698,-0.6691,-0.6251,-0.6514,-0.5994,-0.5688,-0.5688,-0.5688,-0.5599,-0.5416,-0.5144,-0.5894,-0.7489,-0.7214,-0.8181,-0.9994,-0.9994,-0.9994,-0.9994,-0.9994,-0.9994,-0.9994,-0.9994,-1.0809,-1.2015,-1.2015,-1.2875,-1.4088,0.0,0.0,0.0,0.0,0.0,0.0,0.0,0.0,0.0,0.0,0.0,-1.998,-2.0106,-2.002,-1.9988,-2.027,-2.0006,-1.9773,-1.9746,-1.9475,-1.9204,-1.902,-1.8874,-1.8915,-1.9098,-1.8923,0.0,0.0,0.0,0.0,0.0,0.0,0.0,0.0,0.0,0.0,0.0,0.0,-1.9304,-1.9598,-1.9094,0.0,-1.9198,-1.8938,-1.8677,-1.837,-1.8122,-1.7911,-1.7759,-1.7661,-1.7201,0.0,-1.6359,-1.6072,-1.5784,0.0,-1.5732,-1.5564,0.0,0.0,0.0,-1.5021,0.0,0.0,0.0,-1.6277,-1.6536,-1.6415,-1.6528,-1.6587,-1.6431,0.0,0.0,0.0,0.0,0.0,0.0,0.0,0.0,0.0,0.0,0.0,-1.2375,-1.2057,-1.1408,-1.0323,-0.9618,-0.8834,-0.8049,-0.7438,-0.6956,-0.6605,-0.6479,-0.6174,-0.5688,-0.5688,-0.5644,-0.5552,-0.5327,-0.6074,-0.7661,-0.7394,-0.8277,-0.9994,-0.9994,-0.9994,-0.9994,-0.9994,-0.9994,-0.9994,-0.9994,-1.0809,-1.2015,-1.2015,-1.2875,-1.4088,-2.4061,0.0,0.0,0.0,0.0,0.0,0.0,0.0,0.0,0.0,0.0,0.0,0.0,0.0,0.0,0.0,0.0,0.0,0.0,-1.959,-1.9336,-1.9042,-1.8899,-1.8891,-1.9026,-1.8853,-1.8821,0.0,0.0,0.0,0.0,0.0,0.0,0.0,0.0,0.0,0.0,0.0,0.0,-1.9272,0.0,-1.9888,-1.9701,-1.9657,-1.9101,-1.837,-1.8069,-1.7759,-1.756,-1.7726,-1.7271,-1.6573,-1.6426,-1.6115,0.0,0.0,0.0,0.0,0.0,0.0,0.0,0.0,0.0,-1.5376,0.0,0.0,0.0,0.0,0.0,0.0,0.0,0.0,0.0,0.0,0.0,0.0,0.0,0.0,0.0,0.0,0.0,0.0,-1.3652,-1.3045,-1.2149,-1.0895,-1.0404,-0.9662,-0.8532,-0.826,-0.769,-0.6694,-0.6989,-0.6681,-0.5688,-0.5688,-0.5688,-0.5688,-0.5508,-0.6251,-0.779,-0.7573,-0.8412,-0.9994,-0.9994,-0.9994,-0.9994,-0.9994,-0.9971,-0.9937,-0.998,-1.0809,-1.2015,-1.2015,-1.2875,-1.4088,-2.4356,-2.4149,0.0,0.0,0.0,0.0,0.0,0.0,0.0,0.0,0.0,0.0,0.0,0.0,0.0,0.0,0.0,0.0,-2.0766,0.0,0.0,0.0,0.0,-1.9113,-1.9781,-1.9145,-1.8986,0.0,0.0,0.0,0.0,0.0,0.0,0.0,-1.8781,0.0,0.0,0.0,-1.8754,0.0,-1.877,-1.9143,0.0,-1.9428,-1.8952,-1.8318,-1.7845,-1.7474,-1.7206,0.0,-1.661,-1.6363,0.0,-1.6184,-1.5872,-1.6353,0.0,0.0,0.0,0.0,0.0,0.0,-1.5068,0.0,0.0,0.0,-1.6239,-1.6593,0.0,0.0,0.0,0.0,0.0,0.0,0.0,0.0,0.0,0.0,0.0,0.0,0.0,0.0,0.0,-1.3942,-1.3003,-1.1671,-1.1327,-1.1063,-1.0933,-0.9939,-0.884,-0.7661,-0.7531,-0.6869,-0.5691,-0.5688,-0.5688,-0.5688,-0.5508,-0.6251,-0.779,-0.7573,-0.8412,-0.9994,-0.9994,-0.9994,-0.9994,-0.9994,-0.9842,-0.9658,-0.9923,-1.0809,-1.2015,-1.2015,-1.2875,-1.4088,-2.3958,-2.3841,0.0,0.0,0.0,0.0,0.0,0.0,0.0,0.0,0.0,0.0,0.0,0.0,0.0,0.0,0.0,-2.1246,0.0,0.0,0.0,0.0,0.0,-1.8962,-1.9256,-1.8978,-1.8861,-1.9058,-1.8861,0.0,0.0,0.0,0.0,0.0,-1.8781,0.0,-1.8781,0.0,-1.8776,0.0,0.0,0.0,0.0,-1.8796,-1.8215,-1.7671,-1.7237,-1.6994,-1.6847,0.0,-1.6562,0.0,0.0,0.0,0.0,0.0,0.0,0.0,0.0,0.0,0.0,0.0,0.0,0.0,-1.6283,0.0,-1.6492,0.0,0.0,0.0,0.0,0.0,0.0,0.0,-1.7367,0.0,0.0,0.0,0.0,0.0,0.0,0.0,0.0,0.0,0.0,0.0,-1.1923,-1.1494,-1.0598,-1.0202,-0.9646,-0.8872,-0.8857,-0.8503,-0.7756,-0.7752,-0.7752,-0.7706,-0.7351,-0.7755,-0.8828,-0.8456,-0.8938,-0.9994,-0.9994,-0.9928,-0.9771,-0.9771,-0.9649,-0.9428,-0.9554,-1.0413,-1.1575,-1.1575,-1.2451,-1.3581,-2.3608,0.0,0.0,0.0,0.0,0.0,0.0,0.0,0.0,0.0,0.0,0.0,-2.1016,-2.1234,0.0,0.0,-2.1769,-2.1674,0.0,0.0,-2.0464,0.0,0.0,0.0,-1.9113,-1.8876,-1.8781,0.0,0.0,0.0,0.0,0.0,0.0,0.0,0.0,-1.8781,-1.8781,0.0,-1.8735,-1.862,-1.8926,-1.8996,-1.8898,-1.8288,-1.774,-1.7255,-1.6831,-1.6753,-1.6751,-1.6395,-1.6462,0.0,-1.6035,0.0,0.0,0.0,0.0,0.0,-1.5479,0.0,0.0,0.0,0.0,0.0,0.0,0.0,0.0,0.0,0.0,0.0,0.0,0.0,0.0,0.0,0.0,-1.7836,0.0,0.0,0.0,0.0,0.0,0.0,0.0,0.0,0.0,-1.2752,-1.2672,-1.2112,-1.0644,-1.07,-1.0352,-0.9455,-0.9687,-0.9479,-0.8822,-0.8826,-0.8826,-0.8822,-0.8475,-0.869,-0.9406,-0.9042,-0.9288,-0.9994,-0.9937,-0.9786,-0.9597,-0.954,-0.939,-0.9202,-0.9202,-0.9962,-1.1112,-1.1244,-1.2108,-1.3213,-2.3549,-2.3667,0.0,0.0,0.0,0.0,0.0,0.0,0.0,0.0,0.0,0.0,0.0,0.0,0.0,0.0,0.0,-2.2815,-2.2458,0.0,-2.1357,0.0,0.0,-1.955,0.0,0.0,0.0,0.0,0.0,0.0,0.0,0.0,0.0,0.0,0.0,-1.8781,-1.8781,-1.8781,-1.855,-1.8133,-1.8148,-1.801,-1.79,0.0,-1.7967,-1.742,-1.6907,0.0,0.0,-1.6468,-1.6079,0.0,0.0,0.0,0.0,0.0,0.0,0.0,0.0,0.0,0.0,-1.6446,0.0,0.0,0.0,0.0,-1.7957,0.0,0.0,0.0,0.0,0.0,0.0,0.0,0.0,0.0,0.0,0.0,0.0,0.0,0.0,0.0,0.0,0.0,-1.5056,-1.3567,-1.3629,-1.3242,-1.2109,-1.2028,-1.1086,-0.8999,-0.9348,-0.9044,-0.7848,-0.7848,-0.7848,-0.7848,-0.7841,-0.8193,-0.8942,-0.8894,-0.9288,-0.9985,-0.9743,-0.9611,-0.9587,-0.938,-0.9173,-0.8995,-0.8995,-0.964,-1.0598,-1.1118,-1.2108,-1.3213,0.0,0.0,0.0,0.0,0.0,0.0,0.0,-2.4182,0.0,0.0,-2.198,0.0,0.0,-2.1997,-2.2282,0.0,0.0,-2.2617,-2.2498,-2.1785,0.0,0.0,0.0,-1.9694,0.0,0.0,0.0,0.0,0.0,0.0,0.0,0.0,0.0,0.0,0.0,-1.9271,0.0,0.0,0.0,0.0,0.0,-1.8334,-1.798,0.0,-1.745,-1.7121,-1.6773,-1.6443,0.0,-1.5805,-1.5859,-1.5948,-1.5516,-1.5829,-1.6267,-1.5565,-1.5534,0.0,0.0,0.0,-1.5514,-1.6375,0.0,0.0,0.0,0.0,0.0,0.0,0.0,0.0,0.0,0.0,0.0,0.0,0.0,0.0,0.0,0.0,0.0,0.0,0.0,0.0,0.0,0.0,0.0,-1.4606,-1.4412,-1.3806,-1.2573,-1.2551,-1.1998,-1.0775,-1.1057,-1.086,-1.0167,-1.0171,-1.0171,-1.0167,-0.9858,-0.9843,-1.0065,-0.9793,-0.9772,-0.9985,-0.9734,-0.9522,-0.9376,-0.9169,-0.9198,-0.9394,-0.9394,-1.01,-1.1055,-1.0854,-1.1536,-1.2612,-2.3926,0.0,0.0,0.0,0.0,0.0,0.0,0.0,0.0,0.0,-2.2305,0.0,-2.1979,0.0,-2.2235,0.0,-2.2601,-2.2625,-2.2498,-2.2069,0.0,-2.0968,-2.04,-1.9886,0.0,0.0,0.0,0.0,0.0,-2.0348,0.0,0.0,0.0,0.0,0.0,-1.8996,-1.855,0.0,-1.8697,0.0,0.0,-1.8504,0.0,0.0,-1.7261,-1.7025,0.0,-1.6047,-1.5859,-1.5383,-1.5465,-1.5613,-1.5152,-1.5542,-1.608,-1.537,-1.5472,-1.5849,-1.5784,-1.57,0.0,-1.6286,-1.6359,0.0,-1.7181,0.0,-1.8016,0.0,0.0,0.0,0.0,0.0,0.0,0.0,0.0,0.0,0.0,-2.1031,0.0,0.0,0.0,0.0,0.0,0.0,-1.7557,-1.5688,-1.5497,-1.4844,0.0,0.0,-1.2616,-1.1481,-1.1641,-1.1496,-1.0895,-1.0895,-1.0895,-1.0895,-1.0578,-1.047,-1.042,-1.0148,-0.9952,-0.9833,-0.9583,-0.9495,-0.9516,-0.9311,-0.9486,-0.9916,-0.9916,-1.0513,-1.1335,-1.0962,-1.1446,-1.2305,0.0,0.0,0.0,0.0,-2.5279,0.0,0.0,0.0,-2.4312,0.0,-2.2815,-2.1685,-2.2027,-2.2307,-2.2513,-2.2513,-2.2823,-2.2871,-2.2537,-2.2482,0.0,0.0,-2.0649,-2.0205,-1.9613,0.0,0.0,0.0,0.0,0.0,0.0,0.0,0.0,0.0,-1.8904,0.0,-1.8179,-1.8427,-1.8527,-1.8527,-1.8743,-1.8535,-1.8072,-1.775,-1.7492,-1.7098,-1.5841,-1.5693,-1.5958,-1.5217,-1.4995,-1.5001,-1.4995,-1.5008,-1.5082,-1.5317,-1.5404,-1.551,-1.5964,-1.6095,-1.6116,-1.6306,-1.6367,0.0,0.0,0.0,-1.8719,0.0,0.0,0.0,0.0,0.0,0.0,0.0,0.0,0.0,0.0,0.0,0.0,0.0,0.0,0.0,0.0,-1.8847,-1.8556,-1.6699,-1.6892,-1.6282,0.0,0.0,-1.302,-1.1165,-1.1284,-1.0939,-1.0081,-1.0038,-0.9994,-0.9994,-0.9994,-0.9994,-0.9994,-0.9985,-0.9828,-0.9592,-0.9366,-0.9516,-0.9899,-0.9675,-0.996,-1.0556,-1.0556,-1.0925,-1.1446,-1.1446,-1.1818,-1.2305,-2.4824,-2.4695,-2.4702,0.0,-2.5448,-2.6077,0.0,0.0,0.0,0.0,-2.3999,-2.3311,-2.2815,-2.2823,-2.2879,-2.2879,-2.2966,0.0,0.0,0.0,0.0,-2.1079,-2.0504,-1.9992,-1.962,-1.9219,-1.9582,-2.0712,0.0,0.0,-2.2687,0.0,0.0,0.0,0.0,0.0,-1.9126,-1.8697,-1.8566,-1.8743,-1.8781,-1.8577,0.0,0.0,-1.7379,-1.6952,-1.5984,-1.5687,-1.5638,-1.4862,-1.4998,-1.5356,-1.4791,-1.4937,-1.5297,-1.5378,-1.5545,-1.5718,-1.5853,-1.59,-1.6113,-1.6987,-1.7169,-1.7532,0.0,0.0,0.0,0.0,0.0,0.0,0.0,0.0,0.0,0.0,0.0,0.0,0.0,0.0,0.0,-2.1167,0.0,0.0,-1.9678,-1.99,-1.921,-1.7253,-1.731,0.0,0.0,0.0,0.0,-1.2839,-1.2363,-1.1757,-1.0982,-1.0337,-0.9994,-0.9994,-0.9994,-0.9994,-0.999,-0.9795,-0.9653,-0.9583,-0.9221,-0.9384,-0.9899,-0.9675,-1.0218,-1.1186,-1.1186,-1.1558,-1.2077,-1.2077,-1.215,-1.2305,-2.5117,0.0,0.0,-2.5116,0.0,0.0,-2.6553,-2.6025,0.0,-2.5795,-2.503,0.0,-2.3838,-2.4111,-2.3886,-2.2688,-2.2943,0.0,-2.1798,0.0,0.0,-2.0507,-2.0279,-1.9947,-1.9477,-1.9368,0.0,-2.1139,0.0,0.0,-2.3057,0.0,0.0,0.0,0.0,-1.8938,0.0,-1.8352,-1.8285,-1.8551,-1.846,-1.812,0.0,-1.7326,-1.6879,-1.6379,-1.5561,-1.5473,-1.5595,-1.4998,-1.5097,-1.5344,-1.5003,-1.513,-1.5424,-1.5545,-1.5705,-1.5784,-1.5784,-1.5784,-1.5927,-1.659,-1.6938,-1.7468,-1.8609,-1.8887,-1.9159,0.0,-2.0066,-2.0038,0.0,0.0,0.0,0.0,0.0,0.0,0.0,0.0,0.0,0.0,-2.1205,0.0,-2.0683,-2.0654,-1.9951,-1.8158,-1.825,0.0,0.0,0.0,0.0,-1.344,-1.3124,-1.265,-1.1918,-1.1025,-1.0554,-1.0549,-1.0072,-0.9819,-0.9809,-0.9559,-0.9418,-0.9319,-0.9358,-0.9667,-1.0176,-1.0311,-1.0925,-1.1781,-1.1781,-1.2003,-1.2305,-1.2305,-1.2305,-1.2305,-2.5156,0.0,0.0,0.0,0.0,0.0,0.0,-2.5916,0.0,-2.6836,0.0,-2.5129,-2.4853,-2.5518,-2.4977,-2.2607,0.0,-2.2781,-2.0954,-2.1048,-2.0765,-1.9769,-1.9926,-1.9821,-1.9331,-1.9856,-2.0483,0.0,0.0,0.0,0.0,0.0,0.0,0.0,0.0,0.0,0.0,-1.7733,-1.7829,-1.8232,-1.7918,-1.7449,-1.69,-1.6639,-1.6189,-1.5639,-1.5035,-1.5198,-1.5683,-1.5268,-1.5187,-1.5276,-1.5354,-1.5424,-1.5504,-1.5752,-1.5758,-1.5772,-1.5772,-1.5698,-1.5712,-1.5853,-1.6384,-1.6996,-1.768,-1.8228,-1.8852,-1.9711,-1.9876,-1.9858,0.0,0.0,0.0,0.0,0.0,0.0,0.0,0.0,0.0,0.0,0.0,0.0,0.0,0.0,0.0,0.0,0.0,0.0,0.0,0.0,0.0,-1.3603,-1.3633,-1.3408,-1.2845,0.0,-1.1477,-1.1407,-1.0314,-0.9756,-0.9718,-0.9502,-0.9306,-0.9138,-0.9766,-1.0253,-1.0663,-1.1186,-1.1744,-1.2305,-1.2305,-1.2305,-1.2305,-1.2305,-1.2305,-1.2305,0.0,0.0,0.0,0.0,0.0,-2.6436,-2.6486,-2.7107,-2.7269,-2.6548,-2.6739,-2.6439,-2.5128,-2.5102,-2.4898,-2.4095,-2.4166,0.0,0.0,0.0,0.0,-1.9841,-1.9574,-1.9382,-1.9279,-1.9675,-2.0289,0.0,0.0,0.0,0.0,0.0,0.0,0.0,0.0,0.0,-1.7561,-1.7448,0.0,-1.7866,-1.7427,-1.7001,-1.6601,-1.6199,-1.5801,-1.5467,-1.5333,-1.5347,-1.5393,-1.4817,-1.5021,-1.5503,-1.5421,-1.5565,-1.5718,-1.5764,-1.5658,-1.5471,-1.5471,-1.5297,-1.5337,-1.6111,-1.6898,-1.7759,-1.8707,-1.9274,-1.9679,-1.9843,-1.9635,-1.9527,-1.9839,0.0,0.0,0.0,0.0,0.0,0.0,0.0,0.0,0.0,0.0,-2.0761,0.0,0.0,0.0,0.0,0.0,0.0,0.0,0.0,0.0,0.0,-1.3724,0.0,0.0,0.0,-1.2318,-1.204,-1.1149,-1.0611,-1.0335,-1.015,-0.9951,-0.9787,-1.0362,-1.0854,-1.126,-1.1372,-1.1744,-1.2305,-1.2305,-1.2305,-1.2305,-1.2305,-1.2305,-1.2305,0.0,0.0,0.0,0.0,0.0,0.0,0.0,-2.7016,-2.7356,-2.6933,-2.7017,-2.6697,-2.5706,-2.5968,-2.5592,-2.4042,-2.4335,-2.373,-2.1715,-2.1944,-2.1648,-2.0427,-2.0558,-2.0673,-2.0673,-2.0598,-2.0895,-2.1737,0.0,0.0,0.0,0.0,0.0,0.0,0.0,-1.7792,0.0,0.0,0.0,-1.7517,-1.7157,-1.6742,-1.6316,-1.6106,-1.5883,-1.5741,-1.5484,-1.5567,-1.5691,-1.5236,-1.5599,-1.6142,-1.5574,-1.5677,-1.5897,-1.5517,-1.5284,-1.517,-1.517,-1.5417,-1.5784,-1.6264,-1.7199,-1.8177,-1.8659,-1.9215,-1.9604,-1.9604,-1.9439,-1.9341,-1.9539,-1.9863,0.0,0.0,0.0,0.0,0.0,0.0,-2.0504,0.0,0.0,0.0,0.0,0.0,0.0,0.0,0.0,0.0,0.0,0.0,0.0,0.0,0.0,0.0,0.0,0.0,0.0,-1.2912,-1.1762,-1.113,-1.0965,-1.076,-1.0575,-1.0379,-1.1016,-1.1335,-1.1409,-1.1744,-1.204,-1.2305,-1.2305,-1.2305,-1.2305,-1.2305,-1.2305,-1.2305,0.0,-2.5615,0.0,0.0,-2.6103,0.0,-2.6269,-2.6611,-2.6965,-2.7288,-2.7061,-2.6682,-2.6206,-2.6805,-2.6307,-2.4095,-2.4469,-2.3876,-2.1593,-2.2146,-2.2103,-2.1008,-2.1486,-2.1767,-2.1767,-2.1304,-2.1341,0.0,0.0,0.0,0.0,0.0,0.0,0.0,0.0,0.0,0.0,0.0,-1.6933,-1.7075,-1.6807,-1.6442,-1.5955,-1.5831,-1.5756,-1.5631,-1.5242,-1.5411,-1.5725,-1.5442,-1.5854,-1.6337,-1.5552,-1.5579,-1.5752,-1.5165,-1.5095,-1.5175,-1.5175,-1.5775,-1.6409,-1.6409,-1.7352,-1.8302,-1.8302,-1.882,-1.9301,-1.9301,-1.9301,-1.9341,-1.942,-1.9404,0.0,0.0,0.0,0.0,0.0,0.0,0.0,0.0,0.0,0.0,-1.9692,0.0,0.0,0.0,0.0,0.0,-1.7126,0.0,0.0,0.0,0.0,-1.4866,-1.4989,0.0,-1.3547,-1.3621,-1.2323,-1.166,-1.1516,-1.1352,-1.1149,-1.0962,-1.1595,-1.1781,-1.1632,-1.2114,-1.2305,-1.2305,-1.2305,-1.2305,-1.2305,-1.2305,-1.2305,-1.2305,0.0,0.0,0.0,0.0,0.0,0.0,-2.581,-2.6172,-2.6582,-2.6963,-2.6973,-2.6826,-2.6434,-2.6445,-2.622,-2.5527,-2.5228,-2.4584,-2.3363,-2.2969,-2.2286,-2.1233,-2.1256,-2.1278,-2.1278,-2.0904,-2.0793,0.0,0.0,-2.114,0.0,0.0,0.0,0.0,0.0,0.0,0.0,-1.6366,-1.6441,-1.649,-1.6249,-1.5895,-1.5436,-1.4985,-1.4622,-1.4299,-1.425,-1.4426,-1.4663,-1.4623,-1.4918,-1.5292,-1.5095,-1.5048,-1.5087,-1.5015,-1.533,-1.5741,-1.5741,-1.6201,-1.667,-1.667,-1.7343,-1.8049,-1.8049,-1.8674,-1.9301,-1.9301,-1.9301,-1.942,-1.9784,-1.9251,-1.8914,0.0,0.0,0.0,0.0,0.0,-1.9854,-1.8466,0.0,0.0,0.0,-1.9032,0.0,0.0,-1.8676,0.0,0.0,0.0,0.0,-1.4903,0.0,-1.5643,-1.466,-1.4543,-1.4205,-1.3682,-1.3002,-1.241,-1.193,-1.1905,-1.1706,-1.1409,-1.215,-1.2415,-1.2231,-1.2268,-1.2305,-1.2305,-1.2305,-1.2305,-1.2305,-1.2305,-1.2305,-1.2305,0.0,0.0,0.0,0.0,0.0,0.0,0.0,-2.584,-2.5957,-2.5859,-2.6084,-2.6132,-2.6016,-2.5752,-2.5527,-2.5352,-2.4932,-2.4238,-2.3134,-2.3505,-2.3271,-2.2227,-2.1948,-2.187,-2.187,-2.1488,-2.1382,0.0,0.0,0.0,0.0,0.0,0.0,0.0,0.0,-1.7049,-1.6451,-1.6105,-1.5899,-1.5809,-1.5692,-1.5401,-1.4943,-1.4776,-1.4615,-1.4531,-1.511,-1.5524,-1.5844,-1.6171,-1.6267,-1.6198,-1.5661,-1.6067,-1.6548,-1.554,-1.5771,-1.624,-1.5703,-1.6513,-1.7472,-1.7472,-1.8118,-1.8767,-1.8767,-1.9054,-1.9301,-1.9301,-1.9118,-1.8992,-1.9147,-1.8814,-1.8536,-1.8573,0.0,0.0,0.0,0.0,0.0,-1.8103,0.0,-1.8536,0.0,0.0,0.0,0.0,0.0,0.0,0.0,0.0,0.0,-1.6395,0.0,-1.5636,-1.5385,-1.4402,-1.3789,-1.3514,-1.3173,-1.2871,-1.2526,-1.2673,-1.2489,-1.212,-1.2342,-1.2378,-1.2305,-1.2305,-1.2305,-1.2305,-1.2305,-1.2305,-1.2305,-1.2305,-1.2305,-1.2305,-2.5809,0.0,-2.5714,0.0,-2.5447,-2.5399,-2.5352,-2.5304,-2.5234,-2.4922,-2.5146,-2.5304,-2.5304,-2.5068,-2.4873,-2.4873,-2.4482,-2.3898,-2.3149,-2.3681,-2.3669,-2.2917,-2.2682,0.0,-2.2659,-2.1989,-2.1732,-2.1898,-2.2031,0.0,0.0,0.0,0.0,0.0,-1.7876,-1.7164,-1.6492,-1.6072,-1.5816,-1.5684,-1.5684,-1.5526,-1.5276,-1.5235,-1.5228,-1.5387,-1.6049,-1.6468,-1.6763,-1.7074,-1.7074,-1.6756,-1.5924,-1.6358,-1.6941,-1.5752,-1.6008,-1.6617,-1.6247,-1.7269,-1.8359,-1.8359,-1.8856,-1.9301,-1.9301,-1.921,-1.91,-1.8981,-1.8733,-1.8502,-1.8502,-1.8313,-1.8082,-1.7935,0.0,0.0,0.0,-1.7931,0.0,-1.7876,-1.8042,-1.811,-1.8008,-1.8414,0.0,0.0,0.0,0.0,0.0,0.0,0.0,0.0,0.0,0.0,-1.5882,-1.4201,-1.3292,-1.3147,-1.3116,-1.301,-1.2826,-1.29,-1.2783,-1.2489,-1.2378,-1.2305,-1.2305,-1.2305,-1.2305,-1.2305,-1.2305,-1.2305,-1.2305,-1.2305,-1.2305,-1.2305,-2.5123,-2.5123,-2.5041,-2.4858,-2.4812,-2.472,-2.448,-2.4434,-2.4424,-2.4424,-2.4424,-2.4434,-2.4434,-2.4424,-2.4424,-2.4424,-2.4043,-2.3799,-2.3799,-2.3344,-2.311,0.0,0.0,-2.3188,-2.347,-2.2102,-2.1478,-2.1683,0.0,0.0,-2.0407,0.0,-1.8447,-1.7391,-1.6714,-1.6278,-1.6128,-1.6319,-1.6394,-1.6394,-1.6394,-1.6484,-1.6648,-1.6476,-1.6509,-1.6698,-1.6698,-1.6698,-1.6698,-1.6698,-1.6698,-1.6542,-1.5684,-1.5401,-1.5443,-1.5394,-1.6008,-1.6903,-1.7755,-1.8607,-1.9262,-1.9262,-1.9301,-1.9301,-1.9301,-1.8999,-1.8576,-1.8182,-1.81,-1.8091,-1.8091,-1.7789,-1.7504,-1.7504,0.0,0.0,0.0,-1.7539,0.0,-1.7539,-1.8076,-1.8347,-1.8042,-1.8674,0.0,0.0,0.0,0.0,0.0,0.0,0.0,-1.8128,-1.7679,0.0,-1.5817,-1.3947,-1.2863,-1.2606,-1.2826,-1.2783,-1.2599,-1.2415,-1.2305,-1.2305,-1.2305,-1.2305,-1.2305,-1.2305,-1.2305,-1.2305,-1.2305,-1.2305,-1.2305,-1.2305,-1.2305,-1.2305,-2.5351,-2.5351,-2.5305,-2.5067,-2.5021,-2.493,-2.47,-2.4654,-2.451,-2.4069,-2.3984,-2.3877,-2.3539,-2.3809,-2.3984,0.0,-2.3594,-2.3305,0.0,-2.3354,-2.3235,-2.2886,-2.2418,-2.2059,-2.1805,-2.0826,-2.0422,-2.0625,0.0,0.0,0.0,-1.9347,-1.8926,-1.8006,-1.8118,-1.7723,-1.696,-1.6878,-1.6747,-1.6583,-1.6583,-1.6624,-1.6706,-1.6624,-1.6617,-1.678,-1.7391,-1.7188,-1.678,-1.7391,-1.7594,-1.7423,-1.6576,-1.6288,-1.6412,-1.6984,-1.7391,-1.7634,-1.7917,-1.8647,-1.9301,-1.9301,-1.91,-1.8898,-1.8898,-1.8595,-1.8237,-1.8118,-1.7889,-1.7697,-1.7697,-1.7367,-1.7092,-1.7092,-1.7095,0.0,-1.6908,0.0,-1.7608,-1.7505,-1.7881,-1.811,-1.8008,-1.8414,0.0,0.0,0.0,0.0,0.0,0.0,0.0,0.0,-1.8285,0.0,-1.6235,-1.471,-1.3427,-1.2415,-1.2599,-1.2673,-1.2599,-1.2378,-1.2305,-1.2305,-1.2305,-1.2305,-1.2305,-1.2305,-1.2305,-1.2305,-1.2305,-1.2305,-1.2305,-1.2305,-1.2305,-1.2271,-2.5122,-2.5122,-2.5033,-2.48,-2.4755,-2.471,-2.4441,-2.4396,-2.4252,-2.3851,-2.3811,-2.3713,-2.3382,-2.3599,0.0,-2.3545,-2.3198,-2.2987,-2.2987,-2.3054,-2.2846,-2.2223,-2.1773,-2.1419,-2.1246,-2.0546,0.0,-2.0999,-2.0348,-1.9731,-1.9164,-1.9371,-1.9015,-1.8184,-1.8496,-1.8256,-1.761,-1.7448,-1.7286,-1.7196,-1.7115,-1.7237,-1.7448,-1.7359,-1.7472,-1.7755,-1.8278,-1.8118,-1.7755,-1.8278,-1.8287,-1.7957,-1.7755,-1.7229,-1.6862,-1.7755,-1.7997,-1.8052,-1.8232,-1.868,-1.9045,-1.8898,-1.8678,-1.8449,-1.8293,-1.8064,-1.7844,-1.7697,-1.7458,-1.7275,-1.7275,-1.7073,-1.6908,-1.6908,-1.6908,-1.6908,-1.6908,0.0,-1.7323,0.0,0.0,0.0,0.0,-1.8178,-1.8313,0.0,0.0,0.0,0.0,0.0,0.0,-1.9793,-1.8347,0.0,-1.6422,-1.4857,-1.3461,-1.2305,-1.2415,-1.2489,-1.2489,-1.2378,-1.2305,-1.2305,-1.2305,-1.2305,-1.2305,-1.2305,-1.2305,-1.2305,-1.2305,-1.2305,-1.2285,-1.2178,-1.2138,-1.2098,-2.4404,-2.4404,-2.4372,0.0,-2.4155,0.0,-2.3884,-2.3841,-2.3831,-2.3757,-2.3747,-2.3737,-2.3707,-2.3737,-2.3564,-2.3057,0.0,0.0,0.0,-2.264,-2.2134,-2.1301,-2.1259,-2.1374,-2.1562,-2.1084,-2.1232,-2.2085,-2.128,-2.043,-1.958,-1.9283,-1.8665,-1.7829,-1.791,-1.791,-1.787,-1.791,-1.7951,-1.7991,-1.7781,-1.8112,-1.8692,-1.8465,-1.8776,-1.9301,-1.9301,-1.9262,-1.9222,-1.9222,-1.8687,-1.8158,-1.8899,-1.8083,-1.6985,-1.7794,-1.8003,-1.8077,-1.8538,-1.8669,-1.8586,-1.8173,-1.8063,-1.7935,-1.755,-1.7449,-1.7348,-1.6982,-1.6908,-1.6908,-1.6908,-1.6908,-1.6908,-1.6908,-1.6908,-1.6908,-1.6908,-1.6908,-1.7081,0.0,0.0,0.0,0.0,-1.8042,-1.8042,0.0,0.0,0.0,0.0,0.0,-1.9306,-1.9717,-1.8,-1.6838,-1.6415,-1.4535,-1.3171,-1.2305,-1.2305,-1.2305,-1.2305,-1.2305,-1.2305,-1.2305,-1.2305,-1.2305,-1.2305,-1.2305,-1.2305,-1.2305,-1.2305,-1.2291,-1.2238,-1.2007,-1.1893,-1.1832,0.0,0.0,-2.3619,-2.3929,-2.3949,-2.3978,-2.4102,-2.412,-2.3902,-2.3388,-2.3348,-2.3217,-2.2833,-2.3136,-2.3048,-2.2249,-2.2762,-2.3112,-2.3112,-2.2847,-2.2484,-2.193,-2.209,-2.1899,-2.1331,-2.0516,-1.9451,-1.8053,-1.7855,-1.7318,-1.6486,-1.7058,-1.6862,-1.6057,-1.7041,-1.7131,-1.6591,-1.687,-1.7391,-1.8006,-1.7965,-1.8416,-1.9152,-1.9103,-1.9143,-1.9301,-1.9301,-1.8856,-1.8327,-1.8327,-1.8158,-1.7994,-1.7869,-1.8018,-1.8261,-1.8455,-1.8057,-1.7657,-1.8102,-1.8228,-1.82,-1.8109,-1.788,-1.7541,-1.7138,-1.7046,-1.7018,-1.6927,-1.6908,-1.6908,-1.6908,-1.6908,-1.6908,-1.6908,-1.6908,-1.6908,-1.6908,-1.7151,-1.7392,0.0,-1.7735,-1.8008,-1.8347,-1.8381,-1.8516,0.0,0.0,0.0,0.0,-1.8775,-1.87,-1.8802,-1.812,-1.7297,-1.6325,-1.5311,-1.3947,-1.2305,-1.2305,-1.2305,-1.2305,-1.2305,-1.2305,-1.2305,-1.2305,-1.2305,-1.2305,-1.2305,-1.2305,-1.2305,-1.2305,-1.2164,-1.2,-1.1933,-1.1724,-1.149,-2.3184,-2.3184,-2.3267,-2.3525,-2.3743,-2.3918,-2.4039,-2.389,-2.3713,-2.3521,-2.3172,-2.2908,-2.2839,-2.3032,-2.3092,-2.2845,-2.2792,-2.2546,-2.2172,-2.1919,-2.1511,-2.0869,-2.0948,-2.0801,-2.0333,-1.9481,-1.847,-1.7261,-1.7058,-1.6731,-1.6273,-1.6568,-1.6657,-1.6617,-1.7326,-1.7617,-1.7594,-1.7796,-1.8158,-1.8607,-1.8607,-1.8895,-1.9301,-1.9301,-1.9301,-1.9301,-1.9301,-1.8858,-1.8311,-1.8311,-1.8197,-1.8011,-1.7808,-1.8051,-1.8403,-1.8219,-1.7945,-1.7734,-1.7797,-1.7834,-1.7789,-1.7614,-1.7394,-1.7165,-1.6954,-1.6908,-1.6908,-1.6908,-1.6908,-1.6908,-1.6908,-1.6908,-1.6908,-1.6908,-1.6908,-1.6908,-1.6908,-1.7081,-1.7229,-1.7229,-1.7461,-1.7725,-1.7896,-1.8032,-1.8226,-1.8418,-1.8539,0.0,-1.8607,-1.8245,-1.8279,-1.8741,-1.8279,-1.7613,-1.6819,-1.5728,-1.4414,-1.2842,-1.2842,-1.2666,-1.2305,-1.2415,-1.2452,-1.2452,-1.2452,-1.2452,-1.2415,-1.2342,-1.2225,-1.2104,-1.2104,-1.1924,-1.165,-1.1516,-1.1369,-1.1189,-2.2977,-2.3039,-2.3111,-2.3174,-2.3567,-2.3898,-2.3971,-2.3605,-2.344,-2.3732,-2.3115,-2.2676,-2.2947,-2.3111,-2.3287,-2.3464,-2.2756,-2.1955,-2.1288,-2.0958,-2.044,-1.9696,-1.9618,-1.9578,-1.9499,-1.8647,-1.8101,-1.7914,-1.7592,-1.735,-1.7188,-1.6846,-1.7107,-1.7796,-1.7796,-1.8198,-1.8895,-1.8895,-1.8975,-1.9094,-1.9094,-1.9173,-1.9292,-1.9237,-1.921,-1.9201,-1.9146,-1.8907,-1.8623,-1.8623,-1.8365,-1.8072,-1.8017,-1.799,-1.7944,-1.7532,-1.766,-1.7825,-1.7504,-1.7403,-1.7321,-1.6991,-1.6908,-1.6908,-1.6908,-1.6908,-1.6908,-1.6908,-1.6908,-1.6908,-1.6908,-1.6908,-1.6908,-1.6908,-1.6908,-1.6908,-1.6908,0.0,-1.6908,-1.6908,-1.7038,-1.7166,-1.7245,-1.751,-1.7681,-1.775,-1.7896,-1.8008,-1.8008,-1.7735,-1.8008,-1.8908,-1.8202,-1.7613,-1.7164,-1.5904,-1.4708,-1.3499,-1.3499,-1.3135,-1.2519,-1.2526,-1.2636,-1.2746,-1.2636,-1.2562,-1.2526,-1.2331,-1.2091,-1.1899,-1.1859,-1.1623,-1.1295,-1.1082,-1.0962,-1.0928,-2.2025,-2.2335,-2.2729,-2.3122,-2.3567,-2.4002,-2.4332,-2.4073,-2.3691,-2.335,-2.2854,-2.2371,-2.2056,-2.2718,-2.2784,-2.1695,-2.2161,-2.2605,-2.2838,-2.2078,-2.153,-2.1415,-2.1079,-2.077,-2.0401,-1.9529,-1.8727,-1.7989,-1.7908,-1.7496,-1.6772,-1.6731,-1.678,-1.6903,-1.6903,-1.6984,-1.7098,-1.7098,-1.7513,-1.8198,-1.8198,-1.8647,-1.9265,-1.8935,-1.8806,-1.876,-1.8393,-1.8228,-1.8173,-1.8173,-1.8136,-1.8027,-1.7706,-1.7596,-1.7513,-1.711,-1.7046,-1.7082,-1.7009,-1.7,-1.6982,-1.6927,-1.6908,-1.6908,-1.6908,-1.6908,-1.6908,-1.6908,-1.6908,-1.6908,-1.6908,-1.6908,-1.6908,-1.6908,-1.6908,-1.6908,-1.6908,0.0,-1.6908,-1.6908,-1.6943,-1.7081,-1.7426,-1.7505,-1.7632,-1.794,-1.7974,-1.8008,-1.8008,-1.794,-1.8008,-1.8178,-1.7461,-1.6751,-1.607,-1.5824,-1.4966,-1.3499,-1.3499,-1.3499,-1.3455,-1.2696,-1.2776,-1.3499,-1.2703,-1.2342,-1.2321,-1.2074,-1.1946,-1.1879,-1.159,-1.1316,-1.1056,-1.1009,-1.0868,-1.0653,-2.2501,-2.2718,-2.2936,-2.3153,-2.3567,-2.3867,-2.3815,-2.3464,-2.3125,-2.2873,-2.2222,-2.1698,-2.1494,-2.1841,-2.1856,-2.1243,-2.1422,-2.17,-2.209,-2.1273,-2.0673,-2.0479,-2.0284,-1.9883,-1.9195,-1.8359,-1.7464,-1.6617,-1.6124,-1.5677,-1.5318,-1.5318,-1.556,-1.6,-1.6494,-1.6944,-1.7415,-1.7664,-1.8022,-1.8367,-1.8154,-1.8276,-1.865,-1.8467,-1.8394,-1.8329,-1.8155,-1.7981,-1.7789,-1.7789,-1.7642,-1.744,-1.7238,-1.7183,-1.7138,-1.6963,-1.6908,-1.6908,-1.6908,-1.6908,-1.6874,-1.676,-1.6751,-1.6751,-1.6751,-1.6656,-1.6621,-1.6726,-1.6751,-1.6751,-1.6751,-1.683,-1.6908,-1.6908,-1.6908,0.0,0.0,-1.6908,-1.6908,-1.6908,-1.7012,-1.7141,-1.7314,-1.7486,-1.7691,-1.7828,-1.794,-1.7906,-1.7745,-1.7735,-1.7632,-1.7426,-1.7461,-1.7245,-1.6726,-1.6726,-1.6044,-1.4752,-1.4752,-1.4358,-1.3564,-1.3244,-1.3098,-1.3091,-1.2501,-1.2252,-1.2224,-1.1785,-1.1536,-1.1383,-1.1243,-1.1015,-1.0787,-1.0787,-1.0707,-1.0593,-2.3122,-2.3277,-2.3318,-2.3124,-2.3433,-2.3546,-2.2961,-2.2544,-2.2271,-2.2216,-2.1516,-2.1051,-2.1051,-2.1131,-2.1163,-2.1065,-2.0879,-2.0761,-2.0876,-2.027,-1.9736,-1.9332,-1.9006,-1.8479,-1.7715,-1.7017,-1.6332,-1.5606,-1.4919,-1.4559,-1.4489,-1.4689,-1.5133,-1.582,-1.6661,-1.7382,-1.8048,-1.8389,-1.8577,-1.855,-1.821,-1.8091,-1.8072,-1.8018,-1.7981,-1.7963,-1.7834,-1.7633,-1.7358,-1.7358,-1.7156,-1.6908,-1.6908,-1.6908,-1.6908,-1.6908,-1.6908,-1.6908,-1.6908,-1.6908,-1.6864,-1.6716,-1.6682,-1.6682,-1.6682,-1.6551,-1.6482,-1.6647,-1.6682,-1.6682,-1.6682,-1.6795,-1.6908,-1.6908,0.0,0.0,0.0,-1.6908,-1.6908,-1.6908,-1.7038,-1.7141,-1.7141,-1.7373,-1.751,-1.751,-1.7657,-1.7632,-1.7358,-1.7367,-1.722,-1.6908,-1.7461,-1.7632,-1.7367,-1.7367,-1.683,-1.5798,-1.5657,-1.4966,-1.3818,-1.3534,-1.3179,-1.2731,-1.2211,-1.2017,-1.1996,-1.1518,-1.1196,-1.0982,-1.0915,-1.0787,-1.0593,-1.0593,-1.0593,-1.0593,-2.3184,-2.3536,-2.3598,-2.2788,-2.2989,-2.2964,-2.2111,-2.1585,-2.1311,-2.1321,-2.0909,-2.0644,-2.0644,-2.0997,-2.1045,-2.0683,-2.0937,-2.0837,-2.0047,-1.9921,-1.9726,-1.9304,-1.8115,-1.7236,-1.6821,-1.6731,-1.654,-1.6222,-1.6182,-1.5976,-1.5699,-1.6436,-1.6826,-1.6902,-1.7667,-1.8014,-1.8089,-1.8145,-1.8127,-1.8127,-1.81,-1.8091,-1.8045,-1.7688,-1.7541,-1.7495,-1.7128,-1.6972,-1.6945,-1.6945,-1.6927,-1.6908,-1.6908,-1.6908,-1.6908,-1.6908,-1.6908,-1.6908,-1.6908,-1.6908,-1.6908,-1.6874,-1.6874,-1.6874,-1.6874,-1.6874,-1.6874,-1.6874,-1.6874,-1.6874,-1.6874,-1.6908,-1.6908,-1.6908,0.0,0.0,-1.6908,-1.6908,-1.6908,-1.6908,-1.6908,-1.6908,-1.6908,-1.6934,-1.6968,-1.6968,-1.6978,-1.6978,-1.6943,-1.6943,-1.6943,-1.6908,-1.6943,-1.6978,-1.6943,-1.6943,-1.6551,-1.5798,-1.5223,-1.4903,-1.4744,-1.3091,-1.2643,-1.3177,-1.1999,-1.1456,-1.1436,-1.1142,-1.1009,-1.0969,-1.0727,-1.0613,-1.0593,-1.0593,-1.0593,-1.0593,-2.233,-2.253,-2.2549,-2.2205,-2.2304,-2.2182,-2.1544,-2.1299,-2.1103,-2.0879,-2.0703,-2.0489,-2.0216,-2.032,-2.0221,-1.9833,-1.9916,-1.9865,-1.9548,-1.9015,-1.8886,-1.9283,-1.8565,-1.8088,-1.7939,-1.7159,-1.6702,-1.6608,-1.605,-1.5738,-1.5611,-1.5918,-1.607,-1.6117,-1.693,-1.7278,-1.7307,-1.7614,-1.7734,-1.7715,-1.7468,-1.7367,-1.7348,-1.7193,-1.7128,-1.711,-1.6963,-1.6908,-1.6908,-1.6908,-1.6908,-1.6908,-1.6908,-1.6908,-1.6908,-1.6908,-1.6908,-1.6908,-1.6908,-1.6908,-1.6874,-1.6751,-1.6716,-1.6716,-1.6716,-1.6621,-1.6551,-1.6682,-1.6716,-1.6716,-1.6716,-1.683,-1.6908,-1.6908,0.0,-1.6908,-1.6908,-1.6908,-1.6908,-1.6908,-1.6908,-1.6908,-1.6908,-1.6908,-1.6908,-1.6908,-1.6908,-1.6908,-1.6908,-1.6908,-1.6908,-1.6908,-1.6908,-1.6908,-1.6908,-1.6447,-1.6079,-1.5798,-1.4887,-1.4431,-1.4318,-1.3041,-1.255,-1.2665,-1.162,-1.1156,-1.1136,-1.0842,-1.076,-1.0747,-1.0633,-1.0593,-1.0593,-1.0593,-1.0593,-1.0593,-2.1828,-2.1887,-2.1797,-2.1547,-2.1477,-2.1291,-2.0696,-2.0589,-2.0483,-2.0244,-2.0206,-2.005,-1.9745,-1.9696,-1.9578,-1.9301,-1.9054,-1.8841,-1.8764,-1.7833,-1.7618,-1.8263,-1.7895,-1.7693,-1.7693,-1.6593,-1.5992,-1.5878,-1.5065,-1.4591,-1.4486,-1.4751,-1.4865,-1.491,-1.5744,-1.6125,-1.6146,-1.673,-1.6982,-1.6955,-1.6913,-1.6908,-1.6908,-1.6908,-1.6908,-1.6908,-1.6908,-1.6908,-1.6908,-1.6908,-1.6908,-1.6908,-1.6908,-1.6908,-1.6908,-1.6908,-1.6908,-1.6908,-1.6908,-1.6908,-1.6874,-1.6716,-1.6682,-1.6682,-1.6682,-1.6586,-1.6517,-1.6682,-1.6682,-1.6682,-1.6682,-1.6795,-1.6908,-1.6908,-1.6908,-1.6908,-1.6908,-1.6908,-1.6908,-1.6908,-1.6908,-1.6908,-1.6908,-1.6908,-1.6908,-1.6908,-1.6908,-1.6908,-1.6908,-1.6908,-1.6908,-1.6908,-1.6789,-1.6716,-1.6716,-1.6225,-1.5974,-1.6034,-1.4917,-1.4198,-1.3858,-1.2908,-1.2324,-1.1909,-1.1179,-1.0855,-1.0874,-1.0673,-1.0593,-1.0593,-1.0593,-1.0593,-1.0593,-1.0593,-1.0593,-1.0593,-2.1877,-2.1877,-2.1617,-2.0723,-2.0607,-2.0304,-1.9445,-1.9301,-1.9301,-1.9301,-1.9301,-1.9301,-1.9301,-1.9262,-1.9262,-1.9262,-1.8487,-1.7874,-1.7583,-1.6467,-1.5886,-1.6087,-1.5716,-1.5488,-1.5488,-1.4709,-1.4168,-1.3893,-1.3151,-1.263,-1.2335,-1.3135,-1.3499,-1.3535,-1.4279,-1.4601,-1.4637,-1.5436,-1.5798,-1.5868,-1.6586,-1.6908,-1.6908,-1.6908,-1.6908,-1.6908,-1.6908,-1.6908,-1.6908,-1.6908,-1.6908,-1.6908,-1.6908,-1.6908,-1.6908,-1.6908,-1.6908,-1.6908,-1.6908,-1.6908,-1.6908,-1.6908,-1.6908,-1.6908,-1.6908,-1.6908,-1.6908,-1.6908,-1.6908,-1.6908,-1.6908,-1.6908,-1.6908,-1.6908,-1.6908,-1.6908,-1.6908,-1.6908,-1.6908,-1.6908,-1.6908,-1.6908,-1.6908,-1.6908,-1.6908,-1.6908,-1.6908,-1.6908,-1.6899,-1.6899,-1.6899,-1.6899,-1.6514,-1.6279,-1.6279,-1.6279,-1.637,-1.6561,-1.5331,-1.4362,-1.3568,-1.2674,-1.1808,-1.1008,-1.072,-1.0593,-1.0593,-1.0593,-1.0593,-1.0593,-1.0593,-1.0593,-1.0593,-1.0593,-1.0593,-1.0593,-2.0061,-2.0061,-1.9984,-1.9743,-1.9684,-1.9598,-1.9359,-1.9301,-1.9301,-1.9301,-1.8776,-1.8407,-1.8407,-1.7836,-1.7472,-1.7472,-1.7079,-1.6665,-1.6374,-1.5756,-1.5423,-1.5451,-1.5356,-1.53,-1.53,-1.478,-1.4462,-1.4398,-1.4179,-1.4017,-1.3918,-1.4178,-1.4279,-1.4279,-1.4494,-1.4601,-1.4601,-1.4859,-1.5294,-1.5833,-1.6044,-1.6438,-1.6908,-1.6908,-1.6908,-1.6908,-1.6908,-1.6908,-1.6908,-1.6908,-1.6908,-1.6908,-1.6908,-1.6908,-1.6908,-1.6908,-1.6908,-1.6908,-1.6908,-1.6908,-1.6908,-1.6908,-1.6908,-1.6908,-1.6908,-1.6908,-1.6908,-1.6908,-1.6908,-1.6908,-1.6908,-1.6908,-1.6908,-1.6908,-1.6908,-1.6908,-1.6908,-1.6908,-1.6908,-1.6908,-1.6908,-1.6908,-1.6908,-1.6908,-1.6908,-1.6908,-1.6908,-1.6789,-1.6471,-1.6496,-1.6358,-1.6065,-1.5936,-1.5709,-1.5406,-1.4746,-1.4447,-1.4472,-1.2877,-1.2258,-1.2462,-1.1525,-1.1192,-1.1305,-1.0817,-1.0593,-1.0593,-1.0593,-1.0593,-1.0593,-1.0593,-1.0593,-1.0593,-1.0593,-1.0593,-1.0593,-1.9301,-1.9301,-1.9301,-1.9301,-1.9015,-1.8776,-1.8776,-1.8487,-1.8278,-1.8278,-1.7796,-1.7472,-1.7472,-1.7025,-1.6643,-1.6548,-1.5858,-1.5181,-1.466,-1.4268,-1.4052,-1.4052,-1.4052,-1.4347,-1.4935,-1.4431,-1.4178,-1.4178,-1.3854,-1.3709,-1.3709,-1.3709,-1.3709,-1.3702,-1.4034,-1.4178,-1.4207,-1.4824,-1.5365,-1.5833,-1.6123,-1.6508,-1.6908,-1.6908,-1.6908,-1.6908,-1.6908,-1.6908,-1.6908,-1.6908,-1.6908,-1.6908,-1.6908,-1.6908,-1.6908,-1.6908,-1.6908,-1.6908,-1.6908,-1.6908,-1.6908,-1.6908,-1.6908,-1.6908,-1.6908,-1.6908,-1.6908,-1.6908,-1.6908,-1.6908,-1.6908,-1.6908,-1.6908,-1.6908,-1.6908,-1.6908,-1.6908,-1.6908,-1.6908,-1.6908,-1.6908,-1.6908,-1.6908,-1.6908,-1.6844,-1.6688,-1.6523,-1.6321,-1.6083,-1.6074,-1.5955,-1.5698,-1.5542,-1.5323,-1.5028,-1.4104,-1.3591,-1.3525,-1.2468,-1.1927,-1.1806,-1.1476,-1.1264,-1.1115,-1.0744,-1.0593,-1.0593,-1.0593,-1.0593,-1.0593,-1.0593,-1.0593,-1.0593,-1.0593,-1.0593,-1.0593,-1.9183,-1.9173,-1.9173,-1.9173,-1.8527,-1.7997,-1.7997,-1.7391,-1.6935,-1.6935,-1.678,-1.6683,-1.6651,-1.6528,-1.6313,-1.6047,-1.4766,-1.3644,-1.282,-1.2452,-1.2305,-1.2305,-1.2305,-1.2952,-1.435,-1.3745,-1.339,-1.339,-1.2666,-1.2305,-1.2305,-1.2305,-1.2305,-1.2342,-1.3062,-1.339,-1.3491,-1.4895,-1.5578,-1.5762,-1.6403,-1.6795,-1.6908,-1.6908,-1.6908,-1.6908,-1.6908,-1.6908,-1.6908,-1.6908,-1.6908,-1.6908,-1.6908,-1.6908,-1.6908,-1.6908,-1.6908,-1.6908,-1.6908,-1.6908,-1.6908,-1.6908,-1.6908,-1.6908,-1.6908,-1.6908,-1.6908,-1.6908,-1.6908,-1.6908,-1.6908,-1.6908,-1.6908,-1.6908,-1.6908,-1.6908,-1.6908,-1.6872,-1.6853,-1.6853,-1.6817,-1.6798,-1.6798,-1.6798,-1.6652,-1.6251,-1.5909,-1.567,-1.5643,-1.5634,-1.5615,-1.5588,-1.5239,-1.5016,-1.4985,-1.4078,-1.3542,-1.3424,-1.3358,-1.2712,-1.1545,-1.2081,-1.1686,-1.0593,-1.0593,-1.0593,-1.0593,-1.0624,-1.0624,-1.0593,-1.0624,-1.0624,-1.0624,-1.0593,-1.0624,-1.0624,-1.8407,-1.8278,-1.8278,-1.8278,-1.8118,-1.7997,-1.7997,-1.8407,-1.8727,-1.8727,-1.7553,-1.6636,-1.6405,-1.5135,-1.4177,-1.3917,-1.3386,-1.2872,-1.2449,-1.2338,-1.2305,-1.2305,-1.2305,-1.2445,-1.2806,-1.2622,-1.2556,-1.2556,-1.2372,-1.2305,-1.2305,-1.2305,-1.2305,-1.2305,-1.2482,-1.2556,-1.2592,-1.2915,-1.3745,-1.4859,-1.5029,-1.5824,-1.6908,-1.6908,-1.6908,-1.6908,-1.6908,-1.6908,-1.6908,-1.6908,-1.6908,-1.6908,-1.6908,-1.6908,-1.6908,-1.6908,-1.6908,-1.6908,-1.6908,-1.6908,-1.6908,-1.6908,-1.6908,-1.6908,-1.6908,-1.6908,-1.6908,-1.6908,-1.6908,-1.6908,-1.6908,-1.6908,-1.6908,-1.6908,-1.6908,-1.6908,-1.6908,-1.6642,-1.645,-1.645,-1.6156,-1.5955,-1.5955,-1.5955,-1.5918,-1.5835,-1.5744,-1.5551,-1.5249,-1.523,-1.5084,-1.4781,-1.468,-1.4415,-1.4004,-1.3333,-1.3202,-1.3622,-1.2636,-1.202,-1.171,-1.1226,-1.087,-1.0593,-1.0593,-1.0593,-1.0624,-1.0713,-1.0681,-1.0624,-1.0713,-1.0776,-1.0744,-1.0656,-1.0688,-1.0713,-1.8727,-1.8607,-1.8607,-1.8607,-1.7917,-1.7391,-1.7391,-1.7058,-1.6813,-1.6813,-1.5904,-1.5183,-1.5014,-1.4032,-1.3313,-1.3013,-1.275,-1.2509,-1.2311,-1.2305,-1.2305,-1.2305,-1.2305,-1.2305,-1.2305,-1.2305,-1.2305,-1.2305,-1.2305,-1.2305,-1.2305,-1.2305,-1.2305,-1.2335,-1.2703,-1.2879,-1.2915,-1.3353,-1.3998,-1.4752,-1.4867,-1.5365,-1.6123,-1.6473,-1.6577,-1.6586,-1.7012,-1.7116,-1.7038,-1.6943,-1.6908,-1.6908,-1.6908,-1.6908,-1.6908,-1.6908,-1.6908,-1.6908,-1.6908,-1.6908,-1.6908,-1.6908,-1.6771,-1.6679,-1.6862,-1.6908,-1.6908,-1.6908,-1.6908,-1.6844,-1.6661,-1.6624,-1.656,-1.6358,-1.6321,-1.6321,-1.6321,-1.6147,-1.6019,-1.6019,-1.5826,-1.5689,-1.5689,-1.5515,-1.5414,-1.5414,-1.5239,-1.5038,-1.4836,-1.4818,-1.4726,-1.4515,-1.4297,-1.404,-1.3761,-1.3169,-1.3039,-1.3351,-1.2305,-1.16,-1.1226,-1.1083,-1.0902,-1.0713,-1.0713,-1.0744,-1.0839,-1.0902,-1.0902,-1.0846,-1.0933,-1.0933,-1.0933,-1.0681,-1.0523,-1.0345,-1.8797,-1.8683,-1.8647,-1.8647,-1.7432,-1.6494,-1.6494,-1.5394,-1.4524,-1.4469,-1.4077,-1.3804,-1.3703,-1.3306,-1.2953,-1.273,-1.2445,-1.2305,-1.2305,-1.2305,-1.2305,-1.2305,-1.2305,-1.2305,-1.2305,-1.2305,-1.2305,-1.2305,-1.2305,-1.2305,-1.2305,-1.2305,-1.2305,-1.2342,-1.2989,-1.328,-1.3353,-1.415,-1.4573,-1.4689,-1.5054,-1.5232,-1.5409,-1.621,-1.6429,-1.6377,-1.7185,-1.7323,-1.7132,-1.6968,-1.6908,-1.6908,-1.6908,-1.6908,-1.6908,-1.6908,-1.6862,-1.6807,-1.6807,-1.6752,-1.6697,-1.6697,-1.645,-1.626,-1.6624,-1.6697,-1.6697,-1.6697,-1.6697,-1.6597,-1.6276,-1.6211,-1.6101,-1.5744,-1.5689,-1.5689,-1.5689,-1.5634,-1.5588,-1.5588,-1.5533,-1.5487,-1.5487,-1.5194,-1.5001,-1.5001,-1.4698,-1.4515,-1.4515,-1.4515,-1.4506,-1.4536,-1.407,-1.3821,-1.3881,-1.3199,-1.2887,-1.2856,-1.2104,-1.1397,-1.0839,-1.1209,-1.1178,-1.0839,-1.0839,-1.0965,-1.109,-1.1122,-1.109,-1.1028,-1.1028,-1.0996,-1.0926,-1.0564,-1.0198,-0.9838,-1.669,-1.6216,-1.5925,-1.5925,-1.5718,-1.5602,-1.5602,-1.6008,-1.6269,-1.6013,-1.5255,-1.454,-1.4074,-1.3058,-1.2405,-1.2365,-1.2325,-1.2305,-1.2305,-1.2305,-1.2305,-1.2305,-1.2305,-1.2305,-1.2305,-1.2305,-1.2305,-1.2305,-1.2305,-1.2305,-1.2305,-1.2305,-1.2305,-1.2305,-1.2409,-1.2445,-1.2482,-1.2776,-1.3208,-1.3781,-1.4804,-1.548,-1.6009,-1.6968,-1.721,-1.7063,-1.721,-1.7107,-1.6943,-1.6908,-1.6908,-1.6908,-1.6908,-1.6908,-1.6908,-1.6908,-1.6661,-1.6361,-1.6361,-1.6129,-1.5854,-1.5854,-1.5817,-1.579,-1.5845,-1.5854,-1.5854,-1.5854,-1.5854,-1.5835,-1.578,-1.5771,-1.5753,-1.5698,-1.5689,-1.5689,-1.5689,-1.5395,-1.5184,-1.5184,-1.4882,-1.4671,-1.4671,-1.4625,-1.4588,-1.4588,-1.4543,-1.4515,-1.4515,-1.4515,-1.4565,-1.4656,-1.4121,-1.3911,-1.4154,-1.2986,-1.2382,-1.2389,-1.1701,-1.1514,-1.1803,-1.117,-1.0958,-1.1059,-1.1059,-1.1059,-1.1122,-1.1216,-1.1028,-1.0688,-1.0807,-1.0649,-1.037,-0.9952,-0.9678,-0.9389,-1.6005,-1.5779,-1.5665,-1.5857,-1.549,-1.5123,-1.5123,-1.5042,-1.4892,-1.4612,-1.4102,-1.3649,-1.3383,-1.274,-1.2305,-1.2305,-1.2305,-1.2305,-1.2305,-1.2305,-1.2305,-1.2305,-1.2305,-1.2305,-1.2305,-1.2305,-1.2305,-1.2305,-1.2305,-1.2305,-1.2305,-1.2305,-1.2305,-1.2305,-1.2305,-1.2305,-1.2335,-1.2996,-1.3433,-1.376,-1.4804,-1.5338,-1.5657,-1.6647,-1.6855,-1.6733,-1.7088,-1.7132,-1.7038,-1.6934,-1.6908,-1.6872,-1.6652,-1.6544,-1.6532,-1.6294,-1.6101,-1.5964,-1.5964,-1.5835,-1.5689,-1.5689,-1.5524,-1.5359,-1.5359,-1.5194,-1.5157,-1.5597,-1.5689,-1.5615,-1.5404,-1.5359,-1.5285,-1.5065,-1.5029,-1.5029,-1.5029,-1.4882,-1.4772,-1.4772,-1.4616,-1.4515,-1.4515,-1.4515,-1.4515,-1.4515,-1.4515,-1.4515,-1.4515,-1.4556,-1.4636,-1.4715,-1.3932,-1.3571,-1.3713,-1.2413,-1.174,-1.1725,-1.1178,-1.1115,-1.1483,-1.1115,-1.0965,-1.0933,-1.0933,-1.0902,-1.0846,-1.087,-1.0776,-1.0624,-1.0688,-1.0322,-0.9742,-0.9427,-0.9088,-0.8717]}]]